[[{"header":{"parameterUnit":"m.s-1","parameterCategory":1,"la1":30.6,"la2":29.2853,"lo1":-89.7004,"lo2":-87.6739,"dy":0.0162,"dx":0.0183,"nx":112,"ny":82,"refTime":"2024-06-12T00:00:00:Z","depth":0,"parameterNumber":2,"parameterNumberName":"U-component_of_WINDS"},"data":[0.0,0.0,0.0,0.0,0.0,0.0,0.0,0.0,0.0,0.0,0.0,0.0,0.0,0.0,0.0,0.0,0.0,0.0,0.0,0.0,0.0,0.0,0.0,0.0,0.0,0.0,0.0,0.0,0.0,0.0,0.0,0.0,0.0,0.0,0.0,0.0,0.0,0.0,0.0,0.0,0.0,0.0,0.0,0.0,0.0,0.0,0.0,0.0,0.0,0.0,0.0,0.0,0.0,0.0,0.0,0.0,0.0,0.0,0.0,0.0,0.0,0.0,0.0,0.0,0.0,0.0,0.0,0.0,0.0,0.0,0.0,0.0,0.0,0.0,0.0,0.0,0.0,0.0,0.0,0.0,0.0,0.0,0.0,0.0,0.0,0.0,0.0,0.0,0.0,0.0,-3.0703,-3.2275,-3.3517,-3.425,-3.4275,-3.3769,-3.2916,-3.1646,0.0,0.0,0.0,0.0,0.0,0.0,0.0,0.0,0.0,0.0,0.0,0.0,0.0,0.0,0.0,0.0,0.0,0.0,0.0,0.0,0.0,0.0,0.0,0.0,0.0,0.0,0.0,0.0,0.0,0.0,0.0,0.0,0.0,0.0,0.0,0.0,0.0,0.0,0.0,0.0,0.0,0.0,0.0,0.0,0.0,0.0,0.0,0.0,0.0,0.0,0.0,0.0,0.0,0.0,0.0,0.0,0.0,0.0,0.0,0.0,0.0,0.0,0.0,0.0,0.0,0.0,0.0,0.0,0.0,0.0,0.0,0.0,0.0,0.0,0.0,0.0,0.0,0.0,0.0,0.0,0.0,0.0,0.0,0.0,0.0,0.0,0.0,0.0,0.0,0.0,0.0,0.0,0.0,0.0,0.0,0.0,0.0,0.0,0.0,0.0,0.0,0.0,0.0,0.0,-3.1758,-3.3761,-3.4456,-3.4875,-3.5088,-3.4468,-3.3543,-3.2338,0.0,0.0,0.0,0.0,0.0,0.0,0.0,0.0,0.0,0.0,0.0,0.0,0.0,0.0,0.0,0.0,0.0,0.0,0.0,0.0,0.0,0.0,0.0,0.0,0.0,0.0,0.0,0.0,0.0,0.0,0.0,0.0,0.0,0.0,0.0,0.0,0.0,0.0,0.0,0.0,0.0,0.0,0.0,0.0,0.0,0.0,0.0,0.0,0.0,0.0,0.0,0.0,0.0,0.0,0.0,0.0,0.0,0.0,0.0,0.0,0.0,0.0,0.0,0.0,0.0,0.0,0.0,0.0,0.0,0.0,0.0,0.0,0.0,0.0,0.0,0.0,0.0,0.0,0.0,0.0,0.0,0.0,0.0,0.0,0.0,0.0,0.0,0.0,0.0,0.0,0.0,0.0,0.0,0.0,0.0,0.0,0.0,0.0,0.0,0.0,0.0,0.0,0.0,-3.1984,-3.3141,-3.4374,-3.4875,-3.5175,-3.5291,-3.4656,-3.3812,-3.2746,-3.1411,0.0,0.0,0.0,0.0,0.0,0.0,0.0,0.0,0.0,0.0,0.0,0.0,0.0,0.0,0.0,0.0,0.0,0.0,0.0,0.0,0.0,0.0,0.0,0.0,0.0,0.0,0.0,0.0,0.0,0.0,0.0,0.0,0.0,0.0,0.0,0.0,0.0,0.0,0.0,0.0,0.0,0.0,0.0,0.0,0.0,0.0,0.0,0.0,0.0,0.0,0.0,0.0,0.0,0.0,0.0,0.0,0.0,0.0,0.0,0.0,0.0,0.0,0.0,0.0,0.0,0.0,0.0,0.0,0.0,0.0,0.0,0.0,0.0,0.0,0.0,0.0,0.0,0.0,0.0,0.0,0.0,0.0,0.0,0.0,0.0,0.0,0.0,0.0,0.0,0.0,0.0,0.0,0.0,0.0,0.0,0.0,0.0,0.0,0.0,0.0,0.0,0.0,-3.3463,-3.4201,-3.4739,-3.5128,-3.5337,-3.5383,-3.4729,-3.395,-3.3049,-3.2087,0.0,0.0,0.0,0.0,0.0,0.0,0.0,0.0,0.0,0.0,0.0,0.0,0.0,0.0,0.0,0.0,0.0,0.0,0.0,0.0,0.0,0.0,0.0,0.0,0.0,0.0,0.0,0.0,0.0,0.0,0.0,0.0,0.0,0.0,0.0,0.0,0.0,0.0,0.0,0.0,0.0,0.0,0.0,0.0,0.0,0.0,0.0,0.0,0.0,0.0,0.0,0.0,0.0,0.0,0.0,0.0,0.0,0.0,0.0,0.0,0.0,0.0,0.0,0.0,0.0,0.0,0.0,0.0,0.0,0.0,0.0,0.0,0.0,0.0,0.0,0.0,0.0,0.0,0.0,0.0,0.0,0.0,0.0,0.0,0.0,0.0,0.0,0.0,0.0,0.0,0.0,0.0,0.0,0.0,0.0,0.0,0.0,0.0,0.0,0.0,0.0,0.0,-3.3546,-3.4472,-3.5018,-3.5314,-3.5498,-3.5577,-3.4906,-3.4136,-3.3338,-3.2454,0.0,0.0,0.0,0.0,0.0,0.0,0.0,0.0,0.0,0.0,0.0,0.0,0.0,0.0,0.0,0.0,0.0,0.0,0.0,0.0,0.0,0.0,0.0,0.0,0.0,0.0,0.0,0.0,0.0,0.0,0.0,0.0,0.0,0.0,0.0,0.0,0.0,0.0,0.0,0.0,0.0,0.0,0.0,0.0,0.0,0.0,0.0,0.0,0.0,0.0,0.0,0.0,0.0,0.0,0.0,0.0,0.0,0.0,0.0,0.0,0.0,0.0,0.0,0.0,0.0,0.0,0.0,0.0,0.0,0.0,0.0,0.0,0.0,0.0,0.0,0.0,0.0,0.0,0.0,0.0,0.0,0.0,0.0,0.0,0.0,0.0,0.0,0.0,0.0,0.0,0.0,0.0,0.0,0.0,0.0,0.0,0.0,0.0,0.0,0.0,0.0,0.0,-3.3423,-3.4423,-3.5018,-3.5337,-3.552,-3.56,-3.4506,-3.3672,-3.3377,0.0,0.0,0.0,0.0,0.0,0.0,0.0,0.0,0.0,0.0,0.0,0.0,0.0,0.0,0.0,0.0,0.0,0.0,0.0,0.0,0.0,0.0,0.0,0.0,0.0,0.0,0.0,0.0,0.0,0.0,0.0,0.0,0.0,0.0,0.0,0.0,0.0,0.0,0.0,0.0,0.0,0.0,0.0,0.0,0.0,0.0,0.0,0.0,0.0,0.0,0.0,0.0,0.0,0.0,0.0,0.0,0.0,0.0,0.0,0.0,0.0,0.0,0.0,0.0,0.0,0.0,0.0,0.0,0.0,0.0,0.0,0.0,0.0,0.0,0.0,0.0,0.0,0.0,0.0,0.0,0.0,0.0,0.0,0.0,0.0,0.0,0.0,0.0,0.0,0.0,0.0,0.0,0.0,0.0,0.0,0.0,0.0,0.0,0.0,0.0,0.0,0.0,-3.1732,-3.3178,-3.4349,-3.497,-3.5314,-3.5419,-3.5261,-3.4095,-3.3305,-3.3068,0.0,0.0,0.0,0.0,0.0,0.0,0.0,0.0,0.0,0.0,0.0,0.0,0.0,0.0,0.0,0.0,0.0,0.0,0.0,0.0,0.0,0.0,0.0,0.0,0.0,0.0,0.0,0.0,0.0,0.0,0.0,0.0,0.0,0.0,0.0,0.0,0.0,0.0,0.0,0.0,0.0,0.0,0.0,0.0,0.0,0.0,0.0,0.0,0.0,0.0,0.0,0.0,0.0,0.0,0.0,0.0,0.0,0.0,0.0,0.0,0.0,0.0,0.0,0.0,0.0,0.0,0.0,0.0,0.0,0.0,0.0,0.0,0.0,0.0,0.0,0.0,0.0,0.0,0.0,0.0,0.0,0.0,0.0,0.0,0.0,0.0,0.0,0.0,0.0,0.0,0.0,0.0,0.0,0.0,0.0,0.0,0.0,0.0,0.0,0.0,0.0,0.0,-3.0905,-3.2807,-3.43,-3.4851,-3.5245,-3.5217,-3.4556,-3.3829,-3.3085,0.0,0.0,0.0,0.0,0.0,0.0,0.0,0.0,0.0,0.0,0.0,0.0,0.0,0.0,0.0,0.0,0.0,0.0,0.0,0.0,0.0,0.0,0.0,0.0,0.0,0.0,0.0,0.0,0.0,0.0,0.0,0.0,0.0,0.0,0.0,0.0,0.0,0.0,0.0,0.0,0.0,0.0,0.0,0.0,0.0,0.0,0.0,0.0,0.0,0.0,0.0,0.0,0.0,0.0,0.0,0.0,0.0,0.0,0.0,0.0,0.0,0.0,0.0,0.0,0.0,0.0,0.0,0.0,0.0,0.0,0.0,0.0,0.0,0.0,0.0,0.0,0.0,0.0,0.0,0.0,0.0,0.0,0.0,0.0,0.0,0.0,0.0,0.0,0.0,0.0,0.0,0.0,0.0,0.0,0.0,0.0,0.0,0.0,0.0,0.0,0.0,0.0,0.0,-3.0505,-3.2273,-3.3739,-3.4399,-3.4923,-3.4996,-3.4408,-3.3769,-3.3085,-3.2344,0.0,0.0,0.0,0.0,0.0,0.0,0.0,0.0,0.0,0.0,0.0,0.0,0.0,0.0,0.0,0.0,0.0,0.0,0.0,0.0,0.0,0.0,0.0,0.0,0.0,0.0,0.0,0.0,0.0,0.0,0.0,0.0,0.0,0.0,0.0,0.0,0.0,0.0,0.0,0.0,0.0,0.0,0.0,0.0,0.0,0.0,0.0,0.0,0.0,0.0,0.0,0.0,0.0,0.0,0.0,0.0,0.0,0.0,0.0,0.0,0.0,0.0,0.0,0.0,0.0,0.0,0.0,0.0,0.0,0.0,0.0,0.0,0.0,0.0,0.0,0.0,0.0,0.0,0.0,0.0,0.0,0.0,0.0,0.0,0.0,0.0,0.0,0.0,0.0,0.0,0.0,0.0,0.0,0.0,0.0,0.0,0.0,0.0,0.0,0.0,0.0,0.0,-3.0278,-3.1961,-3.3387,-3.4075,-3.4355,-3.4316,-3.3817,-3.3246,-3.2587,-3.1904,0.0,0.0,0.0,0.0,0.0,0.0,0.0,0.0,0.0,0.0,0.0,0.0,0.0,0.0,0.0,0.0,0.0,0.0,0.0,0.0,0.0,0.0,0.0,0.0,0.0,0.0,0.0,0.0,0.0,0.0,0.0,0.0,0.0,0.0,0.0,0.0,0.0,0.0,0.0,0.0,0.0,0.0,0.0,0.0,0.0,0.0,0.0,0.0,0.0,0.0,0.0,0.0,0.0,0.0,0.0,0.0,0.0,0.0,0.0,0.0,0.0,0.0,0.0,0.0,0.0,0.0,0.0,0.0,0.0,0.0,0.0,0.0,0.0,0.0,0.0,0.0,0.0,0.0,0.0,0.0,0.0,0.0,0.0,0.0,0.0,0.0,0.0,0.0,0.0,0.0,0.0,0.0,0.0,0.0,0.0,0.0,0.0,0.0,0.0,0.0,0.0,0.0,-3.0136,-3.1803,-3.3177,-3.3755,-3.3632,-3.3383,-3.2989,-3.2425,-3.183,-3.1221,0.0,0.0,0.0,0.0,0.0,0.0,0.0,0.0,0.0,0.0,0.0,0.0,0.0,0.0,0.0,0.0,0.0,0.0,0.0,0.0,0.0,0.0,0.0,0.0,0.0,0.0,0.0,0.0,0.0,0.0,0.0,0.0,0.0,0.0,0.0,0.0,0.0,0.0,0.0,0.0,0.0,0.0,0.0,0.0,0.0,0.0,0.0,0.0,0.0,0.0,0.0,0.0,0.0,0.0,0.0,0.0,0.0,0.0,0.0,0.0,-2.9249,-2.914,0.0,0.0,0.0,0.0,0.0,0.0,0.0,0.0,0.0,0.0,0.0,0.0,0.0,0.0,0.0,0.0,0.0,0.0,0.0,0.0,0.0,0.0,0.0,0.0,0.0,0.0,0.0,0.0,0.0,0.0,0.0,0.0,0.0,0.0,0.0,0.0,0.0,0.0,0.0,0.0,-2.9872,-3.1416,-3.2695,-3.3135,-3.3148,-3.3003,-3.2644,-3.2245,-3.1741,-3.1086,-3.1151,0.0,0.0,0.0,0.0,0.0,0.0,0.0,0.0,0.0,0.0,0.0,0.0,0.0,0.0,0.0,0.0,0.0,0.0,0.0,0.0,0.0,0.0,0.0,0.0,0.0,0.0,0.0,0.0,0.0,0.0,0.0,0.0,0.0,0.0,0.0,0.0,0.0,0.0,0.0,0.0,0.0,0.0,0.0,0.0,0.0,0.0,0.0,0.0,0.0,0.0,0.0,0.0,0.0,0.0,0.0,0.0,0.0,0.0,0.0,-2.9784,-2.9614,0.0,0.0,0.0,0.0,0.0,0.0,0.0,0.0,0.0,0.0,0.0,0.0,0.0,0.0,0.0,0.0,0.0,0.0,0.0,0.0,0.0,0.0,0.0,0.0,0.0,0.0,0.0,0.0,0.0,0.0,0.0,0.0,0.0,0.0,0.0,0.0,0.0,0.0,0.0,0.0,-3.0229,-3.1399,-3.237,-3.2761,-3.239,-3.212,-3.2206,-3.1545,-3.1024,-3.077,-3.0834,0.0,0.0,0.0,0.0,0.0,0.0,0.0,0.0,0.0,0.0,0.0,0.0,0.0,0.0,0.0,0.0,0.0,0.0,0.0,0.0,0.0,0.0,0.0,0.0,0.0,0.0,0.0,0.0,0.0,0.0,0.0,0.0,0.0,0.0,0.0,0.0,0.0,0.0,0.0,0.0,0.0,0.0,0.0,0.0,0.0,0.0,0.0,0.0,0.0,0.0,0.0,0.0,0.0,-3.0113,-3.0305,-3.0698,-3.0482,-3.0495,-3.0646,-2.9944,-2.9776,-3.0047,-3.045,0.0,0.0,0.0,0.0,0.0,0.0,0.0,0.0,0.0,0.0,0.0,0.0,0.0,0.0,0.0,0.0,0.0,0.0,0.0,0.0,0.0,0.0,0.0,0.0,-2.6285,-2.6424,-2.5573,0.0,0.0,0.0,0.0,0.0,0.0,0.0,0.0,0.0,0.0,0.0,-3.0629,-3.1432,-3.2094,-3.2465,-3.1613,-3.1193,-3.1694,-3.0725,-3.0189,-3.0363,-3.0405,-3.0087,0.0,0.0,0.0,0.0,0.0,0.0,0.0,0.0,0.0,0.0,0.0,0.0,0.0,0.0,0.0,0.0,0.0,0.0,0.0,0.0,0.0,0.0,0.0,0.0,0.0,0.0,0.0,0.0,0.0,0.0,0.0,0.0,-2.5174,-2.6244,0.0,0.0,0.0,0.0,0.0,0.0,0.0,0.0,0.0,0.0,0.0,0.0,0.0,-2.9869,-2.983,-2.983,-2.9934,-3.0113,-3.0113,-3.0305,-3.0698,-3.0482,-3.0495,-3.0685,-3.0404,0.0,-3.0823,-3.0855,0.0,0.0,0.0,0.0,0.0,0.0,0.0,0.0,0.0,0.0,0.0,0.0,0.0,0.0,0.0,0.0,0.0,0.0,0.0,0.0,0.0,0.0,-2.6499,-2.6989,-2.7153,-2.7268,0.0,-2.67,-2.5906,-2.6246,-2.64,0.0,0.0,0.0,0.0,0.0,0.0,0.0,-3.0354,-3.1221,-3.1898,-3.2066,-3.1182,-3.0694,-3.1011,-3.0185,-2.9744,-2.9881,-3.0108,-2.984,-2.8995,-2.8865,0.0,0.0,0.0,0.0,0.0,0.0,0.0,0.0,0.0,0.0,0.0,0.0,0.0,0.0,0.0,0.0,0.0,0.0,0.0,0.0,0.0,0.0,0.0,0.0,0.0,0.0,0.0,0.0,0.0,-2.4563,-2.5854,-2.6853,-2.7837,-2.8607,0.0,0.0,0.0,0.0,0.0,0.0,0.0,0.0,0.0,-2.9792,-2.9792,-2.9792,-2.9792,-2.9792,-2.983,-2.9934,-2.9934,-3.0011,-3.0203,-3.0088,-3.0126,-3.0203,-3.0088,-3.0152,-3.0368,-3.0884,-3.1242,-3.137,0.0,0.0,0.0,0.0,-2.9071,-2.8628,-2.7978,-2.7745,-2.767,-2.7168,0.0,0.0,0.0,0.0,0.0,0.0,0.0,-2.654,0.0,0.0,-2.7444,-2.7682,-2.7745,-2.7808,-2.8059,-2.7603,-2.7139,0.0,-2.719,-2.7269,-2.7479,0.0,0.0,0.0,0.0,-3.0188,-3.0629,-3.1172,-3.1597,-3.187,-3.1183,-3.0687,-3.0562,-2.9953,-2.9438,-2.9205,-2.9303,-2.9182,-2.8796,-2.849,-2.7926,0.0,0.0,0.0,0.0,0.0,0.0,0.0,0.0,0.0,0.0,0.0,0.0,0.0,0.0,0.0,0.0,0.0,0.0,0.0,0.0,0.0,0.0,0.0,0.0,0.0,0.0,0.0,0.0,-2.5303,-2.6217,-2.7151,-2.8023,-2.8712,0.0,0.0,0.0,0.0,0.0,0.0,-3.0005,-3.0131,-3.0206,-3.0206,-3.0206,-3.0206,-3.0206,-3.0206,-3.0131,-3.0005,-3.0005,-2.993,-2.9792,-2.9792,-2.9792,-2.9792,-2.9792,-2.9792,-2.9869,-3.0672,-3.1011,-3.1084,-3.1076,-3.0916,-3.0609,-2.98,-2.9331,-2.899,-2.8471,-2.831,-2.8298,-2.8147,-2.8109,-2.8034,-2.762,0.0,0.0,0.0,0.0,-2.7494,-2.7494,-2.7795,-2.8134,-2.8285,-2.831,-2.836,-2.8499,-2.8536,-2.8433,0.0,-2.798,-2.7973,-2.7868,0.0,0.0,0.0,0.0,-3.006,-3.0733,-3.1043,-3.1292,-3.1641,-3.1151,-3.0697,-3.0422,-2.9817,-2.9243,-2.8854,-2.8691,-2.8606,-2.8606,-2.8241,-2.7898,-2.7581,0.0,0.0,0.0,0.0,0.0,0.0,0.0,0.0,0.0,0.0,0.0,0.0,0.0,0.0,0.0,0.0,0.0,0.0,0.0,0.0,0.0,0.0,0.0,0.0,0.0,0.0,0.0,0.0,0.0,-2.6487,-2.7325,0.0,0.0,0.0,0.0,-2.9419,-3.0138,-3.057,-3.057,-3.1035,-3.1311,-3.1311,-3.1311,-3.1311,-3.1311,-3.1311,-3.106,-3.057,-3.057,-3.0306,-2.9792,-2.9792,-2.9792,-2.9792,-2.9792,-2.9792,-2.983,-3.0049,-3.0254,-3.047,-3.0659,-3.0722,-3.0684,-3.0418,-3.0215,-2.9923,-2.9152,-2.885,-2.8762,-2.8285,-2.8109,-2.8097,-2.8072,-2.8047,0.0,0.0,-2.8047,-2.8059,-2.8059,-2.8084,-2.8235,-2.8725,-2.885,-2.9038,-2.9591,-2.9704,-2.9466,0.0,-2.8626,-2.8763,-2.8591,0.0,-2.9261,-2.9127,-2.9501,-2.9934,-3.0282,-3.0628,-3.094,-3.1292,-3.0856,-3.055,-3.0672,-2.9772,-2.919,-2.9184,-2.8701,-2.842,-2.842,-2.8389,-2.8018,-2.724,-2.7303,0.0,0.0,0.0,0.0,0.0,0.0,0.0,0.0,0.0,0.0,0.0,0.0,0.0,0.0,0.0,0.0,0.0,0.0,0.0,0.0,0.0,0.0,0.0,0.0,0.0,0.0,0.0,0.0,-2.6436,-2.7197,0.0,-2.8577,-2.9361,-2.9894,-3.0204,-3.0645,-3.096,-3.1122,-3.1286,-3.1386,-3.1386,-3.1386,-3.1386,-3.1386,-3.1386,-3.1298,-3.111,-3.0771,-3.0507,-3.0306,-2.9955,-2.9792,-2.9792,-2.9611,-2.956,-2.9521,-2.9353,-2.9638,-3.0228,-3.0419,-3.0495,-3.0482,-3.0267,-3.0152,-3.0011,-2.9451,-2.921,-2.9146,-2.8679,-2.8231,-2.7847,-2.7847,-2.7566,-2.7273,-2.7273,-2.7529,-2.7885,-2.7987,-2.8282,-2.8667,-2.9122,-2.921,-2.9311,-2.9703,-2.9792,-2.9717,-2.9353,-2.9187,-2.8986,-2.866,-2.8978,-2.9209,-2.8986,-2.9294,-2.955,-2.9634,-2.9931,-3.0342,-3.0807,-3.0764,-3.0629,-3.0455,-3.0103,-2.9582,-2.8845,-2.8625,-2.8359,-2.7905,-2.7965,-2.7883,-2.7591,-2.7729,-2.7631,0.0,0.0,0.0,0.0,0.0,0.0,0.0,0.0,0.0,0.0,0.0,0.0,0.0,0.0,0.0,0.0,0.0,0.0,0.0,0.0,0.0,0.0,0.0,0.0,0.0,-2.5059,-2.5604,-2.6193,-2.6899,-2.7583,-2.8255,-2.9106,-2.9797,-3.0199,-3.0704,-3.1053,-3.1207,-3.138,-3.1492,-3.1492,-3.1492,-3.1492,-3.1492,-3.1492,-3.1393,-3.1195,-3.0914,-3.0608,-3.0236,-2.9943,-2.9681,-2.9456,-2.9275,-2.9106,-2.8988,-2.8724,-2.887,-2.9341,-2.9664,-2.9741,-2.9754,-2.9599,-2.9573,-2.9495,-2.9118,-2.8988,-2.8949,-2.8581,-2.8115,-2.7722,-2.7722,-2.7433,-2.7147,-2.7147,-2.7409,-2.7762,-2.7906,-2.8249,-2.8673,-2.891,-2.9028,-2.917,-2.9312,-2.9351,-2.939,-2.9456,-2.9491,-2.9351,-2.889,-2.9091,-2.9197,-2.8952,-2.897,-2.908,-2.921,-2.9309,-2.9623,-3.0251,-3.0417,-3.0453,-3.0482,-3.026,-2.9829,-2.9163,-2.8949,-2.8633,-2.8185,-2.8115,-2.8061,-2.8061,-2.7976,-2.8076,-2.8354,0.0,0.0,0.0,0.0,0.0,0.0,0.0,0.0,0.0,0.0,0.0,0.0,0.0,0.0,0.0,0.0,0.0,0.0,0.0,0.0,0.0,0.0,0.0,-2.4727,-2.5013,-2.5331,-2.5729,-2.6391,-2.6872,-2.7193,-2.8236,-2.8993,-2.9273,-3.0236,-3.0781,-3.0824,-3.1372,-3.1661,-3.1661,-3.1661,-3.1661,-3.1661,-3.1661,-3.1396,-3.0824,-3.1051,-3.0604,-2.9585,-2.9792,-2.9475,-2.8752,-2.8752,-2.8526,-2.8179,-2.8127,-2.7995,-2.781,-2.8299,-2.8471,-2.8471,-2.8471,-2.8471,-2.8431,-2.8219,-2.8127,-2.8087,-2.781,-2.7718,-2.7718,-2.7718,-2.7718,-2.7718,-2.7718,-2.7718,-2.7718,-2.773,-2.7943,-2.8139,-2.8179,-2.8299,-2.8471,-2.8471,-2.8471,-2.8538,-2.8724,-2.947,-2.9859,-2.9289,-2.9362,-2.9369,-2.8972,-2.8568,0.0,-2.9006,-2.8729,-2.8817,-2.9654,-2.9747,-3.0038,-3.0702,-3.0163,-2.9885,-3.0057,-2.9594,-2.9307,-2.9292,-2.886,-2.8611,-2.8611,-2.8096,-2.8208,-2.8985,0.0,0.0,0.0,0.0,0.0,0.0,0.0,0.0,0.0,0.0,0.0,0.0,0.0,0.0,0.0,0.0,0.0,0.0,0.0,0.0,0.0,-2.2851,-2.3463,-2.4187,-2.4776,-2.5285,-2.573,-2.6115,-2.6655,-2.7397,-2.8147,-2.8867,-2.96,-3.0097,-3.0536,-3.0868,-3.1054,-3.1137,-3.1137,-3.1137,-3.1137,-3.1137,-3.1137,-3.1066,-3.0868,-3.0533,-3.0067,-2.9427,-2.9065,-2.859,-2.8051,-2.7782,-2.7592,-2.7429,-2.6805,-2.6475,-2.6547,-2.7568,-2.7983,-2.7983,-2.7983,-2.7822,-2.7551,-2.751,-2.7051,-2.6517,-2.6464,-2.6174,-2.5893,-2.5893,-2.5893,-2.5893,-2.5893,-2.5893,-2.5966,-2.634,-2.6475,-2.6682,-2.7307,-2.751,-2.7632,-2.7943,-2.7983,-2.8023,-2.8051,-2.8435,-2.8834,-2.9258,-2.9388,-2.9353,-2.9134,-2.9028,0.0,-2.8408,-2.8352,-2.8445,-2.8683,-2.8917,-2.931,-2.987,-2.9836,-2.9717,-2.9522,-2.9378,-2.9145,-2.8808,-2.8674,-2.8614,-2.8614,-2.8466,-2.8479,0.0,0.0,0.0,0.0,0.0,0.0,0.0,0.0,0.0,0.0,0.0,0.0,0.0,0.0,0.0,0.0,0.0,0.0,0.0,0.0,0.0,0.0,-2.2537,-2.2964,-2.3467,-2.4159,-2.4853,-2.5531,-2.5819,-2.63,-2.704,-2.761,-2.8154,-2.8841,-2.9141,-2.9417,-2.9669,-2.9669,-2.9669,-2.9669,-2.9669,-2.9669,-2.9669,-2.9669,-2.9669,-2.9669,-2.9557,-2.9259,-2.8769,-2.8428,-2.7912,-2.7243,-2.6854,-2.6475,-2.6185,-2.5695,-2.539,0.0,0.0,0.0,0.0,0.0,-2.6547,-2.6351,-2.6268,-2.5893,-2.5485,-2.5348,-2.5137,-2.4893,-2.4893,-2.4893,-2.4893,-2.4893,-2.4893,-2.4978,-2.5221,-2.5401,-2.56,-2.6102,-2.631,-2.6434,-2.667,-2.6712,-2.6782,-2.6946,-2.7121,0.0,-2.8331,-2.8858,-2.9112,-2.9035,-2.8975,-2.8735,-2.8163,-2.8042,-2.8048,-2.8092,-2.8254,-2.861,-2.9202,-2.9341,0.0,0.0,0.0,-2.9255,-2.8829,-2.88,0.0,0.0,0.0,0.0,0.0,0.0,0.0,0.0,-2.9388,-2.9696,0.0,0.0,0.0,0.0,0.0,0.0,0.0,0.0,0.0,0.0,0.0,0.0,0.0,0.0,0.0,0.0,-2.2113,-2.2423,-2.2472,-2.3116,-2.3983,-2.5041,-2.5411,-2.58,-2.6342,-2.6764,-2.7183,-2.7494,-2.7752,-2.7893,-2.7904,-2.7904,0.0,0.0,0.0,-2.7904,-2.7904,-2.7904,-2.7904,-2.7893,-2.8351,-2.8242,-2.772,-2.7734,-2.7249,-2.6314,-2.589,-2.5359,-2.4818,-2.4775,-2.4594,-2.4413,-2.4935,-2.5115,-2.5115,-2.5115,-2.5115,-2.5073,-2.4861,0.0,0.0,-2.4456,-2.437,-2.4327,-2.4327,-2.4327,-2.4327,-2.4327,-2.4327,-2.437,-2.437,-2.4551,-2.4775,-2.4818,-2.4946,-2.5105,-2.5041,-2.5031,-2.5199,-2.5608,-2.5692,-2.5953,-2.6805,-2.7862,-2.8633,-2.8712,-2.8574,-2.8337,-2.8025,-2.7668,-2.7452,-2.7542,0.0,0.0,-2.8468,-2.8565,-2.8707,-2.8894,-2.9216,-2.9277,-2.8985,-2.9001,-2.8702,-2.8091,-2.8077,-2.8375,-2.9001,-2.9001,-2.9118,-2.9421,-2.9405,-3.0002,0.0,0.0,0.0,0.0,0.0,0.0,0.0,0.0,0.0,0.0,0.0,0.0,0.0,0.0,0.0,-1.9985,-2.0358,-2.0739,-2.1188,-2.1391,-2.2173,-2.4115,-2.4578,-2.502,-2.579,-2.5936,-2.6274,-2.6993,-2.7088,-2.7183,-2.7326,-2.7373,-2.7373,-2.7373,-2.7373,-2.7373,-2.7373,-2.7373,-2.7373,-2.7373,0.0,0.0,-2.6758,-2.6445,-2.5983,-2.5411,-2.4823,-2.4454,-2.4325,-2.3937,-2.3614,-2.3484,-2.4284,-2.4627,-2.4627,-2.4627,-2.4519,-2.4368,-2.4368,-2.411,-2.3754,-2.3711,-2.3537,-2.3353,-2.3353,-2.3353,0.0,-2.3353,-2.3353,-2.344,-2.3624,-2.3711,-2.3884,-2.4239,-2.4368,-2.4351,-2.4179,-2.4138,-2.4179,-2.4252,-2.4419,-2.4701,-2.5252,-2.6558,-2.7672,-2.8247,-2.7924,-2.75,-2.7184,-2.6688,-2.6297,-2.6039,-2.6277,-2.6539,-2.6845,-2.725,-2.7584,-2.7782,-2.8111,-2.8266,-2.8223,-2.8209,-2.8155,-2.8015,-2.8015,-2.8069,-2.8209,-2.8209,-2.8244,-2.8333,-2.9609,-3.0043,0.0,0.0,0.0,0.0,0.0,0.0,0.0,0.0,0.0,0.0,0.0,-1.8096,-1.8581,0.0,-1.9173,-1.9345,-1.9568,-1.9776,-2.0078,-2.0233,-2.1046,-2.307,-2.3529,-2.3976,-2.4618,-2.4815,-2.506,-2.545,-2.5489,-2.5538,-2.5635,-2.5781,-2.5829,-2.5829,-2.5984,-2.6032,-2.6032,-2.6187,-2.6235,-2.6235,-2.6524,-2.6547,-2.6303,-2.5783,-2.5365,-2.4941,-2.4186,-2.3721,-2.346,-2.2979,-2.2706,-2.2618,-2.295,-2.3387,-2.382,-2.382,-2.3744,-2.3667,-2.3667,-2.3493,-2.3319,-2.3319,-2.3188,-2.3091,-2.2969,-2.2969,-2.2882,-2.2662,-2.2618,-2.2618,-2.2759,-2.2803,-2.2935,-2.3373,-2.3503,-2.3418,-2.3225,-2.3219,-2.3261,-2.3387,-2.3471,-2.3739,-2.4414,-2.52,-2.6019,-2.6887,-2.6989,-2.6792,-2.6329,-2.601,-2.572,-2.5336,-2.5429,-2.5674,-2.5988,-2.6449,-2.6756,-2.6947,-2.7297,-2.753,-2.7597,-2.7709,-2.7756,-2.7756,-2.7756,-2.7756,-2.7756,-2.7756,-2.7723,-2.7669,-2.8918,-2.9489,0.0,0.0,0.0,0.0,0.0,0.0,0.0,-1.6225,-1.6661,-1.6777,-1.728,-1.7795,-1.8163,-1.8416,-1.8692,-1.9002,-1.9053,-1.9053,-1.9157,-1.9256,-1.9983,-2.1607,-2.2215,-2.2769,-2.3379,-2.37,-2.3936,-2.4045,-2.4117,-2.4163,-2.4163,-2.428,-2.4343,-2.4343,-2.4575,-2.4686,-2.4686,-2.4932,-2.5088,-2.5079,-2.5509,-2.5703,-2.5674,-2.5058,-2.4664,-2.4375,-2.3516,-2.2925,-2.2485,-2.2132,-2.1909,-2.1865,-2.1642,-2.2033,-2.2696,-2.2784,-2.2838,-2.2838,-2.2838,-2.2838,-2.2838,-2.2838,-2.2838,-2.2794,-2.2618,-2.2574,-2.2441,-2.2087,-2.1919,-2.1874,-2.1874,-2.1909,-2.2043,-2.2441,-2.2574,-2.2484,-2.2192,-2.2129,-2.2171,-2.2393,-2.2435,-2.2729,-2.3631,-2.3807,-2.4272,-2.5516,-2.581,-2.5763,-2.5305,-2.5092,-2.486,-2.4514,-2.4576,-2.4826,-2.5276,-2.5616,-2.5896,-2.6104,-2.6449,-2.6688,-2.6812,-2.7007,-2.7074,-2.7074,-2.7074,-2.7074,-2.7074,-2.7074,-2.7071,-2.7088,-2.7893,-2.8602,-1.483,-1.5065,-1.5213,-1.5477,-1.5515,-1.5655,0.0,-1.6274,-1.6518,-1.7049,-1.7228,-1.7342,-1.7639,-1.7902,-1.8084,-1.8124,-1.8144,-1.8266,-1.8534,-1.8347,-1.8429,-1.9131,-2.0313,-2.1497,-2.2526,-2.2911,-2.3305,-2.3817,-2.4145,-2.4358,-2.4358,-2.4063,-2.3868,-2.3868,-2.3849,-2.3827,-2.3827,-2.4084,-2.4233,-2.4233,-2.4282,-2.4332,-2.4295,-2.3519,-2.3149,-2.3056,-2.2261,-2.1776,-2.1535,-2.149,-2.1356,-2.1132,-2.1087,-2.1132,-2.1311,-2.1687,-2.1865,-2.1865,-2.1865,-2.1865,-2.1865,-2.1865,-2.1865,-2.1865,-2.183,-2.1678,-2.1535,-2.149,-2.1311,-2.1132,-2.1132,-2.1311,-2.149,-2.1535,-2.1678,-2.1609,-2.0878,-2.0712,-2.0712,-2.0754,-2.0754,-2.1089,-2.2133,-2.2485,-2.3125,-2.4775,-2.4332,-2.387,-2.3985,-2.3279,-2.2757,-2.2703,-2.3027,-2.3534,-2.4288,-2.4396,-2.4647,-2.5111,-2.5182,-2.5288,-2.5511,-2.5511,-2.5558,-2.5558,-2.5558,-2.5558,-2.5558,-2.5558,-2.5778,-2.6239,-2.6808,-2.7521,-1.4406,-1.4562,-1.4627,-1.4746,-1.4825,-1.4894,-1.5267,-1.5604,-1.594,-1.6349,-1.671,-1.6963,-1.7261,-1.7566,-1.7812,-1.7976,-1.8187,-1.8358,-1.8468,-1.836,-1.8435,-1.88,-1.9384,-2.0105,-2.101,-2.1374,-2.1691,-2.2164,-2.2327,-2.2408,-2.2408,-2.2374,-2.2324,-2.2324,-2.2452,-2.2526,-2.2526,-2.2979,-2.3179,-2.3179,-2.3479,-2.3628,-2.3601,-2.2859,-2.2238,-2.1742,-2.1148,-2.0826,-2.069,-2.0121,-1.9795,-1.9712,-1.9401,-1.9309,-1.9446,-2.0817,-2.1275,-2.1275,-2.1275,-2.1275,-2.1275,-2.1275,-2.1275,-2.123,-2.097,-2.0835,-2.0645,-2.0031,-1.9803,-1.9704,-1.9704,-1.9795,-2.0031,-2.0637,-2.0826,-2.0766,-2.047,-2.0379,-2.0379,-2.0379,-2.0379,-2.0611,-2.1355,-2.1678,-2.2069,-2.2765,-2.3076,-2.3258,-2.3224,-2.2741,-2.2318,-2.2094,-2.2327,-2.2628,-2.2942,-2.3313,-2.3607,-2.3827,-2.4288,-2.4576,-2.4659,-2.4838,-2.4933,-2.4933,-2.4933,-2.4933,-2.4933,-2.4933,-2.5218,-2.5775,-2.6035,-2.6462,-1.3573,-1.3667,-1.3715,-1.3806,-1.3854,-1.399,-1.4473,-1.49,-1.5236,-1.5587,-1.6017,-1.6445,-1.6677,-1.7062,-1.7421,-1.7701,-1.8039,-1.8207,-1.8207,-1.8308,-1.8422,-1.8636,-1.8754,-1.903,-1.9693,-2.0158,-2.0578,-2.088,-2.0978,-2.1086,-2.1086,-2.1086,-2.107,-2.0978,-2.1167,-2.121,-2.1165,-2.1615,-2.1861,-2.1861,-2.2215,-2.2417,-2.2391,-2.169,-2.093,-2.0175,-1.9828,-1.9646,-1.9546,-1.8796,-1.8473,-1.8334,-1.8032,-1.7893,-1.8032,-1.9438,-2.0076,-2.0175,-2.0175,-2.0175,-2.0175,-2.0175,-2.0175,-2.013,-1.9783,-1.9646,-1.9455,-1.8703,-1.8419,-1.838,-1.838,-1.8427,-1.8703,-1.9409,-1.9646,-1.9683,-1.9557,-1.9516,-1.9516,-1.9516,-1.9516,-1.9724,-2.0288,-2.0529,-2.0763,-2.1042,-2.1808,-2.2291,-2.2162,-2.185,-2.1576,-2.1494,-2.1606,-2.1759,-2.1921,-2.2327,-2.2628,-2.274,-2.3313,-2.3644,-2.3717,-2.3925,-2.4059,-2.4059,-2.4059,-2.4059,-2.4059,-2.4196,-2.4491,-2.5017,-2.5187,-2.5486,-1.2073,-1.2078,-1.217,-1.2635,-1.2732,-1.3003,-1.4049,-1.4321,-1.447,-1.4952,-1.528,-1.5582,-1.5781,-1.6317,-1.6805,-1.7026,-1.7291,-1.752,-1.752,-1.7803,-1.8027,-1.802,-1.8311,-1.8597,-1.8928,-1.9717,-2.0341,-2.0706,-2.1033,-2.1202,-2.1202,-2.0916,-2.0545,-2.023,-2.0162,-1.9994,-1.9783,-2.0034,-2.0181,-2.0181,-2.0181,-2.0181,-2.0158,-1.9526,-1.8849,-1.8179,-1.8179,-1.8032,-1.7785,-1.7738,-1.7598,-1.7326,-1.7326,-1.7326,-1.7326,-1.7372,-1.7746,-1.8179,-1.8179,-1.8179,-1.8179,-1.8179,-1.8179,-1.8179,-1.8179,-1.7986,-1.7785,-1.7731,-1.7552,-1.7326,-1.7326,-1.7552,-1.7731,-1.7785,-1.7978,-1.808,-1.7682,-1.756,-1.756,-1.756,-1.756,-1.7848,-1.8732,-1.888,-1.9209,-2.0192,-2.0374,-2.0447,-2.0528,-2.0036,-1.9931,-2.0566,-2.0644,-2.0876,-2.1474,-2.154,-2.1693,-2.2101,-2.2138,-2.2252,-2.244,-2.2478,-2.2478,-2.2478,-2.2478,-2.2478,-2.2478,-2.2849,-2.3335,-2.3844,-2.4262,-2.4617,-1.0904,-1.0953,-1.0998,-1.1135,-1.1184,-1.1342,-1.1974,-1.237,-1.2749,-1.3189,-1.3663,-1.4168,-1.4564,-1.5086,-1.5614,-1.6034,-1.6506,-1.6914,-1.7153,-1.7255,-1.749,-1.7893,-1.8008,-1.8282,-1.8846,-1.9196,-1.951,-1.983,-1.9934,-1.9989,-1.9989,-1.987,-1.9619,-1.9367,-1.9323,-1.9163,-1.8848,-1.9094,-1.9242,-1.9242,-1.9465,-1.9353,-1.8914,-1.8691,-1.8182,-1.7567,-1.7434,-1.7301,-1.72,-1.6871,-1.6636,-1.6548,-1.6346,-1.6298,-1.6298,-1.6298,-1.644,-1.6676,-1.7333,-1.7567,-1.7567,-1.7567,-1.7567,-1.752,-1.7387,-1.7301,-1.7153,-1.6824,-1.6636,-1.6588,-1.6588,-1.6636,-1.6777,-1.7153,-1.7301,-1.7358,-1.7372,-1.735,-1.735,-1.735,-1.735,-1.7472,-1.7762,-1.7963,-1.8249,-1.8773,-1.9656,-2.0246,-2.0059,-1.9738,-1.9514,-1.9536,-1.9666,-1.9814,-2.001,-2.0284,-2.0489,-2.0634,-2.1185,-2.154,-2.1617,-2.1845,-2.1997,-2.1997,-2.1997,-2.2144,-2.2397,-2.2543,-2.3012,-2.3814,-2.3805,-2.4042,-0.9768,-0.9817,-0.9867,-0.9969,-0.9969,-1.0099,-1.0506,-1.0931,-1.1329,-1.1648,-1.2154,-1.264,-1.3045,-1.3562,-1.4016,-1.4442,-1.5037,-1.5564,-1.5806,-1.6225,-1.6638,-1.705,-1.7343,-1.776,-1.8169,-1.8314,-1.8698,-1.9352,-1.9424,-1.9424,-1.9424,-1.9351,-1.9174,-1.8774,-1.8789,-1.8534,-1.8115,-1.8311,-1.8311,-1.8206,-1.8429,-1.8107,-1.7299,-1.7299,-1.6911,-1.6237,-1.6109,-1.6021,-1.6021,-1.5642,-1.5601,-1.5648,-1.5452,-1.5547,-1.5689,-1.5689,-1.573,-1.5872,-1.6527,-1.6763,-1.6763,-1.6763,-1.6763,-1.6723,-1.6595,-1.6548,-1.6501,-1.617,-1.6076,-1.6076,-1.6076,-1.6076,-1.6123,-1.6501,-1.6548,-1.6595,-1.6723,-1.6763,-1.6763,-1.6763,-1.6763,-1.677,-1.6911,-1.7192,-1.752,-1.7667,-1.8567,-1.9229,-1.9254,-1.8921,-1.8724,-1.8823,-1.8825,-1.8895,-1.9054,-1.9301,-1.9499,-1.9587,-2.0177,-2.0537,-2.0625,-2.1041,-2.1262,-2.1262,-2.1472,-2.1724,-2.1968,-2.2281,-2.2736,-2.3313,-2.3263,-2.3398,-0.8726,-0.8726,-0.8825,-0.9084,-0.9137,-0.9279,-0.9696,-0.9979,-1.0209,-1.0383,-1.0725,-1.1126,-1.1367,-1.1781,-1.2148,-1.2394,-1.3118,-1.3605,-1.3605,-1.4679,-1.5451,-1.5515,-1.6284,-1.6873,-1.6932,-1.7238,-1.7895,-1.9185,-1.9307,-1.9307,-1.9307,-1.9294,-1.9021,-1.8455,-1.8366,-1.8129,-1.7536,-1.7529,-1.7378,-1.7126,-1.712,-1.6554,-1.5443,-1.5443,-1.4998,-1.425,-1.425,-1.425,-1.425,-1.425,-1.4394,-1.464,-1.464,-1.4968,-1.5397,-1.5445,-1.554,-1.5737,-1.5737,-1.5778,-1.5784,-1.5784,-1.5784,-1.5784,-1.5784,-1.5778,-1.5784,-1.5784,-1.5778,-1.573,-1.573,-1.573,-1.5737,-1.5737,-1.5737,-1.573,-1.573,-1.573,-1.5737,-1.5784,-1.5778,-1.5879,-1.613,-1.6602,-1.6932,-1.6932,-1.7106,-1.744,-1.8057,-1.7561,-1.7524,-1.8305,-1.8131,-1.8112,-1.8563,-1.8585,-1.8674,-1.89,-1.9139,-1.9347,-1.9583,-2.0057,-2.0292,-2.0283,-2.0855,-2.1159,-2.1218,-2.2026,-2.2434,-2.2473,-2.2655,-2.2759,-0.7892,-0.8038,-0.8237,-0.8287,-0.829,-0.8378,-0.8638,-0.8998,-0.9313,-0.9479,-0.986,-1.0193,-1.0415,-1.0817,-1.1227,-1.1409,-1.1937,-1.2354,-1.2535,-1.2831,-1.337,-1.4083,-1.4381,-1.4911,-1.5865,-1.6048,-1.6402,-1.7167,-1.7707,-1.7954,-1.7954,-1.7762,-1.7495,-1.7192,-1.6986,-1.6719,-1.6318,-1.6311,-1.6311,-1.6211,-1.6045,-1.5555,-1.4898,-1.4689,-1.4295,-1.3709,-1.3709,-1.3709,-1.3709,-1.3709,-1.3757,-1.3806,-1.4052,-1.4196,-1.434,-1.4538,-1.4634,-1.4682,-1.4682,-1.5159,-1.5784,-1.5784,-1.5784,-1.5784,-1.5784,-1.5683,-1.5588,-1.5588,-1.5302,-1.4975,-1.4975,-1.4831,-1.4682,-1.4682,-1.4682,-1.4729,-1.4927,-1.4975,-1.5118,-1.5493,-1.5683,-1.5825,-1.5879,-1.6021,-1.6116,-1.6116,-1.6163,-1.6416,-1.7061,-1.7146,-1.712,-1.7088,-1.6955,-1.692,-1.7046,-1.7138,-1.7343,-1.7664,-1.8302,-1.8926,-1.9433,-1.9909,-2.02,-2.0366,-2.055,-2.0796,-2.1146,-2.136,-2.1621,-2.1894,-2.1952,-2.1963,-0.7194,-0.7543,-0.7842,-0.7842,-0.7892,-0.8012,-0.815,-0.8433,-0.8766,-0.8856,-0.9164,-0.9459,-0.9545,-0.9916,-1.0218,-1.0314,-1.0819,-1.1212,-1.1329,-1.1631,-1.1993,-1.259,-1.2891,-1.3306,-1.4023,-1.4262,-1.4441,-1.4793,-1.622,-1.7056,-1.7056,-1.6814,-1.6555,-1.629,-1.608,-1.5819,-1.5506,-1.5506,-1.5399,-1.5137,-1.4976,-1.4448,-1.3558,-1.3291,-1.284,-1.2239,-1.2147,-1.2155,-1.2155,-1.2155,-1.2306,-1.25,-1.2646,-1.298,-1.3366,-1.3559,-1.3757,-1.3956,-1.3956,-1.4334,-1.4819,-1.5064,-1.5159,-1.5159,-1.5159,-1.5064,-1.4968,-1.4819,-1.458,-1.4346,-1.4196,-1.4052,-1.3956,-1.3956,-1.3956,-1.4004,-1.4148,-1.425,-1.449,-1.5016,-1.5261,-1.5404,-1.5635,-1.5683,-1.5683,-1.5778,-1.5784,-1.5954,-1.6297,-1.6434,-1.6512,-1.6511,-1.6374,-1.6306,-1.6393,-1.6478,-1.6618,-1.6931,-1.7589,-1.814,-1.8596,-1.9264,-1.9648,-1.9775,-2.0157,-2.0483,-2.0761,-2.0976,-2.1184,-2.141,-2.1195,-2.1105,-0.6492,-0.6995,-0.7394,-0.7447,-0.7643,-0.7839,-0.7839,-0.8166,-0.843,-0.843,-0.8672,-0.8885,-0.8885,-0.9181,-0.9381,-0.9381,-0.9867,-1.0243,-1.0243,-1.0728,-1.1091,-1.1152,-1.1631,-1.1997,-1.2057,-1.2359,-1.2539,-1.2599,-1.4614,-1.5913,-1.5978,-1.5782,-1.551,-1.5238,-1.5071,-1.4849,-1.453,-1.4524,-1.4315,-1.384,-1.3786,-1.3125,-1.1898,-1.1685,-1.1173,-1.0474,-1.0343,-1.0314,-1.0314,-1.0314,-1.056,-1.0998,-1.1047,-1.1575,-1.2344,-1.2393,-1.2684,-1.3076,-1.3076,-1.3076,-1.3221,-1.3956,-1.4202,-1.4202,-1.4202,-1.4148,-1.4052,-1.3806,-1.3661,-1.3468,-1.3275,-1.3125,-1.3076,-1.3076,-1.3076,-1.3125,-1.3173,-1.3463,-1.3859,-1.4346,-1.4538,-1.4736,-1.5207,-1.535,-1.5445,-1.5635,-1.573,-1.5778,-1.5778,-1.5752,-1.5874,-1.6281,-1.609,-1.6002,-1.6181,-1.6189,-1.6271,-1.647,-1.6912,-1.728,-1.7575,-1.8371,-1.8849,-1.8901,-1.9607,-1.9999,-1.9999,-2.0418,-2.0637,-2.0628,-2.0192,-2.0019,-0.5381,-0.5887,-0.6342,-0.6539,-0.6789,-0.6995,-0.6995,-0.7606,-0.8171,-0.8171,-0.8568,-0.8885,-0.8885,-0.9181,-0.9381,-0.9381,-0.9688,-0.9879,-0.9879,-1.0001,-1.0183,-1.0425,-1.0547,-1.0849,-1.1394,-1.1514,-1.1635,-1.1937,-1.2354,-1.2831,-1.3315,-1.3019,-1.2649,-1.2335,-1.2288,-1.2251,-1.2219,-1.2219,-1.2159,-1.2055,-1.1778,-1.1404,-1.099,-1.0653,-1.0261,-0.9918,-0.9797,0.0,-0.9727,-0.9727,-0.9772,-0.9924,-1.0117,-1.031,-1.0502,-1.0699,-1.0846,-1.0944,-1.0944,-1.0944,-1.1238,-1.3028,-1.3661,-1.3661,-1.3661,-1.3318,-1.2974,-1.2926,-1.2301,-1.1678,-1.1634,-1.1287,-1.0944,-1.0944,-1.0944,-1.1042,-1.1482,-1.2301,-1.2926,-1.3022,-1.3559,-1.4052,-1.4148,-1.4538,-1.4831,-1.4879,-1.5261,-1.554,-1.554,-1.569,-1.5799,-1.5893,-1.5677,-1.5501,-1.5553,-1.551,-1.5611,-1.5913,-1.6375,-1.6848,-1.7328,-1.7704,-1.8026,-1.8271,-1.8417,-1.8494,-1.8494,-1.8557,-1.8589,-1.8589,-1.8542,-1.8504,-0.4076,-0.4732,-0.5386,-0.5536,-0.5989,-0.6458,-0.6673,-0.7291,-0.7927,-0.8162,-0.8567,-0.8885,-0.8885,-0.9181,-0.9381,-0.9381,-0.9629,-0.9822,-0.9822,-0.9822,-0.9883,-1.0004,-1.0061,-1.0183,-1.0486,-1.0547,-1.0607,-1.0728,-1.0789,-1.1212,-1.2178,-1.1825,-1.1459,-1.1143,-1.1131,-1.1131,-1.1131,-1.1131,-1.1076,-1.0911,-1.0747,-1.0483,-1.0066,-0.9793,-0.9463,-0.9139,-0.8983,-0.8864,-0.8783,-0.8783,-0.8832,-0.8981,-0.9126,-0.9327,-0.9579,-0.9727,-0.9871,-0.9969,-0.9969,-0.9969,-1.0167,-1.1135,-1.1673,-1.1868,-1.1868,-1.1717,-1.1473,-1.1326,-1.0944,-1.0556,-1.0413,-1.0167,-0.9969,-0.9969,-0.9969,-1.0068,-1.0511,-1.0944,-1.1429,-1.1819,-1.2209,-1.2646,-1.3173,-1.3511,-1.3806,-1.4202,-1.4484,-1.4723,-1.4873,-1.5064,-1.535,-1.5778,-1.5705,-1.5618,-1.5618,-1.5591,-1.5617,-1.5805,-1.6146,-1.6441,-1.6723,-1.7106,-1.7387,-1.7535,-1.7621,-1.766,-1.766,-1.766,-1.766,-1.766,-1.7574,-1.7535,-0.2772,-0.3525,-0.423,-0.428,-0.4849,-0.5542,-0.598,-0.6728,-0.7496,-0.7986,-0.8504,-0.8826,-0.8881,-0.9181,-0.9381,-0.9381,-0.9629,-0.9822,-0.9822,-0.9822,-0.9822,-0.9822,-0.9822,-0.9822,-0.9822,-0.9822,-0.9822,-0.9822,-0.9822,-1.0215,-1.1228,-1.0965,-1.0664,-1.0319,-1.0308,-1.0308,-1.0308,-1.0308,-1.0198,-0.9981,-0.9981,-0.9761,-0.9261,-0.9157,-0.8891,-0.8476,-0.8333,-0.8184,-0.7988,-0.7988,-0.8137,-0.8333,-0.8333,-0.8584,-0.8935,-0.8935,-0.9084,-0.9278,-0.9278,-0.9278,-0.9278,-0.9278,-0.9723,-1.0216,-1.0216,-1.0167,-1.0117,-0.9871,-0.9723,-0.9624,-0.9377,-0.9278,-0.9278,-0.9278,-0.9278,-0.9377,-0.9624,-0.9723,-1.0019,-1.0659,-1.085,-1.1189,-1.2009,-1.2247,-1.2587,-1.3227,-1.3516,-1.3709,-1.395,-1.4244,-1.4682,-1.5302,-1.5588,-1.573,-1.573,-1.5784,-1.5784,-1.5784,-1.5981,-1.6123,-1.6123,-1.6501,-1.6744,-1.6744,-1.6911,-1.6998,-1.6998,-1.6998,-1.6998,-1.6951,-1.6831,-1.6744,-0.1665,-0.2017,-0.2319,-0.2572,-0.3063,-0.3721,-0.4293,-0.536,-0.6472,-0.73,-0.806,-0.8598,-0.8881,-0.9181,-0.9381,-0.9381,-0.9629,-0.9822,-0.9822,-0.9822,-0.9822,-0.9822,-0.9822,-0.9822,-0.9822,-0.9822,-0.9822,-0.9822,-0.9822,-0.9763,-0.961,-0.9569,-0.9417,-0.9058,-0.9047,-0.9047,-0.9047,-0.9047,-0.9047,-0.9047,-0.9047,-0.8992,-0.8933,-0.8781,-0.8681,-0.8476,-0.8333,-0.8184,0.0,-0.7988,-0.8041,-0.8038,-0.8038,-0.8088,-0.8088,-0.8088,-0.8137,-0.8137,-0.8137,-0.8137,-0.8137,-0.8137,-0.8832,-0.9677,-0.9677,-0.948,-0.9282,-0.9286,-0.8931,-0.8531,-0.8531,-0.8336,-0.8137,-0.8137,-0.8336,-0.8531,-0.8531,-0.8931,-0.9286,-0.9381,-0.9776,-1.0117,-1.0212,-1.085,-1.134,-1.1438,-1.2252,-1.2829,-1.2823,-1.327,-1.3709,-1.4046,-1.4962,-1.554,-1.554,-1.5689,-1.5784,-1.5784,-1.5825,-1.5832,-1.5832,-1.5879,-1.5927,-1.5927,-1.592,-1.592,-1.592,-1.592,-1.592,-1.5927,-1.5927,-1.5927,-0.087,-0.118,-0.1544,-0.1664,-0.2254,-0.3011,-0.3627,-0.4699,-0.585,-0.6796,-0.7622,-0.8266,-0.8598,-0.9064,-0.9381,-0.9381,-0.9629,-0.9822,-0.9822,-0.9822,-0.9822,-0.9822,-0.9822,-0.9822,-0.9822,-0.9822,-0.9822,-0.9822,-0.9822,-0.9693,-0.9398,-0.9381,-0.9245,-0.8892,-0.8885,-0.8885,-0.8885,-0.8885,-0.8885,-0.8885,-0.8885,-0.8885,-0.8881,-0.8821,-0.8764,-0.8611,-0.8462,-0.8313,0.0,-0.8029,-0.7988,-0.7988,-0.7988,-0.7988,-0.7988,-0.7988,-0.7988,-0.7988,-0.7988,-0.7988,-0.7988,-0.7988,-0.8287,-0.8634,-0.8634,-0.8584,-0.8489,-0.8489,-0.8336,-0.8137,-0.8137,-0.8088,-0.7988,-0.7988,-0.8088,-0.8137,-0.8137,-0.8336,-0.8538,-0.8684,-0.8882,-0.913,-0.948,-0.9772,-1.0117,-1.0413,-1.0797,-1.1135,-1.1282,-1.177,-1.216,-1.2257,-1.3613,-1.458,-1.4771,-1.4873,-1.4968,-1.5118,-1.5118,-1.5213,-1.5363,-1.5363,-1.5452,-1.5635,-1.5635,-1.5683,-1.5784,-1.5784,-1.5784,-1.5784,-1.5784,-1.5784,-0.0259,-0.0573,-0.084,-0.085,-0.1391,-0.2101,-0.2834,-0.3837,-0.4907,-0.6084,-0.699,-0.7768,-0.8266,-0.8837,-0.9265,-0.9381,-0.9629,-0.9822,-0.9822,-0.9822,-0.9822,-0.9822,-0.9822,-0.9822,-0.9822,-0.9822,-0.9822,-0.9822,-0.9822,-0.9693,-0.9398,-0.9381,-0.9245,-0.8892,-0.8885,-0.8885,-0.8885,-0.8885,-0.8885,-0.8885,-0.8885,-0.8885,-0.8885,-0.8885,-0.8855,-0.8706,-0.8598,-0.8469,0.0,-0.817,-0.8106,-0.8102,-0.8008,-0.7988,-0.7988,-0.7988,-0.7988,-0.7988,-0.7988,-0.7988,-0.7988,-0.7988,-0.7988,-0.7988,-0.7988,-0.7988,-0.7988,-0.7988,-0.7988,-0.7988,-0.7988,-0.7988,-0.7988,-0.7988,-0.7988,-0.7988,-0.7988,-0.7988,-0.8038,-0.8237,-0.8283,-0.8382,-0.8786,-0.8935,-0.9084,-0.9472,-0.9673,-0.9821,-1.0019,-1.0462,-1.0752,-1.085,-1.1965,-1.3028,-1.3757,-1.3956,-1.4148,-1.4346,-1.4346,-1.4496,-1.4736,-1.4742,-1.4879,-1.5159,-1.5159,-1.5255,-1.5452,-1.5452,-1.5547,-1.573,-1.573,-1.573,0.0,0.0,0.0,0.0,-0.0216,-0.0657,-0.1586,-0.2491,-0.3583,-0.5091,-0.6098,-0.699,-0.7823,-0.8495,-0.9036,-0.9323,-0.9629,-0.9822,-0.9822,-0.9822,-0.9822,-0.9822,-0.9822,-0.9822,-0.9822,-0.9822,-0.9822,-0.9822,-0.9822,-0.9693,-0.9398,-0.9381,-0.9245,-0.8892,-0.8885,-0.8885,-0.8885,-0.8885,-0.8885,-0.8885,-0.8885,-0.8885,-0.8885,-0.8885,-0.8855,-0.871,-0.871,-0.8621,0.0,-0.8326,-0.832,-0.8252,-0.8099,-0.7988,-0.7988,-0.7988,-0.7988,-0.7988,-0.7988,-0.7988,-0.7988,-0.7988,-0.7988,-0.7988,-0.7988,-0.7988,-0.7988,-0.7988,-0.7988,-0.7988,-0.7988,-0.7988,-0.7988,-0.7988,-0.7988,-0.7988,-0.7988,-0.7988,-0.7988,-0.7988,-0.7988,-0.7988,-0.7988,-0.8233,-0.8432,-0.8432,-0.8882,-0.9187,-0.9236,-0.943,-0.9727,-0.9969,-1.0019,-1.0748,-1.2581,-1.3216,-1.3511,-1.3511,-1.3511,-1.3613,-1.3902,-1.3908,-1.4052,-1.4298,-1.4298,-1.4442,-1.4694,-1.4694,-1.4975,-1.5493,-1.5493,-1.5588,0.0,0.0,0.0,0.0,-0.0222,-0.0556,-0.1057,-0.1844,-0.2803,-0.3921,-0.5039,-0.6063,-0.6753,-0.7467,-0.8011,-0.8151,-0.8368,-0.848,-0.848,-0.848,-0.848,-0.848,-0.848,-0.848,-0.848,-0.848,-0.848,-0.848,-0.848,-0.8368,-0.8113,-0.8332,-0.8555,-0.8892,-0.8885,-0.8885,-0.8885,-0.8885,-0.8885,-0.8885,-0.8885,-0.8885,-0.8885,-0.8885,-0.8858,-0.8807,-0.8757,-0.8682,-0.8625,-0.8476,-0.8414,-0.8411,-0.836,-0.8282,-0.8197,-0.8197,-0.813,-0.7988,-0.7988,-0.7988,-0.7988,-0.7988,-0.7988,-0.7988,-0.7988,-0.7988,-0.7988,-0.7988,-0.7988,-0.7988,-0.7988,-0.7988,-0.7988,-0.7988,-0.7988,-0.7988,-0.7988,-0.7988,-0.7988,-0.7988,-0.7988,-0.7988,-0.7988,-0.8088,-0.8137,-0.8137,-0.8287,-0.8389,-0.8389,-0.8634,-0.8829,-0.8878,-0.9229,-0.992,-1.1037,-1.1282,-1.1531,-1.1917,-1.1922,-1.2116,-1.2603,-1.2603,-1.2797,-1.3221,-1.3216,-1.3414,-1.3902,-1.4052,-1.4442,-1.4927,-1.4927,-1.5166,0.0,0.0,0.0,0.0,-0.0112,-0.0336,-0.0617,-0.1234,-0.1963,-0.2859,-0.3864,-0.4781,-0.5715,-0.639,-0.6903,-0.7189,-0.7425,-0.7503,-0.7503,-0.7503,-0.7503,-0.7503,-0.7503,-0.7503,-0.7503,-0.7503,-0.7503,-0.7503,-0.7503,-0.7404,-0.7173,-0.7336,-0.7631,-0.7887,-0.8325,-0.8549,-0.8549,-0.8712,-0.8768,-0.8768,-0.8768,-0.8768,-0.8768,-0.8605,-0.8549,-0.8543,-0.8616,-0.8628,0.0,-0.8578,-0.8567,-0.8564,-0.8506,-0.8428,-0.835,-0.835,-0.8255,-0.8126,-0.8126,-0.8039,-0.7988,-0.7988,-0.7988,-0.7988,-0.7988,-0.7988,-0.7988,-0.7988,-0.7988,-0.7988,-0.7988,-0.7988,-0.7988,-0.7988,-0.7988,-0.7988,-0.7988,-0.7988,-0.7988,-0.7988,-0.7988,-0.7988,-0.7988,-0.7988,-0.7988,-0.7988,-0.7988,-0.7988,-0.7988,-0.8137,-0.8237,-0.8237,-0.8535,-0.8931,-0.9472,-0.9871,-1.0216,-1.056,-1.0609,-1.0801,-1.1243,-1.1243,-1.1433,-1.1814,-1.1809,-1.2106,-1.264,-1.3173,-1.3613,-1.3956,-1.425,-1.4586,0.0,0.0,0.0,0.0,0.0,-0.0056,-0.0336,-0.0617,0.0,-0.1964,-0.2578,-0.3379,-0.4581,-0.5174,-0.5726,-0.6361,-0.6519,-0.6641,-0.6641,-0.6641,-0.6641,-0.6641,-0.6641,-0.6641,-0.6641,-0.6641,-0.6641,-0.6641,-0.6634,-0.6545,-0.6345,-0.6387,-0.6295,-0.61,-0.7152,-0.782,-0.7934,-0.8263,-0.8429,-0.8429,-0.8429,-0.8374,-0.8374,-0.8045,-0.7934,0.0,-0.8263,-0.8374,-0.842,-0.8563,-0.8618,-0.8605,-0.8514,-0.8506,-0.8499,-0.8496,-0.8408,-0.8286,-0.8286,-0.8133,-0.7955,-0.7942,-0.7939,-0.7939,-0.7939,-0.7988,-0.7988,-0.7988,-0.7988,-0.7988,-0.7988,-0.7988,-0.7988,-0.7988,-0.7988,-0.7988,-0.7988,-0.7988,-0.7988,-0.7988,-0.7988,-0.7988,-0.7988,-0.7988,-0.7988,-0.7988,-0.7988,-0.7988,-0.7988,-0.7988,-0.7988,-0.7988,-0.7988,-0.7988,-0.7988,-0.8931,-0.948,-0.9525,-0.9525,-0.9624,-0.992,-0.992,-1.0019,-1.0314,-1.0314,-1.0609,-1.1096,-1.2058,-1.2538,-1.2635,-1.3366,-1.3757,0.0,0.0,0.0,0.0,0.0,0.0,0.0,-0.0336,-0.0673,-0.1121,-0.1683,-0.2319,-0.2909,-0.3285,-0.356,-0.384,-0.3868,-0.3939,-0.3939,-0.3939,-0.3939,-0.3939,-0.3939,-0.3939,-0.3939,-0.3939,-0.3939,-0.3939,-0.3895,-0.3838,-0.3707,-0.4122,-0.4341,-0.4254,-0.4923,-0.5873,-0.699,-0.7324,-0.7487,-0.7487,-0.7487,-0.7376,-0.7102,-0.7046,-0.699,-0.699,-0.7102,-0.7268,-0.754,-0.7738,-0.7837,-0.7889,-0.8346,-0.8432,-0.8391,-0.8602,-0.8405,-0.8069,-0.8069,-0.782,-0.7531,-0.7422,-0.7388,-0.7388,-0.7388,-0.769,-0.7988,-0.7988,-0.7988,-0.7988,-0.7988,-0.7988,-0.7988,-0.7988,-0.7988,-0.7988,-0.7988,-0.7988,-0.7988,-0.7988,-0.7988,-0.7988,-0.7988,-0.7988,-0.7988,-0.7988,-0.7988,-0.7988,-0.7988,-0.7988,-0.7988,-0.7988,-0.7988,-0.7988,-0.7988,-0.8237,-0.8485,-0.868,-0.868,-0.8779,-0.9072,-0.9072,-0.9225,-0.948,-0.9677,-0.9969,-1.0265,-1.0507,-1.0944,-1.158,-1.1727,-1.2257,0.0,0.0,0.0,0.0,0.0,0.0,0.0,-0.0112,-0.028,-0.0617,-0.0953,-0.1303,-0.1872,-0.2061,-0.226,-0.2514,-0.2526,-0.2526,-0.2526,-0.2526,-0.2526,-0.2526,-0.2526,-0.2526,-0.2526,-0.2526,-0.2526,-0.2526,-0.2551,-0.2512,-0.2416,-0.2724,-0.2849,-0.2801,-0.3192,-0.4142,-0.5652,-0.6154,-0.6374,-0.6374,-0.6374,-0.6262,-0.6098,-0.5819,-0.5708,-0.5708,-0.5986,-0.6209,-0.6429,-0.6821,-0.7104,-0.7215,-0.7546,-0.7723,-0.7828,-0.7935,-0.7795,-0.7517,-0.7517,-0.7328,-0.7056,-0.6827,-0.6765,-0.6721,-0.6718,-0.6983,-0.7338,-0.769,-0.7892,-0.7988,-0.7988,-0.7988,-0.7988,-0.7988,-0.7988,-0.7988,-0.7988,-0.7988,-0.7988,-0.7988,-0.7988,-0.7988,-0.7988,-0.7988,-0.7988,-0.7988,-0.7988,-0.7988,-0.7988,-0.7988,-0.7988,-0.7988,-0.7988,-0.7988,-0.7988,-0.7988,-0.8038,-0.8187,-0.8237,-0.8283,-0.8432,-0.8432,-0.8482,-0.8638,-0.8931,-0.9126,-0.9274,-0.9525,-0.9875,-1.0314,-1.0511,-1.0944,0.0,0.0,0.0,0.0,0.0,0.0,0.0,0.0,-0.0056,-0.028,-0.0337,-0.0511,-0.1055,-0.1181,-0.1313,-0.1658,-0.1665,-0.1665,-0.1665,-0.1665,-0.1665,-0.1665,-0.1665,-0.1665,-0.1665,-0.1665,-0.1725,-0.1721,-0.1696,-0.167,-0.1586,-0.1677,-0.1651,-0.1571,-0.1849,-0.2631,-0.392,-0.4644,-0.4979,-0.4979,-0.4979,-0.4979,-0.4868,-0.4367,-0.4143,-0.4199,-0.47,0.0,-0.5037,-0.5648,-0.604,-0.6265,-0.6434,-0.6654,-0.6932,-0.7043,-0.6921,-0.6668,-0.6542,-0.6422,-0.6293,-0.6059,-0.5939,-0.5864,-0.581,-0.5955,-0.634,-0.7051,-0.7575,-0.7942,-0.7942,-0.7992,-0.7988,-0.7988,-0.7988,-0.7988,-0.7988,-0.7988,-0.7988,-0.7988,-0.7988,-0.7988,-0.7988,-0.7988,-0.7988,-0.7988,-0.7988,-0.7988,-0.7988,-0.7988,-0.7988,-0.7988,-0.7988,-0.7988,-0.7988,-0.7988,-0.7988,-0.7988,-0.7988,-0.7988,-0.7988,-0.7988,-0.7988,-0.7988,-0.8233,-0.8333,-0.8333,-0.8786,-0.9038,-0.9084,-0.9525,-0.9821,0.0,0.0,0.0,0.0,0.0,0.0,0.0,0.0,0.0,-0.0056,-0.0057,-0.0115,-0.0176,-0.0238,-0.0242,-0.0308,-0.0309,-0.0309,-0.0309,-0.0309,-0.0309,-0.0309,-0.0309,-0.0309,-0.0309,-0.0309,-0.0307,-0.0303,-0.0298,-0.0293,-0.0289,-0.0511,-0.0618,-0.0617,-0.0953,-0.1233,-0.1457,-0.2576,-0.3136,-0.3136,-0.3136,-0.2967,-0.2687,-0.2575,-0.2575,-0.2575,0.0,-0.2855,-0.3135,-0.3749,-0.4027,-0.4195,-0.5202,-0.565,-0.5761,-0.6262,-0.6086,-0.556,-0.4933,-0.4682,-0.4662,-0.4486,-0.4455,-0.4445,-0.4392,-0.4804,-0.5267,-0.5636,-0.6646,-0.7643,-0.7643,-0.7842,-0.7988,-0.7988,-0.7988,-0.7988,-0.7988,-0.7988,-0.7988,-0.7988,-0.7988,-0.7988,-0.7988,-0.7988,-0.7988,-0.7988,-0.7988,-0.7988,-0.7988,-0.7988,-0.7988,-0.7988,-0.7988,-0.7988,-0.7988,-0.7988,-0.7988,-0.7988,-0.7988,-0.7988,-0.7988,-0.7988,-0.7988,-0.7988,-0.8038,-0.8038,-0.8038,-0.8137,-0.8287,-0.8531,-0.863,-0.8882,0.0,0.0,0.0,0.0,0.0,0.0,0.0,0.0,0.0,0.0,0.0,0.0,0.0,0.0,0.0,0.0,0.0,0.0,0.0,0.0,0.0,0.0,0.0,0.0,0.0,0.0,0.0,0.0,0.0,0.0,0.0,-0.0113,-0.0168,-0.0168,-0.0336,-0.0393,-0.0393,-0.0953,-0.1457,-0.1961,-0.1961,-0.1849,-0.1681,-0.1569,-0.1513,-0.1513,0.0,-0.1793,-0.1961,-0.2465,-0.2688,-0.291,-0.3469,-0.3805,-0.3973,-0.4252,-0.4196,-0.3914,-0.355,-0.3432,-0.3371,-0.3125,-0.3098,-0.3077,-0.3023,-0.3428,-0.3932,-0.4199,-0.5618,-0.7153,-0.7355,-0.7664,-0.8003,-0.7921,-0.8009,-0.814,-0.8008,-0.7988,-0.7988,-0.7988,-0.7988,-0.7988,-0.7988,-0.7988,-0.7988,-0.7988,-0.7988,-0.7988,-0.7988,-0.7988,-0.7988,-0.7988,-0.7988,-0.7988,-0.7988,-0.7988,-0.7988,-0.7988,-0.7988,-0.7988,-0.7988,-0.7988,-0.7988,-0.7988,-0.7988,-0.7988,-0.7988,-0.7988,-0.8088,-0.8187,-0.8187,-0.8336,0.0,0.0,0.0,0.0,0.0,0.0,0.0,0.0,0.0,0.0,0.0,0.0,0.0,0.0,0.0,0.0,0.0,0.0,0.0,0.0,0.0,0.0,0.0,0.0,0.0,0.0,0.0,0.0,0.0,0.0,0.0,0.0,0.0,0.0,0.0,0.0,0.0,0.0,-0.0336,-0.1009,-0.1009,-0.1009,-0.1009,-0.0785,-0.0673,-0.0673,-0.0897,-0.1009,-0.1009,-0.1346,-0.1569,-0.1792,-0.196,-0.2185,-0.2465,-0.2409,-0.2353,-0.2353,-0.2297,-0.2297,-0.2241,-0.1961,-0.1889,-0.187,-0.1815,-0.2124,-0.2585,-0.2855,-0.4359,-0.6013,-0.6703,-0.7378,-0.7879,-0.7872,-0.8107,-0.8289,-0.817,-0.8093,-0.8093,-0.8093,-0.8093,-0.8093,-0.8093,-0.8093,-0.8093,-0.8093,-0.8093,-0.8093,-0.8093,-0.8093,-0.813,-0.8096,-0.8092,-0.8092,-0.8092,-0.8092,-0.8106,-0.8089,-0.8029,-0.7988,-0.7988,-0.7988,-0.7988,-0.7988,-0.7988,-0.7988,-0.7988,-0.7988,-0.7988,-0.7988,-0.7988,-0.8008,0.0,0.0,0.0,0.0,0.0,0.0,0.0,0.0,0.0,0.0,0.0,0.0,0.0,0.0,0.0,0.0,0.0,0.0,0.0,0.0,0.0,0.0,0.0,0.0,0.0,0.0,0.0,0.0,0.0,0.0,0.0,0.0,0.0,0.0,0.0,0.0,0.0,0.0,-0.0056,-0.0112,-0.0112,-0.0112,-0.0112,-0.0056,-0.0056,-0.0056,-0.0112,-0.0112,-0.0112,-0.0393,-0.0505,-0.0561,-0.1121,-0.157,-0.1851,-0.1514,-0.1402,-0.1346,-0.1121,-0.1009,-0.1009,-0.1009,-0.1009,-0.1008,-0.1008,-0.1174,-0.1509,-0.1789,-0.2624,-0.3766,-0.5523,-0.6801,-0.7697,-0.7947,-0.8259,-0.8465,-0.8452,-0.8448,-0.8448,-0.8448,-0.8448,-0.8448,-0.8448,-0.8448,-0.8448,-0.8448,-0.8448,-0.8448,-0.8448,-0.8448,-0.8397,-0.8269,-0.8255,-0.8255,-0.8255,-0.8255,-0.8309,-0.8442,-0.8191,-0.7988,-0.7988,-0.7988,-0.7988,-0.7988,-0.7988,-0.7988,-0.7988,-0.7988,-0.7988,-0.7988,-0.7988,-0.8116,0.0,0.0,0.0,0.0,0.0,0.0,0.0,0.0,0.0,0.0,0.0,0.0,0.0,0.0,0.0,0.0,0.0,0.0,0.0,0.0,0.0,0.0,0.0,0.0,0.0,0.0,0.0,0.0,0.0,0.0,0.0,0.0,0.0,0.0,0.0,0.0,0.0,0.0,0.0,0.0,0.0,0.0,0.0,0.0,0.0,0.0,0.0,0.0,0.0,-0.0112,-0.0168,-0.0168,-0.0393,-0.0561,-0.0673,-0.0561,-0.0505,-0.0505,-0.0393,-0.0336,-0.0336,-0.0336,-0.0336,-0.0336,-0.0336,-0.0505,-0.0785,-0.0897,-0.1682,-0.2851,-0.4352,-0.5595,-0.6562,-0.698,-0.7446,-0.7902,-0.8134,-0.8167,-0.8272,-0.8482,-0.8482,-0.8482,-0.8482,-0.8482,-0.8482,-0.8482,-0.8482,-0.8482,-0.8482,-0.8482,-0.8462,-0.8408,-0.8404,-0.8404,-0.8404,-0.8404,-0.8425,-0.8479,-0.8377,-0.8313,-0.8313,-0.8313,-0.8313,-0.8313,-0.8313,-0.8313,-0.8313,-0.8313,-0.8313,-0.8313,-0.8313,-0.8347,0.0,0.0,0.0,0.0,0.0,0.0,0.0,0.0,0.0,0.0,0.0,0.0,0.0,0.0,0.0,0.0,0.0,0.0,0.0,0.0,0.0,0.0,0.0,0.0,0.0,0.0,0.0,0.0,0.0,0.0,0.0,0.0,0.0,0.0,0.0,0.0,0.0,0.0,0.0,0.0,0.0,0.0,0.0,0.0,0.0,0.0,0.0,0.0,0.0,0.0,0.0,0.0,0.0,0.0,0.0,0.0,0.0,0.0,0.0,0.0,0.0,0.0,0.0,0.0,0.0,-0.0112,-0.028,-0.028,-0.0953,-0.185,-0.28,-0.425,-0.5629,-0.6062,-0.6704,-0.7285,-0.7681,-0.7877,-0.8091,-0.8408,-0.8571,-0.8625,-0.8625,-0.8625,-0.8625,-0.8625,-0.8625,-0.8625,-0.8625,-0.8625,-0.8608,-0.856,-0.8509,-0.8503,-0.855,-0.8554,-0.8574,-0.8621,-0.8625,-0.8581,-0.8486,-0.8482,-0.8482,-0.8482,-0.8482,-0.8482,-0.8482,-0.8482,-0.8482,-0.8482,-0.8482,-0.8509,0.0,0.0,0.0,0.0,0.0,0.0,0.0,0.0,0.0,0.0,0.0,0.0,0.0,0.0,0.0,0.0,0.0,0.0,0.0,0.0,0.0,0.0,0.0,0.0,0.0,0.0,0.0,0.0,0.0,0.0,0.0,0.0,0.0,0.0,0.0,0.0,0.0,0.0,0.0,0.0,0.0,0.0,0.0,0.0,0.0,0.0,0.0,0.0,0.0,0.0,0.0,0.0,0.0,0.0,0.0,0.0,0.0,0.0,0.0,0.0,0.0,0.0,0.0,0.0,0.0,0.0,0.0,0.0,-0.0168,-0.0449,-0.0785,-0.2854,-0.4977,-0.5314,-0.6042,-0.6768,-0.7099,-0.7601,-0.81,-0.8429,-0.8712,-0.8885,-0.8885,-0.8885,-0.8885,-0.8885,-0.8885,-0.8885,-0.8885,-0.8885,-0.8824,-0.8726,-0.8577,-0.8547,-0.8699,-0.8713,-0.8777,-0.8875,-0.8885,-0.8804,-0.8499,-0.8486,-0.8486,-0.8486,-0.8486,-0.8486,-0.8486,-0.8486,-0.8486,-0.8486,-0.8486,-0.8567,0.0,0.0,0.0,0.0,0.0,0.0,0.0,0.0,0.0,0.0,0.0,0.0,0.0,0.0,0.0,0.0,0.0,0.0,0.0,0.0,0.0,0.0,0.0,0.0,0.0,0.0,0.0,0.0,0.0,0.0,0.0,0.0,0.0,0.0,0.0,0.0,0.0,0.0,0.0,0.0,0.0,0.0,0.0,0.0,0.0,0.0,0.0,0.0,0.0,0.0,0.0,0.0,0.0,0.0,0.0,0.0,0.0,0.0,0.0,0.0,0.0,0.0,0.0,0.0,0.0,0.0,0.0,0.0,-0.0168,-0.0449,-0.0505,-0.1457,-0.2632,-0.3583,-0.4309,-0.5146,-0.6318,-0.7043,-0.7654,-0.8374,-0.8712,-0.8885,-0.8885,-0.8885,-0.8885,-0.8885,-0.8885,-0.8885,-0.8885,-0.8885,-0.8865,-0.8821,-0.8828,-0.8821,-0.8811,-0.8814,-0.8834,-0.8878,-0.8885,-0.8844,-0.8808,-0.8804,-0.8804,-0.8804,-0.8804,-0.8804,-0.8804,-0.8804,-0.8804,-0.8804,-0.8804,-0.8828,0.0,0.0,0.0,0.0,0.0,0.0,0.0,0.0,0.0,0.0,0.0,0.0,0.0,0.0,0.0,0.0,0.0,0.0,0.0,0.0,0.0,0.0,0.0,0.0,0.0,0.0,0.0,0.0,0.0,0.0,0.0,0.0,0.0,0.0,0.0,0.0,0.0,0.0,0.0,0.0,0.0,0.0,0.0,0.0,0.0,0.0,0.0,0.0,0.0,0.0,0.0,0.0,0.0,0.0,0.0,0.0,0.0,0.0,0.0,0.0,0.0,0.0,0.0,0.0,0.0,0.0,0.0,0.0,-0.0112,-0.0224,-0.0224,-0.0505,-0.1065,-0.2129,-0.2968,-0.3805,-0.5089,-0.6038,-0.693,-0.7934,-0.8491,-0.8768,-0.8881,-0.8885,-0.8885,-0.8885,-0.8885,-0.8885,-0.8885,-0.8885,-0.8885,-0.8885,-0.8885,-0.8885,-0.8885,-0.8885,-0.8885,-0.8885,-0.8885,-0.8885,-0.8885,-0.8885,-0.8885,-0.8885,-0.8885,-0.8885,-0.8885,-0.8885,-0.8885,-0.8885,-0.8885,-0.8885,0.0,0.0,0.0,0.0,0.0,0.0,0.0,0.0,0.0,0.0,0.0,0.0,0.0,0.0,0.0,0.0,0.0,0.0,0.0,0.0,0.0,0.0,0.0,0.0,0.0,0.0,0.0,0.0,0.0,0.0,0.0,0.0,0.0,0.0,0.0,0.0,0.0,0.0,0.0,0.0,0.0,0.0,0.0,0.0,0.0,0.0,0.0,0.0,0.0,0.0,0.0,0.0,0.0,0.0,0.0,0.0,0.0,0.0,0.0,0.0,0.0,0.0,0.0,0.0,0.0,0.0,0.0,0.0,0.0,0.0,0.0,0.0,-0.0224,-0.1009,-0.1905,-0.28,-0.3749,-0.4864,-0.6091,-0.7271,-0.7992,-0.8488,-0.8826,-0.8881,-0.8881,-0.8881,-0.8885,-0.8885,-0.8885,-0.8885,-0.8885,-0.8885,-0.8885,-0.8885,-0.8885,-0.8885,-0.8885,-0.8885,-0.8885,-0.8885,-0.8885,-0.8885,-0.8885,-0.8885,-0.8885,-0.8885,-0.8885,-0.8885,-0.8885,-0.8885,-0.8885,-0.8885,0.0,0.0,0.0,0.0,0.0,0.0,0.0,0.0,0.0,0.0,0.0,0.0,0.0,0.0,0.0,0.0,0.0,0.0,0.0,0.0,0.0,0.0,0.0,0.0,0.0,0.0,0.0,0.0,0.0,0.0,0.0,0.0,0.0,0.0,0.0,0.0,0.0,0.0,0.0,0.0,0.0,0.0,0.0,0.0,0.0,0.0,0.0,0.0,0.0,0.0,0.0,0.0,0.0,0.0,0.0,0.0,0.0,0.0,0.0,0.0,0.0,0.0,0.0,0.0,0.0,0.0,0.0,0.0,0.0,0.0,0.0,0.0,-0.0056,-0.0224,-0.0953,-0.1905,-0.3025,-0.4252,-0.5423,-0.6657,-0.7382,-0.7937,-0.8488,-0.8598,-0.8654,-0.8881,-0.8885,-0.8885,-0.8885,-0.8885,-0.8885,-0.8885,-0.8885,-0.8885,-0.8885,-0.8885,-0.8885,-0.8885,-0.8885,-0.8885,-0.8885,-0.8885,-0.8885,-0.8885,-0.8885,-0.8885,-0.8885,-0.8885,-0.8885,-0.8885,-0.8885,-0.8885,0.0,0.0,0.0,0.0,0.0,0.0,0.0,0.0,0.0,0.0,0.0,0.0,0.0,0.0,0.0,0.0,0.0,0.0,0.0,0.0,0.0,0.0,0.0,0.0,0.0,0.0,0.0,0.0,0.0,0.0,0.0,0.0,0.0,0.0,0.0,0.0,0.0,0.0,0.0,0.0,0.0,0.0,0.0,0.0,0.0,0.0,0.0,0.0,0.0,0.0,0.0,0.0,0.0,0.0,0.0,0.0,0.0,0.0,0.0,0.0,0.0,0.0,0.0,0.0,0.0,0.0,0.0,0.0,0.0,0.0,0.0,0.0,0.0,0.0,-0.0449,-0.1177,-0.2242,-0.3192,-0.4252,-0.5592,-0.6318,-0.6985,-0.7765,-0.8208,-0.854,-0.8712,-0.8826,-0.8885,-0.8885,-0.8885,-0.8885,-0.8885,-0.8885,-0.8885,-0.8885,-0.8885,-0.8885,-0.8885,-0.8885,-0.8885,-0.8885,-0.8885,-0.8885,-0.8885,-0.8885,-0.8885,-0.8885,-0.8885,-0.8885,-0.8885,-0.8885,-0.8885,0.0,0.0,0.0,0.0,0.0,0.0,0.0,0.0,0.0,0.0,0.0,0.0,0.0,0.0,0.0,0.0,0.0,0.0,0.0,0.0,0.0,0.0,0.0,0.0,0.0,0.0,0.0,0.0,0.0,0.0,0.0,0.0,0.0,0.0,0.0,0.0,0.0,0.0,0.0,0.0,0.0,0.0,0.0,0.0,0.0,0.0,0.0,0.0,0.0,0.0,0.0,0.0,0.0,0.0,0.0,0.0,0.0,0.0,0.0,0.0,0.0,0.0,0.0,0.0,0.0,0.0,0.0,0.0,0.0,0.0,0.0,0.0,0.0,0.0,-0.0168,-0.0561,-0.1458,-0.213,-0.2968,-0.4308,-0.5198,-0.5984,-0.6844,-0.7741,-0.8363,-0.8441,-0.8732,-0.8903,-0.8959,-0.8959,-0.8959,-0.8959,-0.8959,-0.8959,-0.8959,-0.8959,-0.8959,-0.8959,-0.8959,-0.9001,-0.8977,-0.8977,-0.8908,-0.8885,-0.8885,-0.8885,-0.8885,-0.8885,-0.8885,-0.8885,-0.8885,-0.8885,0.0,0.0,0.0,0.0,0.0,0.0,0.0,0.0,0.0,0.0,0.0,0.0,0.0,0.0,0.0,0.0,0.0,0.0,0.0,0.0,0.0,0.0,0.0,0.0,0.0,0.0,0.0,0.0,0.0,0.0,0.0,0.0,0.0,0.0,0.0,0.0,0.0,0.0,0.0,0.0,0.0,0.0,0.0,0.0,0.0,0.0,0.0,0.0,0.0,0.0,0.0,0.0,0.0,0.0,0.0,0.0,0.0,0.0,0.0,0.0,0.0,0.0,0.0,0.0,0.0,0.0,0.0,0.0,0.0,0.0,0.0,0.0,0.0,0.0,0.0,-0.0224,-0.0897,-0.1514,-0.2186,-0.3137,-0.4477,-0.562,-0.6096,-0.6909,-0.7687,-0.8314,-0.8682,-0.8977,-0.932,-0.9323,-0.9323,-0.9323,-0.9323,-0.9323,-0.9323,-0.9323,-0.9323,-0.9323,-0.9323,-0.9262,-0.9187,-0.918,-0.9066,-0.8885,-0.8885,-0.8885,-0.8885,-0.8885,-0.8885,-0.8885,-0.8885,-0.8885,0.0,0.0,0.0,0.0,0.0,0.0,0.0,0.0,0.0,0.0,0.0,0.0,0.0,0.0,0.0,0.0,0.0,0.0,0.0,0.0,0.0,0.0,0.0,0.0,0.0,0.0,0.0,0.0,0.0,0.0,0.0,0.0,0.0,0.0,0.0,0.0,0.0,0.0,0.0,0.0,0.0,0.0,0.0,0.0,0.0,0.0,0.0,0.0,0.0,0.0,0.0,0.0,0.0,0.0,0.0,0.0,0.0,0.0,0.0,0.0,0.0,0.0,0.0,0.0,0.0,0.0,0.0,0.0,0.0,0.0,0.0,0.0,0.0,0.0,0.0,-0.0058,-0.0346,-0.0744,-0.1311,-0.2184,-0.3339,-0.4327,-0.4821,-0.5983,-0.7098,-0.7788,-0.8445,-0.9036,-0.9381,-0.9381,-0.9381,-0.9381,-0.9381,-0.9381,-0.9381,-0.9381,-0.9381,-0.9381,-0.9381,-0.9351,-0.934,-0.934,-0.9252,-0.9188,-0.9025,-0.8885,-0.8885,-0.8885,-0.8885,-0.8885,-0.8885,-0.8885,0.0,0.0056,0.0114,0.0116,0.0237,0.0361,0.0367,0.0431,0.0494,0.0494,0.0494,0.0494,0.0494,0.0247,0.0,0.0,0.0,0.0,0.0,0.0,0.0,0.0,0.0,0.0,0.0,0.0,0.0,0.0,0.0,0.0,0.0,0.0,0.0,0.0,0.0,0.0,0.0,0.0,0.0,0.0,0.0,0.0,0.0,0.0,0.0,0.0,0.0,0.0,0.0,0.0,0.0,0.0,0.0,0.0,0.0,0.0,0.0,0.0,0.0,0.0,0.0,0.0,0.0,0.0,0.0,0.0,0.0,0.0,0.0,0.0,0.0,0.0,0.0,0.0,0.0,0.0,0.0,-0.0233,-0.0581,-0.1292,-0.2119,-0.2946,-0.3547,-0.4904,-0.6208,-0.7061,-0.8134,-0.8905,-0.9317,-0.9434,-0.9493,-0.9493,-0.9493,-0.9493,-0.9493,-0.9493,-0.9493,-0.9493,-0.9493,-0.9476,-0.9442,-0.9439,-0.9422,-0.9381,-0.9164,-0.9052,-0.9052,-0.9052,-0.9052,-0.9052,-0.9052,-0.9052,0.0,0.0164,0.0387,0.04,0.0874,0.1303,0.1324,0.1648,0.1912,0.1912,0.1912,0.1912,0.1912,0.0864,0.0,0.0,0.0,0.0,0.0,0.0,0.0,0.0,0.0,0.0,0.0,0.0,0.0,0.0,0.0,0.0,0.0,0.0,0.0,0.0,0.0,0.0,0.0,0.0,0.0,0.0,0.0,0.0,0.0,0.0,0.0,0.0,0.0,0.0,0.0,0.0,0.0,0.0,0.0,0.0,0.0,0.0,0.0,0.0,0.0,0.0,0.0,0.0,0.0,0.0,0.0,0.0,0.0,0.0,0.0,0.0,0.0,0.0,0.0,0.0,0.0,0.0,0.0,-0.0235,-0.0412,-0.0471,-0.1001,-0.1657,-0.2342,-0.3549,-0.4895,-0.625,-0.7606,-0.8641,-0.9252,-0.9556,-0.9798,-0.9798,-0.9798,-0.9798,-0.9798,-0.9798,-0.9798,-0.9798,-0.9798,-0.9737,-0.9602,-0.9598,-0.953,-0.9384,-0.9364,-0.9357,-0.9357,-0.9357,-0.9357,-0.9357,-0.9357,-0.9357,0.0,0.0215,0.0385,0.0394,0.0859,0.1343,0.1379,0.1695,0.201,0.2277,0.2343,0.2405,0.2588,0.1726,0.0987,0.0987,0.0617,0.0309,0.0309,0.0123,0.0,0.0,0.0,0.0,0.0,0.0,0.0,0.0,0.0,0.0,0.0,0.0,0.0,0.0,0.0,0.0,0.0,0.0,0.0,0.0,0.0,0.0,0.0,0.0,0.0,0.0,0.0,0.0,0.0,0.0,0.0,0.0,0.0,0.0,0.0,0.0,0.0,0.0,0.0,0.0,0.0,0.0,0.0,0.0,0.0,0.0,0.0,0.0,0.0,0.0,0.0,0.0,0.0,0.0,0.0,0.0,0.0,-0.006,-0.012,-0.0121,-0.0486,-0.1034,-0.1711,-0.2873,-0.4163,-0.5538,-0.6891,-0.8055,-0.8851,-0.9278,-0.9579,-0.9758,-0.9822,-0.9822,-0.9822,-0.9822,-0.9822,-0.9822,-0.9822,-0.9798,-0.9747,-0.9744,-0.972,-0.9666,-0.9663,-0.9571,-0.9381,-0.9381,-0.9381,-0.9381,-0.9381,-0.9381,0.0,0.0264,0.0595,0.0664,0.1239,0.1838,0.2124,0.2452,0.2839,0.3356,0.3439,0.3635,0.4064,0.3325,0.2403,0.1788,0.1111,0.0617,0.0494,0.0185,0.0,0.0,0.0,0.0,0.0,0.0,0.0,0.0,0.0,0.0,0.0,0.0,0.0,0.0,0.0,0.0,0.0,0.0,0.0,0.0,0.0,0.0,0.0,0.0,0.0,0.0,0.0,0.0,0.0,0.0,0.0,0.0,0.0,0.0,0.0,0.0,0.0,0.0,0.0,0.0,0.0,0.0,0.0,0.0,0.0,0.0,0.0,0.0,0.0,0.0,0.0,0.0,0.0,0.0,0.0,0.0,0.0,0.0,0.0,0.0,-0.0185,-0.0494,-0.1048,-0.2157,-0.3326,-0.4558,-0.6033,-0.7385,-0.8363,-0.8973,-0.9457,-0.9761,-0.9822,-0.9822,-0.9822,-0.9822,-0.9822,-0.9822,-0.9822,-0.9822,-0.9822,-0.9822,-0.9822,-0.9822,-0.9822,-0.9724,-0.953,-0.953,-0.953,-0.953,-0.953,-0.953,0.0,0.0,0.0,0.1246,0.1993,0.2872,0.3492,0.3943,0.4451,0.5116,0.5359,0.5602,0.628,0.5602,0.431,0.2404,0.1481,0.0926,0.0556,0.0247,0.0,0.0,0.0,0.0,0.0,0.0,0.0,0.0,0.0,0.0,0.0,0.0,0.0,0.0,0.0,0.0,0.0,0.0,0.0,0.0,0.0,0.0,0.0,0.0,0.0,0.0,0.0,0.0,0.0,0.0,0.0,0.0,0.0,0.0,0.0,0.0,0.0,0.0,0.0,0.0,0.0,0.0,0.0,0.0,0.0,0.0,0.0,0.0,0.0,0.0,0.0,0.0,0.0,0.0,0.0,0.0,0.0,0.0,0.0,0.0,0.0,-0.0123,-0.0432,-0.1296,-0.2281,-0.3203,-0.5049,-0.6709,-0.7747,-0.8665,-0.9396,-0.9761,-0.9822,-0.9822,-0.9822,-0.9822,-0.9822,-0.9822,-0.9822,-0.9822,-0.9822,-0.9822,-0.9822,-0.9822,-0.9822,-0.9822,-0.9822,-0.9822,-0.9822,-0.9822,-0.9822,-0.9822,0.0,0.0,0.0,0.0,0.0,0.0,0.2571,0.2951,0.3515,0.4436,0.4833,0.5407,0.6569,0.634,0.5665,0.4619,0.2897,0.161,0.1252,0.0502,0.0,0.0,0.0,0.0,0.0,0.0,0.0,0.0,0.0,0.0,0.0,0.0,0.0,0.0,0.0,0.0,0.0,0.0,0.0,0.0,0.0,0.0,0.0,0.0,0.0,0.0,0.0,0.0,0.0,0.0,0.0,0.0,0.0,0.0,0.0,0.0,0.0,0.0,0.0,0.0,0.0,0.0,0.0,0.0,0.0,0.0,0.0,0.0,0.0,0.0,0.0,0.0,0.0,0.0,0.0,0.0,0.0,0.0,0.0,0.0,0.0,-0.0123,-0.0432,-0.0926,-0.1605,-0.259,-0.4003,-0.5416,-0.6648,-0.7869,-0.8845,-0.9396,-0.964,-0.9822,-0.9822,-0.9822,-0.9822,-0.9822,-0.9822,-0.9822,-0.9822,-0.9822,-0.9822,-0.9822,-0.9822,-0.9822,-0.9822,-0.9822,-0.9822,-0.9822,-0.9822,-0.9822,0.0,0.0204,0.0516,0.0945,0.0,0.0,0.2519,0.2845,0.3291,0.4294,0.4831,0.5549,0.6994,0.6923,0.6526,0.6276,0.4309,0.2478,0.1636,0.0758,0.0127,0.0,0.0,0.0,0.0,0.0,0.0,0.0,0.0,0.0,0.0,0.0,0.0,0.0,0.0,0.0,0.0,0.0,0.0,0.0,0.0,0.0,0.0,0.0,0.0,0.0,0.0,0.0,0.0,0.0,0.0,0.0,0.0,0.0,0.0,0.0,0.0,0.0,0.0,0.0,0.0,0.0,0.0,0.0,0.0,0.0,0.0,0.0,0.0,0.0,0.0,0.0,0.0,0.0,0.0,0.0,0.0,0.0,0.0,0.0,0.0,-0.0062,-0.0247,-0.0556,-0.1111,-0.1973,-0.3142,-0.4495,-0.5788,-0.7136,-0.8238,-0.9034,-0.9396,-0.964,-0.9761,-0.9822,-0.9822,-0.9822,-0.9822,-0.9822,-0.9822,-0.9822,-0.9822,-0.9822,-0.9822,-0.9822,-0.9822,-0.9822,-0.9822,-0.9822,-0.9822,-0.9822,0.0,0.0152,0.0507,0.1035,0.1369,0.0,0.2672,0.2973,0.3324,0.4305,0.4932,0.5749,0.737,0.7291,0.7062,0.7296,0.5531,0.3533,0.1829,0.0949,0.0382,0.0065,0.0,0.0,0.0,0.0,0.0,0.0,0.0,0.0,0.0,0.0,0.0,0.0,0.0,0.0,0.0,0.0,0.0,0.0,0.0,0.0,0.0,0.0,0.0,0.0,0.0,0.0,0.0,0.0,0.0,0.0,0.0,0.0,0.0,0.0,0.0,0.0,0.0,0.0,0.0,0.0,0.0,0.0,0.0,0.0,0.0,0.0,0.0,0.0,0.0,0.0,0.0,0.0,0.0,0.0,0.0,0.0,0.0,0.0,0.0,0.0,0.0,-0.0247,-0.0679,-0.1295,-0.2465,-0.3696,-0.4989,-0.6401,-0.7569,-0.8546,-0.9034,-0.9396,-0.97,-0.9758,-0.9822,-0.9822,-0.9822,-0.9822,-0.9822,-0.9822,-0.9822,-0.9822,-0.9822,-0.9822,-0.9822,-0.9822,-0.9822,-0.9822,-0.9822,-0.9822,0.0,0.0051,0.0153,0.0474,0.0638,0.0,0.1219,0.1514,0.1979,0.2979,0.3866,0.4942,0.6535,0.7231,0.7365,0.6887,0.6105,0.4785,0.262,0.1285,0.0389,0.0067,0.0,0.0,0.0,0.0,0.0,0.0,0.0,0.0,0.0,0.0,0.0,0.0,0.0,0.0,0.0,0.0,0.0,0.0,0.0,0.0,0.0,0.0,0.0,0.0,0.0,0.0,0.0,0.0,0.0,0.0,0.0,0.0,0.0,0.0,0.0,0.0,0.0,0.0,0.0,0.0,0.0,0.0,0.0,0.0,0.0,0.0,0.0,0.0,0.0,0.0,0.0,0.0,0.0,0.0,0.0,0.0,0.0,0.0,0.0,0.0,0.0,-0.0062,-0.0247,-0.0617,-0.1603,-0.265,-0.3634,-0.517,-0.6585,-0.7569,-0.8424,-0.9034,-0.9396,-0.964,-0.9822,-0.9822,-0.9822,-0.9822,-0.9822,-0.9822,-0.9822,-0.9822,-0.9822,-0.9822,-0.9822,-0.9822,-0.9822,-0.9822,-0.9822,-0.9822,-0.0202,-0.0102,0.0051,0.0314,0.0373,0.0,0.0,0.1115,0.1517,0.2154,0.3084,0.4201,0.5565,0.6291,0.6674,0.655,0.5692,0.4493,0.2729,0.1605,0.0781,0.0066,0.0,0.0,0.0,0.0,0.0,0.0,0.0,0.0,0.0,0.0,0.0,0.0,0.0,0.0,0.0,0.0,0.0,0.0,0.0,0.0,0.0,0.0,0.0,0.0,0.0,0.0,0.0,0.0,0.0,0.0,0.0,0.0,0.0,0.0,0.0,0.0,0.0,0.0,0.0,0.0,0.0,0.0,0.0,0.0,0.0,0.0,0.0,0.0,0.0,0.0,0.0,0.0,0.0,0.0,0.0,0.0,0.0,0.0,0.0,0.0,0.0,0.0,-0.0123,-0.0432,-0.1049,-0.1851,-0.2835,-0.4247,-0.56,-0.6771,-0.7933,-0.8787,-0.9278,-0.9579,-0.9822,-0.9822,-0.9822,-0.9822,-0.9822,-0.9822,-0.9822,-0.9822,-0.9822,-0.9822,-0.9822,-0.9822,-0.9822,-0.9822,-0.9822,-0.9822,-0.051,-0.031,0.0,0.0262,0.0,0.0384,0.0,0.0,0.0,0.1627,0.2494,0.3544,0.4626,0.5209,0.5641,0.589,0.5036,0.3949,0.2555,0.1905,0.1098,0.0131,0.0,0.0,0.0,0.0,0.0,0.0,0.0,0.0,0.0,0.0,0.0,0.0,0.0,0.0,0.0,0.0,0.0,0.0,0.0,0.0,0.0,0.0,0.0,0.0,0.0,0.0,0.0,0.0,0.0,0.0,0.0,0.0,0.0,0.0,0.0,0.0,0.0,0.0,0.0,0.0,0.0,0.0,0.0,0.0,0.0,0.0,0.0,0.0,0.0,0.0,0.0,0.0,0.0,0.0,0.0,0.0,0.0,0.0,0.0,0.0,0.0,0.0,-0.0062,-0.037,-0.0679,-0.1235,-0.2158,-0.3388,-0.4618,-0.5972,-0.7317,-0.8355,-0.897,-0.9457,-0.97,-0.97,-0.9761,-0.9822,-0.9822,-0.9822,-0.9822,-0.9822,-0.9822,-0.9822,-0.9822,-0.9822,-0.9822,-0.9822,-0.9822,-0.9822,-0.0949,-0.0584,-0.0267,0.0,0.0055,0.0055,0.0111,0.0,0.1009,0.129,0.0,0.2982,0.3653,0.0,0.0,0.45,0.4608,0.4096,0.2239,0.1677,0.1145,0.0129,0.0,0.0,0.0,0.0,0.0,0.0,0.0,0.0,0.0,0.0,0.0,0.0,0.0,0.0,0.0,0.0,0.0,0.0,0.0,0.0,0.0,0.0,0.0,0.0,0.0,0.0,0.0,0.0,0.0,0.0,0.0,0.0,0.0,0.0,0.0,0.0,0.0,0.0,0.0,0.0,0.0,0.0,0.0,0.0,0.0,0.0,0.0,0.0,0.0,0.0,0.0,0.0,0.0,0.0,0.0,0.0,0.0,0.0,0.0,0.0,0.0,0.0,0.0,-0.0062,-0.037,-0.0802,-0.1541,-0.2528,-0.3637,-0.4926,-0.6274,-0.7317,-0.7991,-0.8848,-0.9335,-0.9335,-0.964,-0.9822,-0.9822,-0.9822,-0.9822,-0.9822,-0.9822,-0.9822,-0.9822,-0.9822,-0.9822,-0.9822,-0.9822,-0.9822,-0.1801,-0.1288,-0.0813,0.0,0.0,0.0,-0.0056,0.0,0.0617,0.0,0.0,0.0,0.0,0.0,0.0,0.0,0.3078,0.2655,0.1564,0.1097,0.0682,0.0064,0.0,0.0,0.0,0.0,0.0,0.0,0.0,0.0,0.0,0.0,0.0,0.0,0.0,0.0,0.0,0.0,0.0,0.0,0.0,0.0,0.0,0.0,0.0,0.0,0.0,0.0,0.0,0.0,0.0,0.0,0.0,0.0,0.0,0.0,0.0,0.0,0.0,0.0,0.0,0.0,0.0,0.0,0.0,0.0,0.0,0.0,0.0,0.0,0.0,0.0,0.0,0.0,0.0,0.0,0.0,0.0,0.0,0.0,0.0,0.0,0.0,0.0,0.0,0.0,-0.0123,-0.0432,-0.1111,-0.1912,-0.2898,-0.4189,-0.5538,-0.6644,-0.7505,-0.8485,-0.9095,-0.9275,-0.964,-0.9822,-0.9822,-0.9822,-0.9822,-0.9822,-0.9822,-0.9822,-0.9822,-0.9822,-0.9822,-0.9822,-0.9822,-0.9822,-0.2827,-0.2227,-0.1651,-0.0937,0.0,0.0,0.0,0.0,0.0,0.0,0.0,0.0,0.0,0.0,0.0,0.0,0.0,0.1508,0.089,0.0657,0.0364,0.0063,0.0,0.0,0.0,0.0,0.0,0.0,0.0,0.0,0.0,0.0,0.0,0.0,0.0,0.0,0.0,0.0,0.0,0.0,0.0,0.0,0.0,0.0,0.0,0.0,0.0,0.0,0.0,0.0,0.0,0.0,0.0,0.0,0.0,0.0,0.0,0.0,0.0,0.0,0.0,0.0,0.0,0.0,0.0,0.0,0.0,0.0,0.0,0.0,0.0,0.0,0.0,0.0,0.0,0.0,0.0,0.0,0.0,0.0,0.0,0.0,0.0,0.0,0.0,0.0,0.0,-0.0185,-0.0803,-0.1358,-0.2158,-0.3266,-0.4495,-0.56,-0.6646,-0.7689,-0.8543,-0.9278,-0.964,-0.9822,-0.9822,-0.9822,-0.9822,-0.9822,-0.9822,-0.9822,-0.9822,-0.9822,-0.9822,-0.9822,-0.9822,-0.9822,-0.4123,-0.3479,-0.2856,-0.1961,-0.1514,0.0,0.0,0.0,0.0112,0.0,0.0,0.0,0.0,0.0,0.0,0.0,0.0,0.0,0.0,0.0467,0.0358,0.0062,0.0,0.0,0.0,0.0,0.0,0.0,0.0,0.0,0.0,0.0,0.0,0.0,0.0,0.0,0.0,0.0,0.0,0.0,0.0,0.0,0.0,0.0,0.0,0.0,0.0,0.0,0.0,0.0,0.0,0.0,0.0,0.0,0.0,0.0,0.0,0.0,0.0,0.0,0.0,0.0,0.0,0.0,0.0,0.0,0.0,0.0,0.0,0.0,0.0,0.0,0.0,0.0,0.0,0.0,0.0,0.0,0.0,0.0,0.0,0.0,0.0,0.0,0.0,0.0,0.0,-0.0123,-0.0494,-0.0803,-0.1296,-0.1973,-0.2896,-0.388,-0.4925,-0.6213,-0.7622,-0.9214,-0.964,-0.9822,-0.9822,-0.9822,-0.9822,-0.9822,-0.9822,-0.9822,-0.9822,-0.9822,-0.9822,-0.9822,-0.9822,-0.9822,-0.5266,-0.4806,-0.4365,-0.3246,-0.2744,0.0,0.0,0.0,0.0,0.0,0.0,0.0,0.0,0.0,0.0,0.0,0.0,0.0,0.0,0.0175,0.0119,0.0,0.0,0.0,0.0,0.0,0.0,0.0,0.0,0.0,0.0,0.0,0.0,0.0,0.0,0.0,0.0,0.0,0.0,0.0,0.0,0.0,0.0,0.0,0.0,0.0,0.0,0.0,0.0,0.0,0.0,0.0,0.0,0.0,0.0,0.0,0.0,0.0,0.0,0.0,0.0,0.0,0.0,0.0,0.0,0.0,0.0,0.0,0.0,0.0,0.0,0.0,0.0,0.0,0.0,0.0,0.0,0.0,0.0,0.0,0.0,0.0,0.0,0.0,0.0,0.0,0.0,-0.0123,-0.0432,-0.0617,-0.0926,-0.1603,-0.2342,-0.3204,-0.4127,-0.6092,-0.7625,-0.8662,-0.8781,-0.8903,-0.8903,-0.8903,-0.8903,-0.8903,-0.9275,-0.9457,-0.9457,-0.97,-0.9822,-0.9822,-0.9822,-0.9822,-0.6355,-0.6101,0.0,-0.4641,-0.414,0.0,-0.2689,0.0,-0.1738,0.0,0.0,0.0,0.0,0.0,0.0,0.0,0.0,0.0,0.0,0.0,0.0,0.0,0.0,0.0,0.0,0.0,0.0,0.0,0.0,0.0,0.0,0.0,0.0,0.0,0.0,0.0,0.0,0.0,0.0,0.0,0.0,0.0,0.0,0.0,0.0,0.0,0.0,0.0,0.0,0.0,0.0,0.0,0.0,0.0,0.0,0.0,0.0,0.0,0.0,0.0,0.0,0.0,0.0,0.0,0.0,0.0,0.0,0.0,0.0,0.0,0.0,0.0,0.0,0.0,0.0,0.0,0.0,0.0,0.0,0.0,0.0,0.0,0.0,0.0,0.0,0.0,0.0,-0.0063,-0.0314,-0.0314,-0.0501,-0.0933,-0.143,-0.2296,-0.3637,-0.554,-0.6952,-0.7622,-0.7805,-0.7928,-0.805,-0.805,-0.8169,-0.8416,-0.8784,-0.9092,-0.9275,-0.9518,-0.97,-0.9822,-0.9822,-0.9822]},{"header":{"parameterUnit":"m.s-1","parameterCategory":1,"la1":30.6,"la2":29.2853,"lo1":-89.7004,"lo2":-87.6739,"dy":0.0162,"dx":0.0183,"nx":112,"ny":82,"refTime":"2024-06-12T00:00:00:Z","depth":0,"parameterNumber":3,"parameterNumberName":"V-component_of_WINDS"},"data":[0.0,0.0,0.0,0.0,0.0,0.0,0.0,0.0,0.0,0.0,0.0,0.0,0.0,0.0,0.0,0.0,0.0,0.0,0.0,0.0,0.0,0.0,0.0,0.0,0.0,0.0,0.0,0.0,0.0,0.0,0.0,0.0,0.0,0.0,0.0,0.0,0.0,0.0,0.0,0.0,0.0,0.0,0.0,0.0,0.0,0.0,0.0,0.0,0.0,0.0,0.0,0.0,0.0,0.0,0.0,0.0,0.0,0.0,0.0,0.0,0.0,0.0,0.0,0.0,0.0,0.0,0.0,0.0,0.0,0.0,0.0,0.0,0.0,0.0,0.0,0.0,0.0,0.0,0.0,0.0,0.0,0.0,0.0,0.0,0.0,0.0,0.0,0.0,0.0,0.0,2.582,2.5216,2.3742,2.2777,2.274,2.2088,2.1786,2.2056,0.0,0.0,0.0,0.0,0.0,0.0,0.0,0.0,0.0,0.0,0.0,0.0,0.0,0.0,0.0,0.0,0.0,0.0,0.0,0.0,0.0,0.0,0.0,0.0,0.0,0.0,0.0,0.0,0.0,0.0,0.0,0.0,0.0,0.0,0.0,0.0,0.0,0.0,0.0,0.0,0.0,0.0,0.0,0.0,0.0,0.0,0.0,0.0,0.0,0.0,0.0,0.0,0.0,0.0,0.0,0.0,0.0,0.0,0.0,0.0,0.0,0.0,0.0,0.0,0.0,0.0,0.0,0.0,0.0,0.0,0.0,0.0,0.0,0.0,0.0,0.0,0.0,0.0,0.0,0.0,0.0,0.0,0.0,0.0,0.0,0.0,0.0,0.0,0.0,0.0,0.0,0.0,0.0,0.0,0.0,0.0,0.0,0.0,0.0,0.0,0.0,0.0,0.0,0.0,2.4479,2.3257,2.2429,2.1845,2.1502,2.1019,2.0808,2.1101,0.0,0.0,0.0,0.0,0.0,0.0,0.0,0.0,0.0,0.0,0.0,0.0,0.0,0.0,0.0,0.0,0.0,0.0,0.0,0.0,0.0,0.0,0.0,0.0,0.0,0.0,0.0,0.0,0.0,0.0,0.0,0.0,0.0,0.0,0.0,0.0,0.0,0.0,0.0,0.0,0.0,0.0,0.0,0.0,0.0,0.0,0.0,0.0,0.0,0.0,0.0,0.0,0.0,0.0,0.0,0.0,0.0,0.0,0.0,0.0,0.0,0.0,0.0,0.0,0.0,0.0,0.0,0.0,0.0,0.0,0.0,0.0,0.0,0.0,0.0,0.0,0.0,0.0,0.0,0.0,0.0,0.0,0.0,0.0,0.0,0.0,0.0,0.0,0.0,0.0,0.0,0.0,0.0,0.0,0.0,0.0,0.0,0.0,0.0,0.0,0.0,0.0,0.0,2.4377,2.353,2.2483,2.1845,2.1397,2.1205,2.0669,2.0367,2.0462,2.084,0.0,0.0,0.0,0.0,0.0,0.0,0.0,0.0,0.0,0.0,0.0,0.0,0.0,0.0,0.0,0.0,0.0,0.0,0.0,0.0,0.0,0.0,0.0,0.0,0.0,0.0,0.0,0.0,0.0,0.0,0.0,0.0,0.0,0.0,0.0,0.0,0.0,0.0,0.0,0.0,0.0,0.0,0.0,0.0,0.0,0.0,0.0,0.0,0.0,0.0,0.0,0.0,0.0,0.0,0.0,0.0,0.0,0.0,0.0,0.0,0.0,0.0,0.0,0.0,0.0,0.0,0.0,0.0,0.0,0.0,0.0,0.0,0.0,0.0,0.0,0.0,0.0,0.0,0.0,0.0,0.0,0.0,0.0,0.0,0.0,0.0,0.0,0.0,0.0,0.0,0.0,0.0,0.0,0.0,0.0,0.0,0.0,0.0,0.0,0.0,0.0,0.0,2.3649,2.2852,2.2025,2.1474,2.1128,2.1051,2.0508,2.0098,2.0006,1.9856,0.0,0.0,0.0,0.0,0.0,0.0,0.0,0.0,0.0,0.0,0.0,0.0,0.0,0.0,0.0,0.0,0.0,0.0,0.0,0.0,0.0,0.0,0.0,0.0,0.0,0.0,0.0,0.0,0.0,0.0,0.0,0.0,0.0,0.0,0.0,0.0,0.0,0.0,0.0,0.0,0.0,0.0,0.0,0.0,0.0,0.0,0.0,0.0,0.0,0.0,0.0,0.0,0.0,0.0,0.0,0.0,0.0,0.0,0.0,0.0,0.0,0.0,0.0,0.0,0.0,0.0,0.0,0.0,0.0,0.0,0.0,0.0,0.0,0.0,0.0,0.0,0.0,0.0,0.0,0.0,0.0,0.0,0.0,0.0,0.0,0.0,0.0,0.0,0.0,0.0,0.0,0.0,0.0,0.0,0.0,0.0,0.0,0.0,0.0,0.0,0.0,0.0,2.2948,2.244,2.1617,2.1167,2.0858,2.0644,2.0204,1.9858,1.9637,1.9404,0.0,0.0,0.0,0.0,0.0,0.0,0.0,0.0,0.0,0.0,0.0,0.0,0.0,0.0,0.0,0.0,0.0,0.0,0.0,0.0,0.0,0.0,0.0,0.0,0.0,0.0,0.0,0.0,0.0,0.0,0.0,0.0,0.0,0.0,0.0,0.0,0.0,0.0,0.0,0.0,0.0,0.0,0.0,0.0,0.0,0.0,0.0,0.0,0.0,0.0,0.0,0.0,0.0,0.0,0.0,0.0,0.0,0.0,0.0,0.0,0.0,0.0,0.0,0.0,0.0,0.0,0.0,0.0,0.0,0.0,0.0,0.0,0.0,0.0,0.0,0.0,0.0,0.0,0.0,0.0,0.0,0.0,0.0,0.0,0.0,0.0,0.0,0.0,0.0,0.0,0.0,0.0,0.0,0.0,0.0,0.0,0.0,0.0,0.0,0.0,0.0,0.0,2.3025,2.2515,2.1617,2.1128,2.0819,2.0605,1.9922,1.949,1.9416,0.0,0.0,0.0,0.0,0.0,0.0,0.0,0.0,0.0,0.0,0.0,0.0,0.0,0.0,0.0,0.0,0.0,0.0,0.0,0.0,0.0,0.0,0.0,0.0,0.0,0.0,0.0,0.0,0.0,0.0,0.0,0.0,0.0,0.0,0.0,0.0,0.0,0.0,0.0,0.0,0.0,0.0,0.0,0.0,0.0,0.0,0.0,0.0,0.0,0.0,0.0,0.0,0.0,0.0,0.0,0.0,0.0,0.0,0.0,0.0,0.0,0.0,0.0,0.0,0.0,0.0,0.0,0.0,0.0,0.0,0.0,0.0,0.0,0.0,0.0,0.0,0.0,0.0,0.0,0.0,0.0,0.0,0.0,0.0,0.0,0.0,0.0,0.0,0.0,0.0,0.0,0.0,0.0,0.0,0.0,0.0,0.0,0.0,0.0,0.0,0.0,0.0,2.3214,2.307,2.2628,2.1693,2.1167,2.076,2.041,1.9734,1.9228,1.9092,0.0,0.0,0.0,0.0,0.0,0.0,0.0,0.0,0.0,0.0,0.0,0.0,0.0,0.0,0.0,0.0,0.0,0.0,0.0,0.0,0.0,0.0,0.0,0.0,0.0,0.0,0.0,0.0,0.0,0.0,0.0,0.0,0.0,0.0,0.0,0.0,0.0,0.0,0.0,0.0,0.0,0.0,0.0,0.0,0.0,0.0,0.0,0.0,0.0,0.0,0.0,0.0,0.0,0.0,0.0,0.0,0.0,0.0,0.0,0.0,0.0,0.0,0.0,0.0,0.0,0.0,0.0,0.0,0.0,0.0,0.0,0.0,0.0,0.0,0.0,0.0,0.0,0.0,0.0,0.0,0.0,0.0,0.0,0.0,0.0,0.0,0.0,0.0,0.0,0.0,0.0,0.0,0.0,0.0,0.0,0.0,0.0,0.0,0.0,0.0,0.0,0.0,2.292,2.2918,2.2703,2.1883,2.1282,2.0641,1.9951,1.9531,1.9102,0.0,0.0,0.0,0.0,0.0,0.0,0.0,0.0,0.0,0.0,0.0,0.0,0.0,0.0,0.0,0.0,0.0,0.0,0.0,0.0,0.0,0.0,0.0,0.0,0.0,0.0,0.0,0.0,0.0,0.0,0.0,0.0,0.0,0.0,0.0,0.0,0.0,0.0,0.0,0.0,0.0,0.0,0.0,0.0,0.0,0.0,0.0,0.0,0.0,0.0,0.0,0.0,0.0,0.0,0.0,0.0,0.0,0.0,0.0,0.0,0.0,0.0,0.0,0.0,0.0,0.0,0.0,0.0,0.0,0.0,0.0,0.0,0.0,0.0,0.0,0.0,0.0,0.0,0.0,0.0,0.0,0.0,0.0,0.0,0.0,0.0,0.0,0.0,0.0,0.0,0.0,0.0,0.0,0.0,0.0,0.0,0.0,0.0,0.0,0.0,0.0,0.0,0.0,2.3513,2.3664,2.346,2.2553,2.1769,2.0976,2.0167,1.9595,1.9102,1.8627,0.0,0.0,0.0,0.0,0.0,0.0,0.0,0.0,0.0,0.0,0.0,0.0,0.0,0.0,0.0,0.0,0.0,0.0,0.0,0.0,0.0,0.0,0.0,0.0,0.0,0.0,0.0,0.0,0.0,0.0,0.0,0.0,0.0,0.0,0.0,0.0,0.0,0.0,0.0,0.0,0.0,0.0,0.0,0.0,0.0,0.0,0.0,0.0,0.0,0.0,0.0,0.0,0.0,0.0,0.0,0.0,0.0,0.0,0.0,0.0,0.0,0.0,0.0,0.0,0.0,0.0,0.0,0.0,0.0,0.0,0.0,0.0,0.0,0.0,0.0,0.0,0.0,0.0,0.0,0.0,0.0,0.0,0.0,0.0,0.0,0.0,0.0,0.0,0.0,0.0,0.0,0.0,0.0,0.0,0.0,0.0,0.0,0.0,0.0,0.0,0.0,0.0,2.3869,2.4084,2.3925,2.3038,2.2045,2.108,2.0169,1.9486,1.8909,1.8373,0.0,0.0,0.0,0.0,0.0,0.0,0.0,0.0,0.0,0.0,0.0,0.0,0.0,0.0,0.0,0.0,0.0,0.0,0.0,0.0,0.0,0.0,0.0,0.0,0.0,0.0,0.0,0.0,0.0,0.0,0.0,0.0,0.0,0.0,0.0,0.0,0.0,0.0,0.0,0.0,0.0,0.0,0.0,0.0,0.0,0.0,0.0,0.0,0.0,0.0,0.0,0.0,0.0,0.0,0.0,0.0,0.0,0.0,0.0,0.0,0.0,0.0,0.0,0.0,0.0,0.0,0.0,0.0,0.0,0.0,0.0,0.0,0.0,0.0,0.0,0.0,0.0,0.0,0.0,0.0,0.0,0.0,0.0,0.0,0.0,0.0,0.0,0.0,0.0,0.0,0.0,0.0,0.0,0.0,0.0,0.0,0.0,0.0,0.0,0.0,0.0,0.0,2.4079,2.4293,2.4215,2.3471,2.2261,2.1063,2.0067,1.9339,1.8656,1.8071,0.0,0.0,0.0,0.0,0.0,0.0,0.0,0.0,0.0,0.0,0.0,0.0,0.0,0.0,0.0,0.0,0.0,0.0,0.0,0.0,0.0,0.0,0.0,0.0,0.0,0.0,0.0,0.0,0.0,0.0,0.0,0.0,0.0,0.0,0.0,0.0,0.0,0.0,0.0,0.0,0.0,0.0,0.0,0.0,0.0,0.0,0.0,0.0,0.0,0.0,0.0,0.0,0.0,0.0,0.0,0.0,0.0,0.0,0.0,0.0,3.2272,3.187,0.0,0.0,0.0,0.0,0.0,0.0,0.0,0.0,0.0,0.0,0.0,0.0,0.0,0.0,0.0,0.0,0.0,0.0,0.0,0.0,0.0,0.0,0.0,0.0,0.0,0.0,0.0,0.0,0.0,0.0,0.0,0.0,0.0,0.0,0.0,0.0,0.0,0.0,0.0,0.0,2.4406,2.4822,2.4862,2.424,2.2942,2.1689,2.0697,1.9712,1.8884,1.8265,1.8076,0.0,0.0,0.0,0.0,0.0,0.0,0.0,0.0,0.0,0.0,0.0,0.0,0.0,0.0,0.0,0.0,0.0,0.0,0.0,0.0,0.0,0.0,0.0,0.0,0.0,0.0,0.0,0.0,0.0,0.0,0.0,0.0,0.0,0.0,0.0,0.0,0.0,0.0,0.0,0.0,0.0,0.0,0.0,0.0,0.0,0.0,0.0,0.0,0.0,0.0,0.0,0.0,0.0,0.0,0.0,0.0,0.0,0.0,0.0,3.2789,3.2177,0.0,0.0,0.0,0.0,0.0,0.0,0.0,0.0,0.0,0.0,0.0,0.0,0.0,0.0,0.0,0.0,0.0,0.0,0.0,0.0,0.0,0.0,0.0,0.0,0.0,0.0,0.0,0.0,0.0,0.0,0.0,0.0,0.0,0.0,0.0,0.0,0.0,0.0,0.0,0.0,2.4863,2.5313,2.5347,2.4743,2.3371,2.2127,2.1266,2.0096,1.9199,1.8717,1.8573,0.0,0.0,0.0,0.0,0.0,0.0,0.0,0.0,0.0,0.0,0.0,0.0,0.0,0.0,0.0,0.0,0.0,0.0,0.0,0.0,0.0,0.0,0.0,0.0,0.0,0.0,0.0,0.0,0.0,0.0,0.0,0.0,0.0,0.0,0.0,0.0,0.0,0.0,0.0,0.0,0.0,0.0,0.0,0.0,0.0,0.0,0.0,0.0,0.0,0.0,0.0,0.0,0.0,3.518,3.5016,3.4698,3.4835,3.485,3.4639,3.3329,3.2638,3.2362,3.1739,0.0,0.0,0.0,0.0,0.0,0.0,0.0,0.0,0.0,0.0,0.0,0.0,0.0,0.0,0.0,0.0,0.0,0.0,0.0,0.0,0.0,0.0,0.0,0.0,3.1256,3.1421,3.0477,0.0,0.0,0.0,0.0,0.0,0.0,0.0,0.0,0.0,0.0,0.0,2.5361,2.5738,2.5758,2.5194,2.3768,2.2559,2.1885,2.053,1.9605,1.9297,1.9231,1.9076,0.0,0.0,0.0,0.0,0.0,0.0,0.0,0.0,0.0,0.0,0.0,0.0,0.0,0.0,0.0,0.0,0.0,0.0,0.0,0.0,0.0,0.0,0.0,0.0,0.0,0.0,0.0,0.0,0.0,0.0,0.0,0.0,3.5375,3.4906,0.0,0.0,0.0,0.0,0.0,0.0,0.0,0.0,0.0,0.0,0.0,0.0,0.0,3.5439,3.5472,3.5472,3.5359,3.518,3.518,3.5016,3.4698,3.4835,3.485,3.4683,3.4593,0.0,3.4008,3.2944,0.0,0.0,0.0,0.0,0.0,0.0,0.0,0.0,0.0,0.0,0.0,0.0,0.0,0.0,0.0,0.0,0.0,0.0,0.0,0.0,0.0,0.0,3.1511,3.2093,3.2288,3.2497,0.0,3.1469,3.0066,2.9796,2.8685,0.0,0.0,0.0,0.0,0.0,0.0,0.0,2.581,2.6024,2.6062,2.5793,2.4362,2.3234,2.2842,2.1283,2.0204,1.9966,1.9693,1.9425,1.9146,1.906,0.0,0.0,0.0,0.0,0.0,0.0,0.0,0.0,0.0,0.0,0.0,0.0,0.0,0.0,0.0,0.0,0.0,0.0,0.0,0.0,0.0,0.0,0.0,0.0,0.0,0.0,0.0,0.0,0.0,3.6416,3.6329,3.6207,3.5952,3.5643,0.0,0.0,0.0,0.0,0.0,0.0,0.0,0.0,0.0,3.5504,3.5504,3.5504,3.5504,3.5504,3.5472,3.5359,3.5359,3.5294,3.5129,3.5228,3.5195,3.5129,3.5228,3.5148,3.4935,3.3927,3.3357,3.3129,0.0,0.0,0.0,0.0,3.2643,3.3005,3.3048,3.3066,3.2976,3.2377,0.0,0.0,0.0,0.0,0.0,0.0,0.0,3.1629,0.0,0.0,3.2706,3.2991,3.3066,3.314,3.344,3.2751,3.1916,0.0,3.0132,2.9051,2.8146,0.0,0.0,0.0,0.0,2.6242,2.6509,2.6506,2.6396,2.6097,2.5083,2.4138,2.3504,2.2367,2.1486,2.0976,2.0805,2.0672,2.054,2.0228,2.0011,0.0,0.0,0.0,0.0,0.0,0.0,0.0,0.0,0.0,0.0,0.0,0.0,0.0,0.0,0.0,0.0,0.0,0.0,0.0,0.0,0.0,0.0,0.0,0.0,0.0,0.0,0.0,0.0,3.7425,3.7269,3.737,3.6769,3.6258,0.0,0.0,0.0,0.0,0.0,0.0,3.5759,3.5908,3.5998,3.5998,3.5998,3.5998,3.5998,3.5998,3.5908,3.5759,3.5759,3.5669,3.5504,3.5504,3.5504,3.5504,3.5504,3.5504,3.5439,3.4668,3.4366,3.4221,3.3325,3.3154,3.3331,3.3169,3.3299,3.357,3.3706,3.3739,3.3724,3.3544,3.3499,3.341,3.2916,0.0,0.0,0.0,0.0,3.2766,3.2766,3.3125,3.3529,3.3709,3.3739,3.3799,3.3963,3.4008,3.3661,0.0,3.1626,3.0661,2.956,0.0,0.0,0.0,0.0,2.6948,2.7191,2.6985,2.6726,2.6374,2.5679,2.4969,2.4253,2.3348,2.2591,2.204,2.1867,2.1753,2.1753,2.1329,2.107,2.1068,0.0,0.0,0.0,0.0,0.0,0.0,0.0,0.0,0.0,0.0,0.0,0.0,0.0,0.0,0.0,0.0,0.0,0.0,0.0,0.0,0.0,0.0,0.0,0.0,0.0,0.0,0.0,0.0,0.0,3.7915,3.7266,0.0,0.0,0.0,0.0,3.5688,3.6157,3.6432,3.6432,3.6985,3.7315,3.7315,3.7315,3.7315,3.7315,3.7315,3.7015,3.6432,3.6432,3.6118,3.5504,3.5504,3.5504,3.5504,3.5504,3.5504,3.5472,3.5261,3.5034,3.482,3.4654,3.4572,3.4606,3.4762,3.4912,3.5035,3.4588,3.4459,3.4354,3.3709,3.3499,3.3484,3.3455,3.3425,0.0,0.0,3.3425,3.344,3.344,3.3469,3.3649,3.4309,3.4459,3.4607,3.5265,3.54,3.4961,0.0,3.293,3.2368,3.1339,0.0,3.0037,2.9127,2.8551,2.8097,2.7809,2.7456,2.7134,2.6726,2.6064,2.5578,2.534,2.4002,2.3167,2.311,2.2525,2.2154,2.2154,2.213,2.1939,2.1571,2.1427,0.0,0.0,0.0,0.0,0.0,0.0,0.0,0.0,0.0,0.0,0.0,0.0,0.0,0.0,0.0,0.0,0.0,0.0,0.0,0.0,0.0,0.0,0.0,0.0,0.0,0.0,0.0,0.0,3.8827,3.8394,0.0,3.8357,3.7835,3.7414,3.7215,3.7258,3.7226,3.709,3.7285,3.7404,3.7404,3.7404,3.7404,3.7404,3.7404,3.73,3.7075,3.6671,3.6357,3.6118,3.5699,3.5504,3.5504,3.5604,3.5621,3.5653,3.5767,3.5557,3.5082,3.4916,3.485,3.4835,3.5049,3.5148,3.5216,3.5254,3.5277,3.5279,3.5258,3.5018,3.4775,3.4775,3.45,3.4134,3.4134,3.4454,3.4744,3.4638,3.4926,3.5243,3.5249,3.5277,3.5321,3.5477,3.5504,3.5337,3.4827,3.4174,3.3419,3.2537,3.2043,3.1461,3.0545,3.0005,2.9421,2.8554,2.8157,2.7743,2.7255,2.692,2.645,2.5782,2.5259,2.4603,2.3778,2.3492,2.317,2.28,2.2696,2.2579,2.2443,2.2304,2.2176,0.0,0.0,0.0,0.0,0.0,0.0,0.0,0.0,0.0,0.0,0.0,0.0,0.0,0.0,0.0,0.0,0.0,0.0,0.0,0.0,0.0,0.0,0.0,0.0,0.0,3.9429,3.9427,4.0046,3.9693,3.9484,3.9703,3.9156,3.8657,3.8394,3.8342,3.8262,3.8111,3.8322,3.8458,3.8458,3.8458,3.8458,3.8458,3.8458,3.8337,3.8096,3.7669,3.7213,3.676,3.6243,3.5926,3.5733,3.5831,3.5943,3.6038,3.6274,3.6133,3.5752,3.5509,3.5444,3.5459,3.5589,3.5636,3.5701,3.5958,3.6038,3.607,3.6337,3.623,3.5966,3.5966,3.5671,3.5299,3.5299,3.564,3.5936,3.5799,3.6076,3.629,3.6101,3.6006,3.5941,3.5876,3.5844,3.5812,3.5733,3.5068,3.429,3.3528,3.3172,3.2713,3.1804,3.1203,3.051,2.9595,2.9054,2.8481,2.7842,2.7689,2.73,2.644,2.6189,2.5702,2.4798,2.4507,2.4186,2.3808,2.3435,2.3286,2.3286,2.296,2.2837,2.296,0.0,0.0,0.0,0.0,0.0,0.0,0.0,0.0,0.0,0.0,0.0,0.0,0.0,0.0,0.0,0.0,0.0,0.0,0.0,0.0,0.0,0.0,0.0,4.0648,4.0519,4.0735,4.1476,4.1128,4.0792,4.0602,3.986,3.9361,3.9202,3.9404,3.9575,3.9542,4.0155,4.0524,4.0524,4.0524,4.0524,4.0524,4.0524,4.0185,3.9542,3.9388,3.8647,3.7361,3.7121,3.6725,3.6227,3.6227,3.643,3.6723,3.6739,3.6815,3.6906,3.6631,3.6523,3.6523,3.6523,3.6523,3.6554,3.6693,3.6739,3.6769,3.6906,3.6951,3.6951,3.6951,3.6951,3.6951,3.6951,3.6951,3.6951,3.6966,3.683,3.6754,3.6723,3.6631,3.6523,3.6523,3.6523,3.6445,3.6274,3.5671,3.5038,3.4369,3.4152,3.3785,3.2964,3.2149,0.0,3.0902,3.0142,2.9324,2.8449,2.8352,2.8072,2.7403,2.6804,2.6382,2.6244,2.5556,2.5141,2.5129,2.4432,2.406,2.406,2.3367,2.3201,2.3577,0.0,0.0,0.0,0.0,0.0,0.0,0.0,0.0,0.0,0.0,0.0,0.0,0.0,0.0,0.0,0.0,0.0,0.0,0.0,0.0,0.0,4.1976,4.2219,4.1062,4.1234,4.1771,4.2506,4.2409,4.2348,4.2594,4.2126,4.1612,4.1118,4.1047,4.0892,4.0593,4.0746,4.0854,4.0854,4.0854,4.0854,4.0854,4.0854,4.0761,4.0593,4.0062,3.9361,3.8523,3.7964,3.7344,3.6723,3.6952,3.7118,3.7238,3.7666,3.7899,3.7825,3.7087,3.6799,3.6799,3.6799,3.6921,3.7148,3.7178,3.749,3.787,3.7883,3.8084,3.8298,3.8298,3.8298,3.8298,3.8298,3.8298,3.8226,3.7969,3.7899,3.7754,3.7328,3.7178,3.7088,3.683,3.6799,3.6769,3.6723,3.6476,3.6087,3.5415,3.5257,3.4904,3.3962,3.3615,0.0,3.1689,3.1213,3.0571,2.9509,2.917,2.8803,2.8222,2.7944,2.747,2.6757,2.651,2.6184,2.5712,2.548,2.5371,2.5371,2.5185,2.5141,0.0,0.0,0.0,0.0,0.0,0.0,0.0,0.0,0.0,0.0,0.0,0.0,0.0,0.0,0.0,0.0,0.0,0.0,0.0,0.0,0.0,0.0,4.3294,4.3533,4.2663,4.2702,4.3047,4.367,4.3614,4.3554,4.3697,4.3339,4.2941,4.2459,4.2301,4.211,4.1884,4.1884,4.1884,4.1884,4.1884,4.1884,4.1884,4.1884,4.1884,4.1884,4.1341,4.0737,4.0055,3.9218,3.8506,3.793,3.7823,3.7899,3.81,3.8455,3.8634,0.0,0.0,0.0,0.0,0.0,3.7825,3.7985,3.8042,3.8298,3.8595,3.8662,3.8799,3.898,3.898,3.898,3.898,3.898,3.898,3.8925,3.8745,3.865,3.8495,3.8157,3.8014,3.7927,3.7738,3.7709,3.7634,3.7517,3.7415,0.0,3.6508,3.6117,3.5711,3.5143,3.4685,3.3943,3.2685,3.2117,3.1356,3.0125,2.9839,2.9498,2.8885,2.8771,0.0,0.0,0.0,2.7221,2.6474,2.6448,0.0,0.0,0.0,0.0,0.0,0.0,0.0,0.0,2.6,2.6388,0.0,0.0,0.0,0.0,0.0,0.0,0.0,0.0,0.0,0.0,0.0,0.0,0.0,0.0,0.0,0.0,4.4474,4.4974,4.4949,4.4644,4.4517,4.4828,4.4686,4.4463,4.4167,4.3889,4.3608,4.3366,4.3248,4.3157,4.3174,4.3174,0.0,0.0,0.0,4.3174,4.3174,4.3174,4.3174,4.3157,4.2834,4.2367,4.1683,4.0637,3.9927,3.9475,3.8748,3.8678,3.905,3.9077,3.9169,3.9259,3.8952,3.886,3.886,3.886,3.886,3.8887,3.9023,0.0,0.0,3.9232,3.9286,3.9312,3.9312,3.9312,3.9312,3.9312,3.9312,3.9286,3.9286,3.9195,3.9077,3.905,3.8969,3.8843,3.8745,3.8728,3.8619,3.8325,3.827,3.8117,3.7666,3.6891,3.6321,3.6258,3.5444,3.4529,3.3697,3.2901,3.193,3.0656,0.0,0.0,2.9608,2.9515,2.9404,2.9275,2.8899,2.8334,2.7566,2.7521,2.7297,2.6833,2.6819,2.7045,2.7521,2.7521,2.7935,2.8661,2.7662,2.7795,0.0,0.0,0.0,0.0,0.0,0.0,0.0,0.0,0.0,0.0,0.0,0.0,0.0,0.0,0.0,4.5555,4.6266,4.6717,4.6493,4.64,4.6097,4.5354,4.515,4.4906,4.4446,4.4361,4.4162,4.3726,4.3667,4.3608,4.3519,4.3489,4.3489,4.3489,4.3489,4.3489,4.3489,4.3489,4.3489,4.3489,0.0,0.0,4.2307,4.1511,4.0786,4.0177,3.9532,3.9325,3.9405,3.9642,3.979,3.9867,3.9339,3.9125,3.9125,3.9125,3.9239,3.9379,3.9379,3.9537,3.9729,3.9755,3.9858,3.9944,3.9944,3.9944,0.0,3.9944,3.9944,3.9893,3.9807,3.9755,3.9651,3.9458,3.9379,3.9159,3.8414,3.8256,3.823,3.816,3.8054,3.8127,3.8608,3.7841,3.7058,3.6646,3.5983,3.5199,3.4329,3.3626,3.2839,3.1942,3.1595,3.1349,3.1087,3.0733,3.0434,3.0253,2.9948,2.9721,2.9546,2.9532,2.9475,2.9393,2.9393,2.945,2.9532,2.9532,2.9633,2.9792,2.9224,2.9395,0.0,0.0,0.0,0.0,0.0,0.0,0.0,0.0,0.0,0.0,0.0,4.493,4.5703,0.0,4.6431,4.6847,4.724,4.745,4.7302,4.7236,4.6858,4.5895,4.5684,4.545,4.5106,4.4998,4.4862,4.4642,4.4597,4.4569,4.4513,4.4429,4.4401,4.4401,4.4333,4.4305,4.4305,4.4236,4.4207,4.4207,4.4035,4.3747,4.3347,4.2177,4.1494,4.1203,4.0153,3.9772,3.9926,4.0205,4.0337,4.0387,4.0154,3.9901,3.9644,3.9644,3.9713,3.9781,3.9781,3.9884,3.9986,3.9986,4.0062,4.0096,4.0188,4.0188,4.0238,4.0362,4.0387,4.0387,4.033,4.0305,4.023,3.9977,3.9901,3.9656,3.8748,3.8547,3.8522,3.8445,3.8394,3.855,3.9166,3.8805,3.8214,3.7608,3.6641,3.5716,3.494,3.4128,3.3293,3.2502,3.2256,3.2061,3.1807,3.1451,3.119,3.0999,3.0718,3.0509,3.0448,3.0372,3.0357,3.0357,3.0357,3.0357,3.0357,3.0357,3.0387,3.0462,3.1011,3.1279,0.0,0.0,0.0,0.0,0.0,0.0,0.0,4.3686,4.4711,4.5022,4.5459,4.6057,4.6857,4.7052,4.73,4.7933,4.806,4.806,4.8019,4.7811,4.7363,4.6602,4.6315,4.6045,4.576,4.5771,4.5736,4.5701,4.5839,4.5926,4.5926,4.5665,4.5543,4.5543,4.5262,4.5113,4.5113,4.4978,4.4913,4.4896,4.4631,4.4519,4.4468,4.2861,4.2186,4.2219,4.073,4.0213,4.0461,4.0655,4.0776,4.0799,4.0918,4.0686,4.032,4.0271,4.0263,4.0263,4.0263,4.0263,4.0263,4.0263,4.0263,4.0288,4.0387,4.0412,4.0485,4.068,4.0793,4.0817,4.0817,4.0776,4.0704,4.0485,4.0412,4.0148,3.9125,3.8914,3.889,3.8785,3.8761,3.8974,3.9621,3.972,3.9415,3.8551,3.7291,3.6202,3.5641,3.4616,3.3673,3.3054,3.2911,3.2722,3.2351,3.2132,3.1908,3.1737,3.1451,3.1248,3.1116,3.0999,3.094,3.094,3.094,3.094,3.094,3.094,3.1073,3.1368,3.2659,3.2976,4.0744,4.1532,4.2371,4.3106,4.3362,4.3603,0.0,4.4563,4.5077,4.6525,4.6855,4.7167,4.7973,4.8688,4.9183,4.9293,4.9348,4.9345,4.9245,4.8585,4.801,4.765,4.7138,4.6631,4.6186,4.6715,4.7,4.6743,4.7387,4.7804,4.7804,4.71,4.6717,4.6717,4.5936,4.5529,4.5529,4.5415,4.5336,4.5336,4.531,4.5283,4.5214,4.3658,4.297,4.2909,4.1429,4.0847,4.0931,4.0954,4.1024,4.114,4.1163,4.114,4.1047,4.0894,4.0799,4.0799,4.0799,4.0799,4.0799,4.0799,4.0799,4.0799,4.084,4.0877,4.0931,4.0954,4.1047,4.114,4.114,4.1047,4.0954,4.0931,4.0877,4.0427,3.8957,3.8648,3.8648,3.8625,3.8625,3.9044,4.0343,4.0461,4.0054,3.9077,3.7738,3.6757,3.6496,3.5254,3.4381,3.43,3.4059,3.3688,3.3124,3.3044,3.2857,3.2504,3.2449,3.2367,3.2216,3.2216,3.2203,3.2203,3.2203,3.2203,3.2203,3.2203,3.2553,3.3209,3.393,3.3909,4.2591,4.3053,4.3402,4.3754,4.383,4.4034,4.4814,4.5318,4.5967,4.7148,4.7684,4.8237,4.9084,4.9433,4.978,5.024,5.031,5.0268,5.0228,4.9935,4.9636,4.9458,4.921,4.8688,4.775,4.7866,4.8152,4.8495,4.885,4.9028,4.9028,4.8119,4.7603,4.7603,4.6678,4.6186,4.6186,4.5963,4.5862,4.5862,4.5709,4.5632,4.558,4.4029,4.2833,4.199,4.1505,4.1318,4.1386,4.16,4.1735,4.1796,4.1963,4.2005,4.1941,4.13,4.1088,4.1088,4.1088,4.1088,4.1088,4.1088,4.1088,4.1111,4.1267,4.1335,4.1408,4.1644,4.1753,4.1778,4.1778,4.1735,4.1644,4.1391,4.1318,4.0976,3.9745,3.9463,3.9463,3.9463,3.9463,3.9805,4.0804,4.0877,4.0645,4.0237,3.8883,3.7677,3.7077,3.6042,3.5201,3.4765,3.4546,3.4349,3.4093,3.3841,3.3636,3.3481,3.3124,3.2911,3.2873,3.2738,3.2641,3.2641,3.2641,3.2641,3.2641,3.2641,3.3013,3.3743,3.455,3.5036,4.405,4.4185,4.417,4.4121,4.4106,4.437,4.5385,4.6027,4.6719,4.7796,4.8395,4.8973,4.9842,5.0084,5.0415,5.1227,5.1295,5.1236,5.1236,5.0993,5.0785,5.0686,5.0664,5.0394,4.9676,4.9426,4.9528,5.01,5.0335,5.0438,5.0438,4.9526,4.8895,4.868,4.7681,4.7084,4.6847,4.6619,4.6483,4.6483,4.6315,4.6217,4.6165,4.4595,4.3031,4.1596,4.1805,4.1892,4.1917,4.2216,4.2358,4.2418,4.2611,4.267,4.2611,4.1924,4.1622,4.1596,4.1596,4.1596,4.1596,4.1596,4.1596,4.1618,4.1827,4.1892,4.1959,4.2257,4.236,4.2398,4.2398,4.2378,4.2257,4.198,4.1892,4.1615,4.0658,4.0461,4.0461,4.0461,4.0461,4.0664,4.1367,4.1401,4.1305,4.1186,4.0165,3.9001,3.7812,3.6726,3.582,3.5161,3.5001,3.4906,3.4828,3.4546,3.4349,3.4275,3.3841,3.361,3.3559,3.3387,3.3266,3.3266,3.3266,3.3266,3.3266,3.3456,3.3942,3.4671,3.5557,3.6398,4.4667,4.4685,4.464,4.443,4.4402,4.4791,4.6314,4.666,4.7146,4.8714,4.9021,4.9233,5.0051,5.0783,5.1528,5.2401,5.2437,5.2361,5.2361,5.1522,5.0906,5.0888,5.0826,5.1096,5.1828,5.1532,5.131,5.1249,5.1896,5.2312,5.2312,5.1606,5.085,5.0071,4.9129,4.8269,4.7468,4.7341,4.7258,4.7258,4.7258,4.7258,4.7204,4.5584,4.4004,4.257,4.257,4.2611,4.2673,4.2692,4.275,4.2882,4.2882,4.2882,4.2882,4.2863,4.271,4.257,4.257,4.257,4.257,4.257,4.257,4.257,4.257,4.2631,4.2673,4.2674,4.2769,4.2882,4.2882,4.2769,4.2674,4.2673,4.2613,4.2336,4.1529,4.1369,4.1369,4.1369,4.1369,4.1543,4.2073,4.2157,4.2029,4.1631,4.1542,4.0787,3.8812,3.7192,3.6048,3.5622,3.5577,3.5441,3.5128,3.5065,3.497,3.4691,3.4667,3.4594,3.4472,3.4448,3.4448,3.4448,3.4448,3.4448,3.4448,3.5185,3.5847,3.6542,3.7271,3.8089,4.4986,4.4974,4.4943,4.4869,4.4857,4.5281,4.6934,4.7195,4.7579,4.9221,4.9476,4.9821,5.1211,5.1549,5.2085,5.3488,5.3569,5.3442,5.3386,5.3107,5.2845,5.271,5.2671,5.2721,5.2854,5.2208,5.2008,5.2513,5.2787,5.2934,5.2934,5.2101,5.1277,5.0453,4.9528,4.8647,4.7847,4.7708,4.7627,4.7627,4.7578,4.7012,4.5947,4.5405,4.4305,4.2805,4.288,4.2955,4.2975,4.3105,4.3196,4.3251,4.3286,4.3304,4.3304,4.3304,4.325,4.316,4.29,4.2805,4.2805,4.2805,4.2805,4.2824,4.2899,4.2955,4.2994,4.3123,4.3196,4.3214,4.3214,4.3196,4.3142,4.2994,4.2955,4.2827,4.2463,4.2408,4.2408,4.2408,4.2408,4.2443,4.2619,4.2577,4.2476,4.229,4.1325,4.0167,3.8947,3.7815,3.6895,3.6264,3.6127,3.6023,3.5915,3.5761,3.5667,3.556,3.5258,3.5065,3.5018,3.4875,3.478,3.478,3.478,3.5011,3.5497,3.5729,3.6472,3.7652,3.8004,3.8569,4.5227,4.5216,4.5205,4.5203,4.5203,4.5554,4.6904,4.7348,4.7877,4.9227,4.9667,5.0231,5.1599,5.1971,5.2537,5.3899,5.4223,5.4277,5.4228,5.4124,5.3999,5.387,5.3776,5.3661,5.3524,5.2999,5.2803,5.317,5.3185,5.3185,5.3185,5.2629,5.1799,5.0719,5.0088,4.9245,4.813,4.8014,4.8014,4.8053,4.801,4.7171,4.5661,4.5661,4.4784,4.3285,4.3375,4.3428,4.3428,4.3566,4.3601,4.3584,4.3634,4.36,4.3549,4.3549,4.3513,4.3462,4.3196,4.3105,4.3105,4.3105,4.3105,4.3142,4.3233,4.3251,4.3269,4.3394,4.3429,4.3429,4.3429,4.3429,4.3411,4.3269,4.3251,4.3233,4.3142,4.3105,4.3105,4.3105,4.3105,4.3123,4.3068,4.2957,4.2824,4.2785,4.1826,4.0771,3.9807,3.8687,3.7761,3.7143,3.6748,3.6492,3.6409,3.6301,3.6195,3.617,3.5844,3.5661,3.5633,3.5367,3.5211,3.5211,3.5472,3.5799,3.6291,3.6809,3.7561,3.8513,3.8908,3.9328,4.5419,4.5419,4.54,4.5409,4.5418,4.5609,4.636,4.7199,4.8028,4.885,4.9656,5.0448,5.1274,5.2063,5.288,5.3685,5.4378,5.4821,5.4821,5.4544,5.433,5.4332,5.4106,5.3926,5.3907,5.3851,5.3678,5.3251,5.3227,5.3227,5.3227,5.3191,5.2438,5.0877,5.0805,4.9978,4.8343,4.8325,4.8401,4.8531,4.8513,4.7738,4.6322,4.6322,4.5482,4.402,4.402,4.402,4.402,4.402,4.3974,4.3913,4.3913,4.3781,4.3632,4.3615,4.3582,4.3532,4.3532,4.3496,4.3515,4.3515,4.3515,4.3515,4.3515,4.3496,4.3515,4.3515,4.3496,4.3513,4.3513,4.3513,4.3532,4.3532,4.3532,4.3513,4.3513,4.3513,4.3532,4.3515,4.3496,4.348,4.3429,4.3251,4.3123,4.3123,4.3012,4.2498,4.1282,3.9793,3.8676,3.8269,3.7486,3.693,3.6728,3.6673,3.665,3.6599,3.6475,3.6387,3.635,3.609,3.5958,3.5941,3.6582,3.6926,3.6937,3.8343,3.9054,3.9122,3.994,4.033,4.5631,4.5586,4.555,4.5541,4.556,4.5763,4.6608,4.7395,4.819,4.9053,4.9854,5.0664,5.1476,5.2291,5.3103,5.3963,5.4689,5.5157,5.5116,5.5028,5.4899,5.47,5.4623,5.446,5.421,5.4177,5.4071,5.3833,5.3699,5.3658,5.3658,5.3084,5.2287,5.1194,5.0583,4.9787,4.8768,4.875,4.875,4.8804,4.8838,4.8053,4.6541,4.6587,4.5687,4.4151,4.4151,4.4151,4.4151,4.4151,4.4136,4.4121,4.4064,4.4017,4.3971,4.3926,4.3894,4.3878,4.3878,4.3716,4.3515,4.3515,4.3515,4.3515,4.3515,4.3531,4.3565,4.3565,4.3666,4.38,4.38,4.3849,4.3878,4.3878,4.3878,4.3862,4.3816,4.38,4.3751,4.3599,4.3531,4.3479,4.348,4.3428,4.3393,4.3393,4.3375,4.2904,4.1703,4.114,4.0579,3.9893,3.8993,3.8454,3.8398,3.7714,3.7513,3.8096,3.7837,3.7857,3.8345,3.8144,3.7991,3.7902,3.8047,3.8402,3.8946,3.9341,3.9821,4.0429,4.0642,4.0769,4.5746,4.569,4.564,4.564,4.5631,4.5729,4.622,4.7222,4.8174,4.8673,4.9749,5.0727,5.1188,5.2231,5.3187,5.3686,5.4702,5.542,5.5376,5.5314,5.5236,5.5083,5.5014,5.4895,5.4716,5.4654,5.4607,5.4493,5.4105,5.3889,5.3889,5.3125,5.2306,5.1468,5.0613,4.9793,4.8991,4.8991,4.9025,4.9127,4.9176,4.8581,4.7477,4.7126,4.6299,4.5087,4.4748,4.4584,4.4584,4.4584,4.4562,4.4508,4.4467,4.4351,4.4236,4.4177,4.4136,4.4094,4.4094,4.3952,4.3812,4.3749,4.3716,4.3716,4.3716,4.3749,4.3781,4.3812,4.3892,4.3989,4.4017,4.4064,4.4094,4.4094,4.4094,4.4079,4.4033,4.402,4.3942,4.3765,4.3701,4.3651,4.3548,4.3531,4.3531,4.3496,4.3515,4.3245,4.2594,4.2123,4.1651,4.1125,4.0275,3.9733,3.9698,3.9175,3.9031,3.9407,3.9161,3.9124,3.9428,3.9172,3.8981,3.8916,3.9138,3.9453,3.9881,4.0187,4.0585,4.1018,4.1152,4.1198,4.5831,4.5777,4.5714,4.5726,4.5673,4.562,4.562,4.6912,4.8115,4.8115,4.95,5.0712,5.0712,5.2068,5.3203,5.3203,5.4564,5.5607,5.5607,5.5516,5.5444,5.5432,5.5314,5.5255,5.5242,5.5176,5.5135,5.5121,5.4541,5.4156,5.4157,5.3278,5.236,5.1443,5.0677,4.9928,4.9249,4.923,4.9312,4.9488,4.9503,4.9197,4.8624,4.7751,4.6991,4.6291,4.5479,4.5125,4.5125,4.5125,4.5068,4.4943,4.4931,4.4758,4.4511,4.4498,4.4416,4.4322,4.4322,4.4322,4.4279,4.4094,4.4036,4.4036,4.4036,4.4033,4.4064,4.4121,4.4166,4.4225,4.4283,4.4308,4.4322,4.4322,4.4322,4.4308,4.4294,4.4206,4.4124,4.3989,4.3926,4.3881,4.3699,4.3649,4.3615,4.3548,4.3513,4.3496,4.3496,4.284,4.2316,4.214,4.1376,4.0886,4.0816,4.0707,4.0654,4.0637,4.0455,4.0342,4.0299,3.9964,3.9741,3.9738,4.02,4.0442,4.0442,4.1063,4.1391,4.1373,4.1631,4.1736,4.5896,4.5874,4.5852,4.5805,4.5769,4.5777,4.5777,4.7025,4.8179,4.8179,4.9538,5.0712,5.0712,5.2068,5.3203,5.3203,5.4596,5.5673,5.5673,5.5651,5.5618,5.5573,5.5551,5.5492,5.5383,5.5358,5.5333,5.5268,5.5157,5.5028,5.4933,5.3457,5.1939,5.0407,5.0218,5.0066,4.9933,4.9933,4.9927,4.9973,5.0019,4.9644,4.8817,4.8052,4.7258,4.6413,4.56,0.0,4.5275,4.5275,4.5246,4.5233,4.517,4.5106,4.5042,4.4995,4.496,4.4936,4.4936,4.4936,4.4864,4.4336,4.4166,4.4166,4.4166,4.425,4.4332,4.4346,4.4544,4.4751,4.4783,4.4852,4.4936,4.4936,4.4936,4.4912,4.4802,4.4544,4.4346,4.4318,4.4177,4.4064,4.4033,4.3926,4.3849,4.3832,4.3701,4.3582,4.3582,4.3403,4.326,4.3225,4.2493,4.2017,4.2018,4.1347,4.1204,4.1863,4.1705,4.1832,4.2354,4.2219,4.2083,4.202,4.2105,4.2157,4.2157,4.23,4.2371,4.2371,4.2391,4.243,4.6011,4.5988,4.5935,4.5917,4.588,4.5955,4.6378,4.7372,4.8339,4.8775,4.9855,5.0712,5.0712,5.2068,5.3203,5.3203,5.4607,5.5703,5.5703,5.5703,5.5692,5.5671,5.564,5.5618,5.5562,5.5551,5.5539,5.5516,5.5504,5.542,5.5216,5.3614,5.1954,5.0264,5.0207,5.0207,5.0207,5.0207,5.0219,5.0255,5.029,5.0126,4.9754,4.8952,4.8121,4.7289,4.6484,4.587,4.5448,4.5448,4.5438,4.5409,4.5361,4.5339,4.5307,4.5275,4.5224,4.5203,4.5203,4.5203,4.5159,4.4869,4.4732,4.4681,4.4681,4.4701,4.4764,4.4801,4.4936,4.5049,4.5103,4.5159,4.5203,4.5203,4.5203,4.5181,4.508,4.4936,4.4795,4.4694,4.4589,4.4467,4.4294,4.4192,4.4121,4.4036,4.3923,4.3844,4.3814,4.3749,4.3649,4.3496,4.3149,4.291,4.291,4.2546,4.2474,4.2842,4.2756,4.2832,4.3142,4.3012,4.2899,4.286,4.2804,4.2767,4.2767,4.2767,4.2767,4.2767,4.2823,4.286,4.6147,4.6076,4.6036,4.6032,4.6133,4.6389,4.7004,4.7869,4.8704,4.9378,5.0143,5.0702,5.0693,5.2068,5.3203,5.3203,5.4607,5.5703,5.5703,5.5703,5.5703,5.5703,5.5703,5.5703,5.5703,5.5703,5.5703,5.5703,5.5703,5.5454,5.4879,5.3597,5.2123,5.0439,5.0382,5.0382,5.0382,5.0382,5.0404,5.0468,5.0468,5.0511,5.0585,4.971,4.8866,4.8067,4.7259,4.6413,4.5594,4.5594,4.5568,4.5513,4.5513,4.5486,4.5438,4.5438,4.5409,4.535,4.535,4.535,4.535,4.535,4.5256,4.5148,4.5148,4.5159,4.517,4.5224,4.5256,4.5277,4.5329,4.535,4.535,4.535,4.535,4.5329,4.5277,4.5256,4.5192,4.5045,4.4979,4.4876,4.4623,4.4538,4.4443,4.4298,4.421,4.4151,4.4075,4.4002,4.3878,4.3666,4.3565,4.3513,4.3513,4.3515,4.3515,4.3515,4.3464,4.3411,4.3411,4.3269,4.3196,4.3196,4.3068,4.3013,4.3013,4.3013,4.3013,4.3032,4.3142,4.3196,4.622,4.6186,4.6172,4.6178,4.6736,4.7276,4.7286,4.8454,4.9579,4.9583,5.0177,5.0702,5.0693,5.2068,5.3203,5.3203,5.4607,5.5703,5.5703,5.5703,5.5703,5.5703,5.5703,5.5703,5.5703,5.5703,5.5703,5.5703,5.5703,5.5019,5.3479,5.3248,5.2403,5.0721,5.0663,5.0663,5.0663,5.0663,5.0663,5.0663,5.0663,5.0673,5.0664,4.9798,4.8923,4.8067,4.7259,4.6413,0.0,4.5594,4.5605,4.5586,4.5586,4.5577,4.5577,4.5577,4.5568,4.5568,4.5568,4.5568,4.5568,4.5568,4.5438,4.5286,4.5286,4.5328,4.5369,4.5388,4.5419,4.5476,4.5476,4.5532,4.5568,4.5568,4.5532,4.5476,4.5476,4.5419,4.5388,4.5348,4.5265,4.517,4.5129,4.4979,4.4858,4.4833,4.4557,4.4374,4.4355,4.4265,4.4151,4.4045,4.3763,4.3582,4.3582,4.3549,4.3515,4.3515,4.3479,4.3497,4.3497,4.348,4.3463,4.3463,4.3444,4.3444,4.3444,4.3444,4.3444,4.3463,4.3463,4.3463,4.6906,4.7036,4.7162,4.7647,4.8013,4.8363,4.8811,4.9367,4.9892,5.0344,5.0621,5.0757,5.0702,5.2068,5.3203,5.3203,5.4607,5.5703,5.5703,5.5703,5.5703,5.5703,5.5703,5.5703,5.5703,5.5703,5.5703,5.5703,5.5703,5.4972,5.3299,5.3203,5.2433,5.075,5.0712,5.0712,5.0712,5.0712,5.0712,5.0712,5.0712,5.0712,5.0693,5.0346,4.9702,4.8836,4.799,4.7144,0.0,4.5825,4.5594,4.5594,4.5594,4.5594,4.5594,4.5594,4.5594,4.5594,4.5594,4.5594,4.5594,4.5594,4.5541,4.5477,4.5477,4.5486,4.5524,4.5524,4.5532,4.5568,4.5568,4.5577,4.5594,4.5594,4.5577,4.5568,4.5568,4.5532,4.5515,4.5467,4.5429,4.538,4.5328,4.5246,4.517,4.5103,4.4972,4.4869,4.4833,4.4707,4.4602,4.4576,4.4181,4.3892,4.3828,4.3814,4.3781,4.3751,4.3751,4.3718,4.3686,4.3686,4.3634,4.3548,4.3548,4.3531,4.3515,4.3515,4.3515,4.3515,4.3515,4.3515,4.7421,4.7789,4.8118,4.8684,4.9023,4.935,4.99,5.0146,5.0386,5.0927,5.0948,5.0836,5.0757,5.2107,5.3223,5.3203,5.4607,5.5703,5.5703,5.5703,5.5703,5.5703,5.5703,5.5703,5.5703,5.5703,5.5703,5.5703,5.5703,5.4972,5.3299,5.3203,5.2433,5.075,5.0712,5.0712,5.0712,5.0712,5.0712,5.0712,5.0712,5.0712,5.0712,5.0712,5.0221,4.9375,4.8759,4.8029,0.0,4.6336,4.597,4.5951,4.571,4.5594,4.5594,4.5594,4.5594,4.5594,4.5594,4.5594,4.5594,4.5594,4.5594,4.5594,4.5594,4.5594,4.5594,4.5594,4.5594,4.5594,4.5594,4.5594,4.5594,4.5594,4.5594,4.5594,4.5594,4.5594,4.5586,4.555,4.5522,4.5504,4.5467,4.5438,4.5409,4.529,4.5267,4.5235,4.5192,4.5091,4.5003,4.4979,4.4655,4.4336,4.4136,4.4094,4.4033,4.3989,4.3989,4.3961,4.3881,4.3899,4.3832,4.3716,4.3716,4.3682,4.3634,4.3634,4.36,4.3513,4.3513,4.3513,4.7598,4.8223,4.8887,4.8906,4.955,5.0171,5.0112,5.07,5.1242,5.1114,5.1043,5.0948,5.0827,5.2164,5.3282,5.3213,5.4607,5.5703,5.5703,5.5703,5.5703,5.5703,5.5703,5.5703,5.5703,5.5703,5.5703,5.5703,5.5703,5.4972,5.3299,5.3203,5.2433,5.075,5.0712,5.0712,5.0712,5.0712,5.0712,5.0712,5.0712,5.0712,5.0712,5.0712,5.0221,4.9394,4.9394,4.8894,0.0,4.7221,4.6885,4.6797,4.5932,4.5594,4.5594,4.5594,4.5594,4.5594,4.5594,4.5594,4.5594,4.5594,4.5594,4.5594,4.5594,4.5594,4.5594,4.5594,4.5594,4.5594,4.5594,4.5594,4.5594,4.5594,4.5594,4.5594,4.5594,4.5594,4.5594,4.5594,4.5594,4.5594,4.5594,4.5531,4.5495,4.5495,4.5429,4.5408,4.5398,4.5338,4.5275,4.5203,4.5192,4.4984,4.4425,4.426,4.4192,4.4192,4.4192,4.4181,4.4091,4.4109,4.4064,4.4005,4.4005,4.3958,4.3915,4.3915,4.38,4.3599,4.3599,4.3565,4.832,4.9121,4.9922,5.0469,5.082,5.1012,5.0985,5.1197,5.1349,5.1256,5.1159,5.1224,5.1729,5.2716,5.3604,5.4136,5.517,5.5903,5.5903,5.5903,5.5903,5.5903,5.5903,5.5903,5.5903,5.5903,5.5903,5.5903,5.5903,5.517,5.349,5.3357,5.253,5.075,5.0712,5.0712,5.0712,5.0712,5.0712,5.0712,5.0712,5.0712,5.0712,5.0712,5.0558,5.0269,4.9663,4.924,4.8913,4.8067,4.7721,4.7702,4.7413,4.6971,4.649,4.649,4.6105,4.5594,4.5594,4.5594,4.5594,4.5594,4.5594,4.5594,4.5594,4.5594,4.5594,4.5594,4.5594,4.5594,4.5594,4.5594,4.5594,4.5594,4.5594,4.5594,4.5594,4.5594,4.5594,4.5594,4.5594,4.5594,4.5594,4.5577,4.5568,4.5568,4.5541,4.5542,4.5542,4.5477,4.5419,4.541,4.536,4.5213,4.4893,4.4833,4.4789,4.4668,4.4687,4.4635,4.45,4.45,4.4444,4.4279,4.426,4.4221,4.4091,4.4064,4.3958,4.3816,4.3816,4.3734,4.9141,5.0019,5.0762,5.1269,5.1406,5.1405,5.1402,5.1391,5.1388,5.1346,5.1241,5.1419,5.2188,5.2995,5.3797,5.4607,5.5462,5.6043,5.6043,5.6043,5.6043,5.6043,5.6043,5.6043,5.6043,5.6043,5.6043,5.6043,5.6043,5.5307,5.3584,5.3464,5.2633,5.0876,5.0767,5.075,5.075,5.0702,5.0693,5.0693,5.0693,5.0693,5.0693,5.074,5.075,5.0711,5.0144,4.9884,0.0,4.8961,4.8586,4.8567,4.824,4.7798,4.7355,4.7355,4.6817,4.6086,4.6086,4.5883,4.5594,4.5594,4.5594,4.5594,4.5594,4.5594,4.5594,4.5594,4.5594,4.5594,4.5594,4.5594,4.5594,4.5594,4.5594,4.5594,4.5594,4.5594,4.5594,4.5594,4.5594,4.5594,4.5594,4.5594,4.5594,4.5594,4.5594,4.5594,4.5594,4.5568,4.555,4.555,4.5495,4.5419,4.529,4.5224,4.5148,4.5068,4.5057,4.4991,4.4883,4.4883,4.4814,4.4675,4.4656,4.4597,4.4448,4.4294,4.4181,4.4094,4.402,4.391,0.0,5.082,5.1406,5.1406,5.1406,5.1406,5.1405,5.1402,0.0,5.1408,5.1341,5.1549,5.2358,5.3127,5.3915,5.4768,5.5596,5.6112,5.6112,5.6112,5.6112,5.6112,5.6112,5.6112,5.6112,5.6112,5.6112,5.6112,5.6054,5.5297,5.361,5.3467,5.2692,5.1063,5.0887,5.0808,5.081,5.0738,5.071,5.071,5.071,5.072,5.072,5.0793,5.081,0.0,5.0738,5.072,5.0653,4.9836,4.9509,4.9432,4.8596,4.824,4.8202,4.8182,4.7682,4.699,4.699,4.6422,4.5699,4.5622,4.5603,4.5603,4.5603,4.5594,4.5594,4.5594,4.5594,4.5594,4.5594,4.5594,4.5594,4.5594,4.5594,4.5594,4.5594,4.5594,4.5594,4.5594,4.5594,4.5594,4.5594,4.5594,4.5594,4.5594,4.5594,4.5594,4.5594,4.5594,4.5594,4.5594,4.5594,4.5594,4.5594,4.5419,4.5328,4.5298,4.5298,4.5277,4.5213,4.5213,4.5192,4.5125,4.5125,4.5057,4.4919,4.461,4.4457,4.443,4.4236,4.4136,5.0703,0.0,5.1406,5.1406,5.1406,5.1406,0.0,5.1405,5.1402,5.1394,5.1398,5.1823,5.328,5.3708,5.4317,5.5786,5.6195,5.6327,5.6327,5.6327,5.6327,5.6327,5.6327,5.6327,5.6327,5.6327,5.6327,5.6327,5.5704,5.4885,5.3857,5.3121,5.2242,5.1191,5.1131,5.105,5.0948,5.0901,5.0858,5.0858,5.0858,5.0874,5.0933,5.0941,5.0948,5.0948,5.0933,5.0909,5.083,5.0643,5.0548,5.052,5.0209,4.972,4.9152,4.9096,4.8595,4.7899,4.7899,4.7366,4.6563,4.5888,4.5676,4.5676,4.5676,4.5646,4.5594,4.5594,4.5594,4.5594,4.5594,4.5594,4.5594,4.5594,4.5594,4.5594,4.5594,4.5594,4.5594,4.5594,4.5594,4.5594,4.5594,4.5594,4.5594,4.5594,4.5594,4.5594,4.5594,4.5594,4.5594,4.5594,4.5594,4.5594,4.5594,4.555,4.5505,4.5448,4.5448,4.5429,4.5351,4.5351,4.5341,4.5328,4.5286,4.5203,4.5136,4.5061,4.4936,4.4777,4.4739,4.4576,5.0937,5.1406,5.1406,5.1406,5.1406,5.1406,5.1406,5.1406,5.1405,5.1402,5.1397,5.1917,5.362,5.3945,5.4484,5.6174,5.6447,5.6447,5.6447,5.6447,5.6447,5.6447,5.6447,5.6447,5.6447,5.6447,5.6447,5.6447,5.5645,5.4786,5.3989,5.3094,5.2188,5.131,5.1268,5.12,5.1094,5.1037,5.099,5.099,5.099,5.1004,5.1043,5.1076,5.1088,5.1088,5.1056,5.103,5.0983,5.0952,5.0952,5.0937,5.0869,5.0546,5.0135,5.0098,4.9566,4.8839,4.8839,4.8314,4.7565,4.7086,4.666,4.6351,4.6332,4.6036,4.5684,4.5646,4.5631,4.5594,4.5594,4.5594,4.5594,4.5594,4.5594,4.5594,4.5594,4.5594,4.5594,4.5594,4.5594,4.5594,4.5594,4.5594,4.5594,4.5594,4.5594,4.5594,4.5594,4.5594,4.5594,4.5594,4.5594,4.5594,4.5594,4.5594,4.5586,4.5559,4.555,4.5522,4.5495,4.5495,4.5485,4.5496,4.5419,4.5361,4.533,4.5298,4.5243,4.5125,4.508,4.4936,5.0781,5.1308,5.1406,5.1406,5.1406,5.1406,5.1406,5.1406,5.1406,5.1405,5.1503,5.2087,5.37,5.4108,5.4711,5.6265,5.6518,5.6518,5.6518,5.6518,5.6518,5.6518,5.6518,5.6518,5.6518,5.6518,5.6458,5.6321,5.5501,5.4662,5.3844,5.2981,5.2161,5.1421,5.1334,5.128,5.1237,5.1157,5.1125,5.1125,5.1125,5.1125,5.1136,5.1201,5.1219,5.1215,5.1152,0.0,5.1139,5.1056,5.103,5.1023,5.1022,5.0974,5.0937,5.0921,5.0445,4.9809,4.9688,4.9192,4.8618,4.847,4.7934,4.7333,4.732,4.681,4.6208,4.6144,4.5883,4.5622,4.5622,4.5614,4.5594,4.5594,4.5594,4.5594,4.5594,4.5594,4.5594,4.5594,4.5594,4.5594,4.5594,4.5594,4.5594,4.5594,4.5594,4.5594,4.5594,4.5594,4.5594,4.5594,4.5594,4.5594,4.5594,4.5594,4.5594,4.5594,4.5594,4.5594,4.5594,4.5594,4.5594,4.5594,4.5531,4.5513,4.5513,4.5467,4.5438,4.5409,4.5298,4.5235,5.0117,5.0879,5.1406,5.1406,5.1406,5.1406,5.1406,5.1406,5.1406,5.1406,5.1992,5.2812,5.3808,5.4609,5.5429,5.6425,5.6581,5.6581,5.6581,5.6581,5.6581,5.6581,5.6581,5.6581,5.6581,5.6581,5.6288,5.5546,5.4687,5.3808,5.2948,5.2068,5.1539,5.1402,5.1397,5.1372,5.1366,5.1302,5.1271,5.1271,5.1271,5.1262,5.1277,5.1283,5.1283,5.1283,0.0,5.1268,5.1252,5.121,5.117,5.1156,5.1103,5.1075,5.1063,5.1004,5.0946,5.0771,5.009,4.9761,4.9547,4.8818,4.8487,4.837,4.8375,4.8238,4.8091,4.8069,4.6914,4.5673,4.5673,4.564,4.5594,4.5594,4.5594,4.5594,4.5594,4.5594,4.5594,4.5594,4.5594,4.5594,4.5594,4.5594,4.5594,4.5594,4.5594,4.5594,4.5594,4.5594,4.5594,4.5594,4.5594,4.5594,4.5594,4.5594,4.5594,4.5594,4.5594,4.5594,4.5594,4.5594,4.5594,4.5594,4.5586,4.5586,4.5586,4.5568,4.5541,4.5476,4.5457,4.5429,4.9961,5.0781,5.1406,5.1406,5.1406,5.1406,5.1406,5.1758,5.2109,5.2109,5.2793,5.3672,5.4531,5.5039,5.5586,5.6465,5.6601,5.6601,5.6601,5.6601,5.6601,5.6601,5.6601,5.6601,5.6601,5.6172,5.5723,5.5332,5.4062,5.3125,5.2715,5.1875,5.1406,5.1406,5.1405,5.1405,5.1405,5.1378,5.1346,5.1349,5.1349,5.1353,5.1359,5.1343,5.1345,5.1345,0.0,5.1355,5.1349,5.1327,5.1297,5.1245,5.1211,5.1206,5.1194,5.1171,5.1176,5.1159,5.0774,5.0665,5.0591,5.0196,4.9767,4.9416,4.9419,4.9021,4.8611,4.8608,4.7914,4.7156,4.7105,4.7056,4.688,4.6399,4.6305,4.6163,4.571,4.5594,4.5594,4.5594,4.5594,4.5594,4.5594,4.5594,4.5594,4.5594,4.5594,4.5594,4.5594,4.5594,4.5594,4.5594,4.5594,4.5594,4.5594,4.5594,4.5594,4.5594,4.5594,4.5594,4.5594,4.5594,4.5594,4.5594,4.5594,4.5594,4.5594,4.5594,4.5577,4.5559,4.5559,4.5532,4.9668,5.0488,5.1152,5.1348,5.1406,5.1445,5.166,5.2226,5.2754,5.2969,5.3691,5.4512,5.5176,5.5469,5.582,5.6484,5.6601,5.6601,5.6601,5.6601,5.6601,5.6601,5.6601,5.6601,5.6601,5.5801,5.5215,5.5019,5.3574,5.2617,5.2402,5.1758,5.1406,5.1406,5.1406,5.1406,5.1406,5.1406,5.1405,5.1396,5.1396,5.1396,5.1396,5.14,5.1402,5.1402,5.1398,5.1396,5.1396,5.1408,5.1363,5.1316,5.131,5.1321,5.1327,5.1311,5.1313,5.1313,5.1316,5.1316,5.1318,5.133,5.0902,5.0395,5.0397,4.9896,4.9327,4.9331,4.9202,4.8968,4.8464,4.8287,4.805,4.7358,4.718,4.7009,4.6336,4.6191,4.6191,4.6191,4.6191,4.6191,4.6191,4.6191,4.6191,4.6191,4.6191,4.6191,4.6191,4.6191,4.6105,4.5913,4.5893,4.5893,4.5893,4.5893,4.597,4.6172,4.5825,4.5594,4.5594,4.5594,4.5594,4.5594,4.5594,4.5594,4.5594,4.5594,4.5594,4.5594,4.5594,4.571,4.8769,4.9629,5.0469,5.1211,5.1406,5.1601,5.2422,5.2656,5.293,5.373,5.4609,5.5234,5.5293,5.5957,5.6523,5.6582,5.6601,5.6601,5.6601,5.6601,5.6601,5.6601,5.6601,5.6601,5.6601,5.5801,5.4961,5.4141,5.3223,5.2344,5.1543,5.1426,5.1406,5.1406,5.1406,5.1406,5.1406,5.1406,5.1406,5.1406,5.1406,5.1406,5.1406,5.1406,5.1406,5.1406,5.1406,5.1406,5.1406,5.1405,5.1404,5.1384,5.1394,5.1382,5.1392,5.1384,5.1387,5.1389,5.1394,5.1396,5.1396,5.1396,5.1357,5.1318,5.1318,5.1256,5.1208,5.1219,5.1144,5.068,4.8947,4.8392,4.8257,4.8137,4.8065,4.8009,4.7932,4.7913,4.7913,4.7913,4.7913,4.7913,4.7913,4.7913,4.7913,4.7913,4.7913,4.7913,4.7913,4.7913,4.7625,4.6894,4.6817,4.6817,4.6817,4.6817,4.7124,4.7875,4.6451,4.5594,4.5594,4.5594,4.5594,4.5594,4.5594,4.5594,4.5594,4.5594,4.5594,4.5594,4.5594,4.6028,4.8652,4.9531,5.0391,5.1191,5.1406,5.1621,5.25,5.3125,5.3769,5.4629,5.5508,5.6113,5.6113,5.6387,5.6601,5.6601,5.6601,5.6601,5.6601,5.6601,5.6601,5.6601,5.6601,5.6387,5.584,5.5,5.4121,5.3262,5.2383,5.1758,5.1426,5.1406,5.1406,5.1406,5.1406,5.1406,5.1406,5.1406,5.1406,5.1406,5.1406,5.1406,5.1406,5.1406,5.1406,5.1406,5.1406,5.1406,5.1406,5.1406,5.1406,5.1406,5.1405,5.1403,5.1402,5.1403,5.1404,5.1404,5.1405,5.1405,5.1405,5.1405,5.1405,5.1405,5.1405,5.1404,5.14,5.1398,5.1379,5.119,5.0379,5.0079,4.9843,4.9274,4.9087,4.8857,4.8284,4.816,4.8142,4.8105,4.8105,4.8105,4.8105,4.8105,4.8105,4.8105,4.8105,4.8105,4.8105,4.8105,4.799,4.7682,4.7663,4.7663,4.7663,4.7663,4.7778,4.8086,4.7509,4.7144,4.7144,4.7144,4.7144,4.7144,4.7144,4.7144,4.7144,4.7144,4.7144,4.7144,4.7144,4.7336,4.8594,4.9336,5.0058,5.1133,5.1406,5.1699,5.2851,5.3574,5.4336,5.5469,5.6172,5.6601,5.6601,5.6601,5.6601,5.6601,5.6601,5.6601,5.6601,5.6601,5.6601,5.6601,5.6601,5.6269,5.5371,5.4512,5.3633,5.2773,5.1894,5.1406,5.1406,5.1406,5.1406,5.1406,5.1406,5.1406,5.1406,5.1406,5.1406,5.1406,5.1406,5.1406,5.1406,5.1406,5.1406,5.1406,5.1406,5.1406,5.1406,5.1406,5.1406,5.1406,5.1406,5.1406,5.1406,5.1406,5.1406,5.1406,5.1406,5.1406,5.1406,5.1406,5.1406,5.1406,5.1406,5.1406,5.1405,5.1405,5.1397,5.1373,5.1291,5.1152,5.0881,5.028,5.008,4.9861,4.9189,4.9039,4.9004,4.8931,4.8923,4.8913,4.8913,4.8913,4.8913,4.8913,4.8913,4.8913,4.8913,4.8913,4.8817,4.8548,4.8259,4.8221,4.849,4.8509,4.8625,4.8894,4.8913,4.8663,4.8125,4.8105,4.8105,4.8105,4.8105,4.8105,4.8105,4.8105,4.8105,4.8105,4.8105,4.8259,4.8437,4.8906,4.9316,5.0976,5.1406,5.1875,5.3594,5.4004,5.4492,5.623,5.6601,5.6601,5.6601,5.6601,5.6601,5.6601,5.6601,5.6601,5.6601,5.6601,5.6601,5.6601,5.6601,5.625,5.5371,5.4512,5.3633,5.2754,5.1894,5.1406,5.1406,5.1406,5.1406,5.1406,5.1406,5.1406,5.1406,5.1406,5.1406,5.1406,5.1406,5.1406,5.1406,5.1406,5.1406,5.1406,5.1406,5.1406,5.1406,5.1406,5.1406,5.1406,5.1406,5.1406,5.1406,5.1406,5.1406,5.1406,5.1406,5.1406,5.1406,5.1406,5.1406,5.1406,5.1406,5.1406,5.1406,5.1406,5.1406,5.1404,5.14,5.1249,5.1106,5.1092,5.105,5.0978,5.0914,5.0861,5.0784,5.071,5.0702,5.0712,5.0712,5.0712,5.0712,5.0712,5.0712,5.0712,5.0712,5.0712,5.0366,4.949,4.8644,4.8471,4.9336,4.9413,4.9779,5.0654,5.0712,4.9933,4.8202,4.8125,4.8125,4.8125,4.8125,4.8125,4.8125,4.8125,4.8125,4.8125,4.8125,4.8586,4.9336,4.9805,5.0078,5.1133,5.1855,5.2617,5.373,5.4004,5.4492,5.623,5.6601,5.6601,5.6601,5.6601,5.6601,5.6601,5.6601,5.6601,5.6601,5.6601,5.6601,5.6601,5.6601,5.6015,5.4531,5.4141,5.3379,5.1894,5.1543,5.1406,5.1406,5.1406,5.1406,5.1406,5.1406,5.1406,5.1406,5.1406,5.1406,5.1406,5.1406,5.1406,5.1406,5.1406,5.1406,5.1406,5.1406,5.1406,5.1406,5.1406,5.1406,5.1406,5.1406,5.1406,5.1406,5.1406,5.1406,5.1406,5.1406,5.1406,5.1406,5.1406,5.1406,5.1406,5.1406,5.1406,5.1406,5.1406,5.1406,5.1404,5.1404,5.1366,5.13,5.1242,5.1186,5.1109,5.0997,5.0921,5.0833,5.072,5.0702,5.0712,5.0712,5.0712,5.0712,5.0712,5.0712,5.0712,5.0712,5.0712,5.0596,5.0346,5.0067,5.0029,5.0289,5.0308,5.0423,5.0673,5.0712,5.0481,4.9952,4.9933,4.9933,4.9933,4.9933,4.9933,4.9933,4.9933,4.9933,4.9933,4.9933,5.0067,4.9824,5.0195,5.0391,5.1191,5.2051,5.3027,5.4238,5.4785,5.5332,5.6387,5.6601,5.6601,5.6601,5.6601,5.6601,5.6601,5.6601,5.6601,5.6601,5.6601,5.6601,5.6601,5.6601,5.6055,5.4648,5.4199,5.3418,5.2012,5.1601,5.1406,5.1406,5.1406,5.1406,5.1406,5.1406,5.1406,5.1406,5.1406,5.1406,5.1406,5.1406,5.1406,5.1406,5.1406,5.1406,5.1406,5.1406,5.1406,5.1406,5.1406,5.1406,5.1406,5.1406,5.1406,5.1406,5.1406,5.1406,5.1406,5.1406,5.1406,5.1406,5.1406,5.1406,5.1406,5.1406,5.1406,5.1406,5.1406,5.1406,5.1406,5.1406,5.1404,5.1395,5.1342,5.1281,5.1206,5.1095,5.1011,5.0917,5.081,5.074,5.0693,5.0693,5.0712,5.0712,5.0712,5.0712,5.0712,5.0712,5.0712,5.0712,5.0712,5.0712,5.0712,5.0712,5.0712,5.0712,5.0712,5.0712,5.0712,5.0712,5.0712,5.0712,5.0712,5.0712,5.0712,5.0712,5.0712,5.0712,5.0712,5.0712,5.0712,5.0078,5.0312,5.0508,5.1328,5.2226,5.3379,5.5039,5.6035,5.6601,5.6601,5.6601,5.6601,5.6601,5.6601,5.6601,5.6601,5.6601,5.6601,5.6601,5.6601,5.6601,5.6601,5.6601,5.6269,5.5371,5.4512,5.3633,5.2773,5.1894,5.1406,5.1406,5.1406,5.1406,5.1406,5.1406,5.1406,5.1406,5.1406,5.1406,5.1406,5.1406,5.1406,5.1406,5.1406,5.1406,5.1406,5.1406,5.1406,5.1406,5.1406,5.1406,5.1406,5.1406,5.1406,5.1406,5.1406,5.1406,5.1406,5.1406,5.1406,5.1406,5.1406,5.1406,5.1406,5.1406,5.1406,5.1406,5.1406,5.1406,5.1406,5.1406,5.1406,5.1406,5.1396,5.1351,5.1291,5.121,5.1097,5.0985,5.0929,5.0821,5.072,5.0702,5.0693,5.0693,5.0693,5.0712,5.0712,5.0712,5.0712,5.0712,5.0712,5.0712,5.0712,5.0712,5.0712,5.0712,5.0712,5.0712,5.0712,5.0712,5.0712,5.0712,5.0712,5.0712,5.0712,5.0712,5.0712,5.0712,5.0712,5.0712,5.0712,5.0918,5.1133,5.1348,5.2207,5.3594,5.5019,5.6074,5.6465,5.6601,5.6601,5.6601,5.6601,5.6601,5.6601,5.6601,5.6601,5.6601,5.6601,5.6601,5.6601,5.6601,5.6601,5.6601,5.6269,5.5371,5.4512,5.3633,5.2773,5.1894,5.1406,5.1406,5.1406,5.1406,5.1406,5.1406,5.1406,5.1406,5.1406,5.1406,5.1406,5.1406,5.1406,5.1406,5.1406,5.1406,5.1406,5.1406,5.1406,5.1406,5.1406,5.1406,5.1406,5.1406,5.1406,5.1406,5.1406,5.1406,5.1406,5.1406,5.1406,5.1406,5.1406,5.1406,5.1406,5.1406,5.1406,5.1406,5.1406,5.1406,5.1406,5.1406,5.1406,5.1406,5.1406,5.1397,5.1351,5.1297,5.1171,5.106,5.0993,5.0913,5.0829,5.072,5.0702,5.0692,5.0693,5.0712,5.0712,5.0712,5.0712,5.0712,5.0712,5.0712,5.0712,5.0712,5.0712,5.0712,5.0712,5.0712,5.0712,5.0712,5.0712,5.0712,5.0712,5.0712,5.0712,5.0712,5.0712,5.0712,5.0712,5.0712,5.0712,5.1172,5.1406,5.1719,5.3008,5.4316,5.5527,5.6406,5.6601,5.6601,5.6601,5.6601,5.6601,5.6601,5.6601,5.6601,5.6601,5.6601,5.6601,5.6601,5.6601,5.6601,5.6601,5.6601,5.6426,5.5976,5.5137,5.4433,5.3984,5.2754,5.2012,5.2012,5.1621,5.1406,5.1406,5.1406,5.1406,5.1406,5.1406,5.1406,5.1406,5.1406,5.1406,5.1406,5.1406,5.1406,5.1406,5.1406,5.1406,5.1406,5.1406,5.1406,5.1406,5.1406,5.1406,5.1406,5.1406,5.1406,5.1406,5.1406,5.1406,5.1406,5.1406,5.1406,5.1406,5.1406,5.1406,5.1406,5.1406,5.1406,5.1406,5.1406,5.1406,5.1406,5.1406,5.1404,5.1393,5.1357,5.1268,5.1171,5.1062,5.0997,5.091,5.0816,5.0747,5.0692,5.0702,5.0702,5.0712,5.0712,5.0712,5.0712,5.0712,5.0712,5.0712,5.0712,5.0712,5.0712,5.0712,5.0712,5.0712,5.0712,5.0712,5.0712,5.0712,5.0712,5.0712,5.0712,5.0712,5.0712,5.0712,5.0712,5.0712,5.1016,5.1406,5.2012,5.3594,5.4668,5.5527,5.6406,5.6601,5.6601,5.6601,5.6601,5.6601,5.6601,5.6601,5.6601,5.6601,5.6601,5.6601,5.6601,5.6601,5.6601,5.6601,5.6601,5.6601,5.6601,5.5801,5.5293,5.5293,5.3828,5.293,5.293,5.2109,5.1621,5.1621,5.1484,5.1406,5.1406,5.1406,5.1406,5.1406,5.1406,5.1406,5.1406,5.1406,5.1406,5.1406,5.1406,5.1406,5.1406,5.1406,5.1406,5.1406,5.1406,5.1406,5.1406,5.1406,5.1406,5.1406,5.1406,5.1406,5.1406,5.1406,5.1406,5.1406,5.1406,5.1406,5.1406,5.1406,5.1406,5.1406,5.1406,5.1406,5.1406,5.1406,5.1406,5.1403,5.1405,5.1362,5.1281,5.1167,5.1064,5.1037,5.1126,5.1037,5.0998,5.1124,5.1154,5.1145,5.1135,5.1135,5.1135,5.1135,5.1135,5.1135,5.1135,5.1135,5.1135,5.1135,5.1135,5.1048,5.0914,5.0914,5.0846,5.0712,5.0712,5.0712,5.0712,5.0712,5.0712,5.0712,5.0712,5.0712,5.0332,5.1426,5.2754,5.375,5.4668,5.5527,5.6406,5.6601,5.6601,5.6601,5.6601,5.6601,5.6601,5.6601,5.6601,5.6601,5.6601,5.6601,5.6601,5.6601,5.6601,5.6601,5.6601,5.6601,5.6601,5.5801,5.5293,5.5293,5.4375,5.3828,5.3828,5.3008,5.2539,5.2539,5.1797,5.1406,5.1406,5.1406,5.1406,5.1406,5.1406,5.1406,5.1406,5.1406,5.1406,5.1406,5.1406,5.1406,5.1406,5.1406,5.1406,5.1406,5.1406,5.1406,5.1406,5.1406,5.1406,5.1406,5.1406,5.1406,5.1406,5.1406,5.1406,5.1406,5.1406,5.1406,5.1406,5.1406,5.1406,5.1406,5.1406,5.1406,5.1406,5.1406,5.1406,5.1406,5.1398,5.1384,5.136,5.1291,5.1172,5.1314,5.1987,5.2043,5.2211,5.2866,5.2945,5.2935,5.2856,5.2876,5.2876,5.2876,5.2876,5.2876,5.2876,5.2876,5.2876,5.2876,5.2876,5.2529,5.1769,5.1731,5.1414,5.0712,5.0712,5.0712,5.0712,5.0712,5.0712,5.0712,5.0712,5.0712,4.9922,5.1426,5.291,5.3789,5.4668,5.5527,5.6406,5.6601,5.6601,5.6601,5.6601,5.6601,5.6601,5.6601,5.6601,5.6601,5.6601,5.6601,5.6601,5.6601,5.6601,5.6601,5.6601,5.6601,5.6601,5.625,5.6035,5.6035,5.5215,5.4726,5.4726,5.3906,5.3437,5.3437,5.3066,5.2617,5.2129,5.2129,5.2129,5.2129,5.2617,5.2851,5.2851,5.2851,5.2324,5.1406,5.1406,5.1406,5.1406,5.1406,5.1699,5.2129,5.2129,5.2422,5.2793,5.2305,5.2129,5.2051,5.1562,5.1406,5.1406,5.1406,5.1406,5.1406,5.1406,5.1406,5.1406,5.1406,5.1406,5.1406,5.1406,5.1758,5.2129,5.2129,5.25,5.2851,5.285,5.2475,5.2249,5.2669,5.2707,5.2772,5.3102,5.3023,5.3023,5.3301,5.332,5.3282,5.3203,5.3203,5.3203,5.3203,5.3203,5.3203,5.3203,5.3203,5.3203,5.3203,5.3203,5.3029,5.2635,5.2635,5.2472,5.2106,5.1183,5.0712,5.0712,5.0712,5.0712,5.0712,5.0712,5.0712,4.9726,5.1113,5.2324,5.3398,5.4316,5.5194,5.6073,5.6424,5.658,5.658,5.658,5.658,5.658,5.6581,5.6601,5.6601,5.6601,5.6601,5.6601,5.6601,5.6601,5.6601,5.6601,5.6601,5.6601,5.6601,5.6601,5.6601,5.5996,5.5625,5.5625,5.4805,5.4336,5.4336,5.4121,5.3691,5.3047,5.3027,5.3027,5.3047,5.3691,5.4004,5.4004,5.4004,5.3281,5.2051,5.2051,5.2051,5.2051,5.2051,5.2441,5.3027,5.3027,5.3437,5.3926,5.3262,5.3027,5.291,5.2031,5.1738,5.1699,5.1465,5.1406,5.1406,5.1406,5.1543,5.1738,5.1738,5.1894,5.2051,5.2051,5.2539,5.3027,5.3027,5.3535,5.4004,5.4004,5.3495,5.3219,5.3813,5.3923,5.3962,5.4122,5.4016,5.396,5.4092,5.402,5.3938,5.3868,5.3848,5.3837,5.3837,5.3837,5.3837,5.3837,5.3837,5.3837,5.3837,5.3837,5.3741,5.3549,5.353,5.3433,5.3203,5.1972,5.1337,5.1337,5.1337,5.1337,5.1337,5.1337,5.1337,4.9726,5.0254,5.0721,5.2362,5.3411,5.4301,5.5179,5.5952,5.6511,5.6511,5.6511,5.6511,5.6511,5.6556,5.6601,5.6601,5.6601,5.6601,5.6601,5.6601,5.6601,5.6601,5.6601,5.6601,5.6601,5.6601,5.6601,5.6601,5.6562,5.6523,5.6523,5.5703,5.5234,5.5234,5.4433,5.3984,5.3926,5.3926,5.3926,5.3926,5.3984,5.4004,5.4004,5.4004,5.3945,5.3867,5.3867,5.3867,5.3867,5.3867,5.3887,5.3926,5.3926,5.3965,5.3984,5.3945,5.3926,5.3808,5.293,5.2637,5.25,5.168,5.1406,5.1406,5.1406,5.1973,5.2637,5.2637,5.3223,5.3867,5.3867,5.3906,5.3926,5.3926,5.3965,5.4004,5.4004,5.3964,5.3944,5.3982,5.3994,5.4232,5.5009,5.5061,5.5252,5.5941,5.5891,5.574,5.5662,5.5611,5.5568,5.5568,5.5568,5.5568,5.5568,5.5568,5.5568,5.5568,5.5568,5.5222,5.4453,5.4434,5.4049,5.3222,5.3106,5.3068,5.3068,5.3068,5.3068,5.3068,5.3068,5.3068,4.8359,4.9355,5.0467,5.158,5.2512,5.3538,5.4963,5.5482,5.5823,5.638,5.6494,5.6492,5.6444,5.6497,5.6534,5.6534,5.6579,5.6601,5.6601,5.6601,5.6601,5.6601,5.6601,5.6601,5.6601,5.6601,5.6601,5.6601,5.6601,5.6601,5.6601,5.6308,5.6133,5.6133,5.582,5.539,5.4844,5.4824,5.4824,5.4844,5.539,5.5664,5.5664,5.5664,5.5664,5.5664,5.5664,5.5039,5.4004,5.4004,5.4336,5.4824,5.4824,5.5176,5.5605,5.5039,5.4824,5.4707,5.3848,5.3535,5.3476,5.3164,5.3066,5.3066,5.3066,5.3281,5.3535,5.3535,5.3769,5.4004,5.4004,5.4414,5.498,5.5547,5.5664,5.5664,5.5664,5.5234,5.5,5.5566,5.5662,5.5752,5.5989,5.5981,5.6017,5.6232,5.6121,5.5986,5.5885,5.5816,5.5745,5.5695,5.5703,5.5703,5.5703,5.5703,5.5703,5.5703,5.5703,5.5568,5.528,5.5261,5.5126,5.4818,5.4799,5.428,5.3203,5.3203,5.3203,5.3203,5.3203,5.3203,4.7519,4.8456,4.9586,5.0699,5.1626,5.2644,5.406,5.4789,5.5318,5.5876,5.6223,5.6406,5.6357,5.6386,5.6453,5.6495,5.6551,5.6598,5.6599,5.6601,5.6601,5.6601,5.6601,5.6601,5.6601,5.6601,5.6601,5.6601,5.6601,5.6601,5.6601,5.6601,5.6601,5.6601,5.6601,5.6328,5.5742,5.5742,5.5742,5.5742,5.6328,5.6601,5.6601,5.6601,5.6601,5.6601,5.6601,5.5937,5.4863,5.4863,5.5215,5.5742,5.5742,5.6094,5.6523,5.5957,5.5742,5.5605,5.4746,5.4433,5.4394,5.4101,5.4004,5.4004,5.4004,5.4199,5.4433,5.4433,5.4648,5.4863,5.4863,5.5293,5.5879,5.6465,5.6601,5.6601,5.6601,5.6152,5.5918,5.6484,5.6601,5.6599,5.6533,5.6482,5.6406,5.6339,5.622,5.6098,5.596,5.5866,5.5766,5.5714,5.5703,5.5703,5.5703,5.5703,5.5703,5.5703,5.5703,5.5703,5.5703,5.5703,5.5703,5.5703,5.5703,5.5145,5.4049,5.4049,5.4049,5.4049,5.4049,5.4049,0.0,0.0,0.0,4.9652,5.0722,5.158,5.2403,5.386,5.5015,5.5016,5.566,5.6245,5.6213,5.6245,5.6339,5.6472,5.6543,5.6613,5.6638,5.664,5.664,5.668,5.668,5.668,5.664,5.664,5.6621,5.6601,5.6601,5.6601,5.6601,5.6601,5.6601,5.6601,5.6601,5.6601,5.6601,5.6601,5.6601,5.6601,5.6601,5.6601,5.6601,5.6601,5.6601,5.6601,5.6601,5.6601,5.6601,5.6601,5.6601,5.6601,5.6601,5.6601,5.6601,5.6601,5.6601,5.6484,5.5625,5.5332,5.5195,5.4355,5.4082,5.4082,5.4082,5.4668,5.5332,5.5332,5.5957,5.6601,5.6601,5.6601,5.6601,5.6601,5.6601,5.6601,5.6601,5.6601,5.6601,5.6601,5.6601,5.6601,5.66,5.6548,5.6477,5.6413,5.6297,5.6163,5.601,5.5895,5.5776,5.5714,5.5703,5.5703,5.5703,5.5703,5.5703,5.5703,5.5703,5.5703,5.5703,5.5703,5.5703,5.5703,5.5703,5.5703,5.5703,5.5703,5.5703,5.5703,5.5703,5.5703,4.6582,0.0,0.0,0.0,0.0,0.0,5.2339,5.2984,5.3635,5.484,5.5238,5.5518,5.6022,5.6186,5.6258,5.6334,5.6449,5.6754,5.7389,5.7517,5.7773,5.8418,5.8476,5.8223,5.7598,5.7539,5.7285,5.664,5.6601,5.6601,5.6601,5.6601,5.6601,5.6601,5.6601,5.6601,5.6601,5.6601,5.6601,5.6601,5.6601,5.6601,5.6601,5.6601,5.6601,5.6601,5.6601,5.6601,5.6601,5.6601,5.6601,5.6601,5.6601,5.6601,5.6601,5.6601,5.6601,5.6562,5.6328,5.623,5.6191,5.5957,5.5879,5.5879,5.5879,5.6055,5.623,5.623,5.6406,5.6601,5.6601,5.6601,5.6601,5.6601,5.6601,5.6601,5.6601,5.6601,5.6601,5.6601,5.6601,5.6601,5.66,5.6574,5.6559,5.6484,5.6362,5.6244,5.617,5.5993,5.5847,5.5776,5.5735,5.5703,5.5703,5.5703,5.5703,5.5703,5.5703,5.5703,5.5703,5.5703,5.5703,5.5703,5.5703,5.5703,5.5703,5.5703,5.5703,5.5703,5.5703,5.5703,4.6308,4.6679,4.7263,4.8116,0.0,0.0,5.1266,5.211,5.2866,5.3813,5.4532,5.5112,5.5459,5.5881,5.6185,5.6174,5.632,5.6762,5.7672,5.7866,5.8222,5.9101,5.9199,5.9004,5.8496,5.8105,5.7695,5.7187,5.6816,5.6601,5.6601,5.6601,5.6601,5.6601,5.6601,5.6601,5.6601,5.6601,5.6601,5.6601,5.6601,5.6601,5.6601,5.6601,5.6601,5.6601,5.6601,5.6601,5.6601,5.6601,5.6601,5.6601,5.6601,5.6601,5.6601,5.6601,5.6601,5.6601,5.6601,5.6601,5.6601,5.6601,5.6601,5.6601,5.6601,5.6601,5.6601,5.6601,5.6601,5.6601,5.6601,5.6601,5.6601,5.6601,5.6601,5.6601,5.6601,5.6601,5.6601,5.6601,5.6601,5.6601,5.6601,5.6599,5.6571,5.6508,5.6416,5.6325,5.6246,5.6091,5.5959,5.5856,5.5776,5.5735,5.5714,5.5703,5.5703,5.5703,5.5703,5.5703,5.5703,5.5703,5.5703,5.5703,5.5703,5.5703,5.5703,5.5703,5.5703,5.5703,5.5703,5.5703,4.6308,4.6308,4.6521,4.743,4.8242,0.0,4.9948,5.1359,5.2473,5.2499,5.368,5.4699,5.4602,5.5381,5.6002,5.5893,5.6154,5.6745,5.7783,5.8,5.8397,5.9355,5.9473,5.9433,5.9336,5.8633,5.8105,5.791,5.709,5.6601,5.6601,5.6601,5.6601,5.6601,5.6601,5.6601,5.6601,5.6601,5.6601,5.6601,5.6601,5.6601,5.6601,5.6601,5.6601,5.6601,5.6601,5.6601,5.6601,5.6601,5.6601,5.6601,5.6601,5.6601,5.6601,5.6601,5.6601,5.6601,5.6601,5.6601,5.6601,5.6601,5.6601,5.6601,5.6601,5.6601,5.6601,5.6601,5.6601,5.6601,5.6601,5.6601,5.6601,5.6601,5.6601,5.6601,5.6601,5.6601,5.6601,5.6601,5.6601,5.6601,5.6601,5.6601,5.6578,5.6528,5.645,5.6383,5.6322,5.6179,5.6073,5.5933,5.5856,5.5776,5.5724,5.5695,5.5703,5.5703,5.5703,5.5703,5.5703,5.5703,5.5703,5.5703,5.5703,5.5703,5.5703,5.5703,5.5703,5.5703,5.5703,5.5703,4.6308,4.6308,4.6679,4.824,4.8746,0.0,5.0786,5.1384,5.1818,5.2454,5.2808,5.3149,5.3705,5.4463,5.5017,5.5098,5.5741,5.683,5.8535,5.8873,5.951,6.1035,6.1211,6.0937,6.0234,6.0019,5.9355,5.8008,5.709,5.6601,5.6601,5.6601,5.6601,5.6601,5.6601,5.6601,5.6601,5.6601,5.6601,5.6601,5.6601,5.6601,5.6601,5.6601,5.6601,5.6601,5.6601,5.6601,5.6601,5.6601,5.6601,5.6601,5.6601,5.6601,5.6601,5.6601,5.6601,5.6601,5.6601,5.6601,5.6601,5.6601,5.6601,5.6601,5.6601,5.6601,5.6601,5.6601,5.6601,5.6601,5.6601,5.6601,5.6601,5.6601,5.6601,5.6601,5.6601,5.6601,5.6601,5.6601,5.6601,5.6601,5.6601,5.6601,5.6601,5.6579,5.652,5.6461,5.6387,5.6267,5.6158,5.6073,5.5951,5.5856,5.5776,5.5735,5.5703,5.5703,5.5703,5.5703,5.5703,5.5703,5.5703,5.5703,5.5703,5.5703,5.5703,5.5703,5.5703,5.5703,5.5703,5.5703,4.6308,4.6621,4.7168,4.8026,4.8905,0.0,0.0,5.1081,5.1501,5.1928,5.2292,5.2645,5.295,5.3656,5.4357,5.4825,5.5313,5.6305,5.8139,5.8826,5.9624,6.0898,6.1445,6.1523,6.1094,6.0664,5.9707,5.8027,5.709,5.6601,5.6601,5.6601,5.6601,5.6601,5.6601,5.6601,5.6601,5.6601,5.6601,5.6601,5.6601,5.6601,5.6601,5.6601,5.6601,5.6601,5.6601,5.6601,5.6601,5.6601,5.6601,5.6601,5.6601,5.6601,5.6601,5.6601,5.6601,5.6601,5.6601,5.6601,5.6601,5.6601,5.6601,5.6601,5.6601,5.6601,5.6601,5.6601,5.6601,5.6601,5.6601,5.6601,5.6601,5.6601,5.6601,5.6601,5.6601,5.6601,5.6601,5.6601,5.6601,5.6601,5.6601,5.6601,5.6601,5.66,5.6572,5.6532,5.6452,5.6324,5.6226,5.6156,5.6003,5.5876,5.5816,5.5745,5.5703,5.5703,5.5703,5.5703,5.5703,5.5703,5.5703,5.5703,5.5703,5.5703,5.5703,5.5703,5.5703,5.5703,5.5703,5.5703,4.6735,4.7304,4.7891,4.8066,0.0,5.0233,0.0,0.0,0.0,5.14,5.1913,5.2321,5.2217,5.2889,5.3669,5.433,5.4808,5.5602,5.7091,5.8191,5.9189,6.0058,6.0781,6.1289,6.1426,6.0664,5.9531,5.8008,5.709,5.6601,5.6601,5.6601,5.6601,5.6601,5.6601,5.6601,5.6601,5.6601,5.6601,5.6601,5.6601,5.6601,5.6601,5.6601,5.6601,5.6601,5.6601,5.6601,5.6601,5.6601,5.6601,5.6601,5.6601,5.6601,5.6601,5.6601,5.6601,5.6601,5.6601,5.6601,5.6601,5.6601,5.6601,5.6601,5.6601,5.6601,5.6601,5.6601,5.6601,5.6601,5.6601,5.6601,5.6601,5.6601,5.6601,5.6601,5.6601,5.6601,5.6601,5.6601,5.6601,5.6601,5.6601,5.6601,5.6601,5.66,5.6597,5.6588,5.6502,5.6402,5.6315,5.6227,5.6048,5.5902,5.5847,5.5766,5.5724,5.5724,5.5714,5.5703,5.5703,5.5703,5.5703,5.5703,5.5703,5.5703,5.5703,5.5703,5.5703,5.5703,5.5703,5.5703,4.8311,4.8629,4.8944,0.0,5.0058,5.0371,5.1094,0.0,5.1396,5.1409,0.0,5.1515,5.1433,0.0,0.0,5.2758,5.4022,5.5121,5.5443,5.6909,5.8289,5.9238,5.9414,5.9765,6.0488,5.9805,5.8945,5.7969,5.709,5.6601,5.6601,5.6601,5.6601,5.6601,5.6601,5.6601,5.6601,5.6601,5.6601,5.6601,5.6601,5.6601,5.6601,5.6601,5.6601,5.6601,5.6601,5.6601,5.6601,5.6601,5.6601,5.6601,5.6601,5.6601,5.6601,5.6601,5.6601,5.6601,5.6601,5.6601,5.6601,5.6601,5.6601,5.6601,5.6601,5.6601,5.6601,5.6601,5.6601,5.6601,5.6601,5.6601,5.6601,5.6601,5.6601,5.6601,5.6601,5.6601,5.6601,5.6601,5.6601,5.6601,5.6601,5.6601,5.6601,5.6601,5.66,5.6576,5.6502,5.6486,5.6426,5.6308,5.6154,5.6048,5.5975,5.5866,5.5787,5.5787,5.5735,5.5703,5.5703,5.5703,5.5703,5.5703,5.5703,5.5703,5.5703,5.5703,5.5703,5.5703,5.5703,5.5703,4.8541,4.9182,4.9681,0.0,0.0,0.0,5.1328,0.0,5.1402,0.0,0.0,0.0,0.0,0.0,0.0,0.0,5.3173,5.4036,5.5114,5.5888,5.6871,5.8281,5.8887,5.9336,5.9668,5.8945,5.8281,5.793,5.709,5.6601,5.6601,5.6601,5.6601,5.6601,5.6601,5.6601,5.6601,5.6601,5.6601,5.6601,5.6601,5.6601,5.6601,5.6601,5.6601,5.6601,5.6601,5.6601,5.6601,5.6601,5.6601,5.6601,5.6601,5.6601,5.6601,5.6601,5.6601,5.6601,5.6601,5.6601,5.6601,5.6601,5.6601,5.6601,5.6601,5.6601,5.6601,5.6601,5.6601,5.6601,5.6601,5.6601,5.6601,5.6601,5.6601,5.6601,5.6601,5.6601,5.6601,5.6601,5.6601,5.6601,5.6601,5.6601,5.6601,5.6601,5.6601,5.66,5.6551,5.6511,5.6469,5.6368,5.6232,5.6132,5.6062,5.5942,5.5846,5.5797,5.5735,5.5703,5.5703,5.5703,5.5703,5.5703,5.5703,5.5703,5.5703,5.5703,5.5703,5.5703,5.5703,5.5703,4.8844,4.9755,5.0442,5.0519,0.0,0.0,0.0,0.0,0.0,0.0,0.0,0.0,0.0,0.0,0.0,0.0,0.0,5.3143,5.4407,5.4781,5.5585,5.7344,5.8301,5.875,5.8515,5.8125,5.7793,5.7558,5.6953,5.6601,5.6601,5.6601,5.6601,5.6601,5.6601,5.6601,5.6601,5.6601,5.6601,5.6601,5.6601,5.6601,5.6601,5.6601,5.6601,5.6601,5.6601,5.6601,5.6601,5.6601,5.6601,5.6601,5.6601,5.6601,5.6601,5.6601,5.6601,5.6601,5.6601,5.6601,5.6601,5.6601,5.6601,5.6601,5.6601,5.6601,5.6601,5.6601,5.6601,5.6601,5.6601,5.6777,5.6953,5.6953,5.7148,5.7305,5.7305,5.7305,5.7246,5.6992,5.6953,5.6875,5.664,5.6601,5.6601,5.6601,5.6601,5.6601,5.6596,5.6566,5.6502,5.6429,5.6325,5.6226,5.6151,5.6037,5.5913,5.5816,5.5735,5.5703,5.5703,5.5703,5.5703,5.5703,5.5703,5.5703,5.5703,5.5703,5.5703,5.5703,5.5703,5.5703,4.9614,5.0544,5.1288,5.1349,5.1384,0.0,0.0,0.0,5.1406,0.0,0.0,0.0,0.0,0.0,0.0,0.0,0.0,0.0,0.0,5.3513,5.4686,5.6426,5.7402,5.7617,5.6777,5.7422,5.7558,5.6719,5.6621,5.6601,5.6601,5.6601,5.6601,5.6601,5.6601,5.6601,5.6601,5.6601,5.6601,5.6601,5.6601,5.6601,5.6601,5.6601,5.6601,5.6601,5.6601,5.6601,5.6601,5.6601,5.6601,5.6601,5.6601,5.6601,5.6601,5.6601,5.6601,5.6601,5.6601,5.6601,5.6601,5.6601,5.6601,5.6601,5.6601,5.6601,5.6601,5.6601,5.6601,5.6601,5.6601,5.7226,5.7851,5.7851,5.8496,5.9121,5.9121,5.9121,5.8867,5.8027,5.7851,5.7598,5.6758,5.6601,5.6601,5.6601,5.6601,5.6601,5.6599,5.6596,5.6567,5.6508,5.643,5.637,5.6289,5.6161,5.6007,5.5807,5.5735,5.5703,5.5703,5.5703,5.5703,5.5703,5.5703,5.5703,5.5703,5.5703,5.5703,5.5703,5.5703,5.5703,4.9584,5.0494,5.1181,5.1245,5.1294,0.0,0.0,0.0,0.0,0.0,0.0,0.0,0.0,0.0,0.0,0.0,0.0,0.0,0.0,5.3457,5.4433,5.5605,5.6504,5.6914,5.6621,5.6875,5.6914,5.6621,5.6601,5.6601,5.6601,5.6601,5.6601,5.6601,5.6601,5.6601,5.6601,5.6601,5.6601,5.6601,5.6601,5.6601,5.6601,5.6601,5.6601,5.6601,5.6601,5.6601,5.6601,5.6601,5.6601,5.6601,5.6601,5.6601,5.6601,5.6601,5.6601,5.6601,5.6601,5.6601,5.6601,5.6601,5.6601,5.6601,5.6601,5.6601,5.6601,5.6601,5.6601,5.6738,5.7305,5.7676,5.8047,5.8613,5.8984,5.9199,5.9199,5.9199,5.9101,5.8828,5.8769,5.8672,5.8379,5.832,5.793,5.6777,5.6601,5.6601,5.66,5.6598,5.6574,5.6501,5.6475,5.6432,5.6372,5.6194,5.6026,5.5875,5.5837,5.5818,5.5818,5.5818,5.5818,5.5818,5.5797,5.5766,5.5766,5.5724,5.5703,5.5703,5.5703,5.5703,4.9102,5.0138,0.0,5.1118,5.118,0.0,5.1316,0.0,5.1377,0.0,0.0,0.0,0.0,0.0,0.0,0.0,0.0,0.0,0.0,5.2988,5.3867,5.4726,5.5605,5.6269,5.6562,5.6601,5.6601,5.6601,5.6601,5.6601,5.6601,5.6601,5.6601,5.6601,5.6601,5.6601,5.6601,5.6601,5.6601,5.6601,5.6601,5.6601,5.6601,5.6601,5.6601,5.6601,5.6601,5.6601,5.6601,5.6601,5.6601,5.6601,5.6601,5.6601,5.6601,5.6601,5.6601,5.6601,5.6601,5.6601,5.6601,5.6601,5.6601,5.6601,5.6601,5.6601,5.6601,5.6601,5.6816,5.7187,5.7754,5.834,5.8926,5.9492,5.9863,6.0098,6.0098,6.0098,6.0,5.9687,5.9629,5.9531,5.9258,5.9199,5.8828,5.7695,5.7519,5.7519,5.7519,5.7519,5.738,5.7043,5.6994,5.6848,5.6426,5.6251,5.6114,5.6007,5.5982,5.5965,5.5947,5.5947,5.591,5.5893,5.5856,5.5827,5.5797,5.5756,5.5724,5.5703,5.5703,5.5703]}]]